Wetterdaten: Dienstag, 12.12.2017
Datum Zeit Temp. A. Pool Temp. Feuchte A. Luftdruck Regen Wind Richtung Richtung Sonnenschein ET UV Solar Taupunkt Windchill Windben Empfang
12.12.2017 00:00 4,3 C 3,9 C 85 % 992,2 hPa 0,0 l/m 19,5 km/h (3 Bft) W-SW 254 0 min 0,000 mm 0,0 UV-I 0 W/m 2,0 C -3,9 C 29,0 km/h (5 Bft) 98,00 %
12.12.2017 00:02 4,2 C 3,9 C 86 % 992,2 hPa 0,0 l/m 15,8 km/h (3 Bft) W-SW 252 0 min 0,000 mm 0,0 UV-I 0 W/m 2,1 C -2,3 C 29,0 km/h (5 Bft) 100,00 %
12.12.2017 00:04 4,2 C 3,9 C 86 % 992,3 hPa 0,0 l/m 15,4 km/h (3 Bft) W-SW 246 0 min 0,000 mm 0,0 UV-I 0 W/m 2,1 C -2,1 C 24,1 km/h (4 Bft) 100,00 %
12.12.2017 00:06 4,2 C 3,9 C 86 % 992,3 hPa 0,0 l/m 15,7 km/h (3 Bft) SW 226 0 min 0,000 mm 0,0 UV-I 0 W/m 2,1 C -2,3 C 22,5 km/h (4 Bft) 97,22 %
12.12.2017 00:08 4,2 C 3,9 C 86 % 992,4 hPa 0,0 l/m 14,8 km/h (3 Bft) SW 236 0 min 0,000 mm 0,0 UV-I 0 W/m 2,1 C -1,8 C 20,9 km/h (4 Bft) 100,00 %
12.12.2017 00:10 4,2 C 3,9 C 86 % 992,5 hPa 0,0 l/m 15,8 km/h (3 Bft) W-SW 255 0 min 0,000 mm 0,0 UV-I 0 W/m 2,1 C -2,3 C 22,5 km/h (4 Bft) 100,00 %
12.12.2017 00:12 4,1 C 3,9 C 86 % 992,5 hPa 0,0 l/m 15,0 km/h (3 Bft) SW 233 0 min 0,000 mm 0,0 UV-I 0 W/m 2,0 C -2,0 C 20,9 km/h (4 Bft) 100,00 %
12.12.2017 00:14 4,0 C 3,9 C 86 % 992,7 hPa 0,0 l/m 16,0 km/h (3 Bft) W-SW 245 0 min 0,000 mm 0,0 UV-I 0 W/m 1,9 C -2,7 C 22,5 km/h (4 Bft) 100,00 %
12.12.2017 00:16 3,9 C 3,9 C 86 % 992,9 hPa 0,0 l/m 15,5 km/h (3 Bft) SW 218 0 min 0,000 mm 0,0 UV-I 0 W/m 1,8 C -2,5 C 25,7 km/h (4 Bft) 97,73 %
12.12.2017 00:18 3,9 C 3,9 C 86 % 992,9 hPa 0,0 l/m 16,1 km/h (3 Bft) SW 236 0 min 0,000 mm 0,0 UV-I 0 W/m 1,8 C -2,8 C 22,5 km/h (4 Bft) 100,00 %
12.12.2017 00:20 3,8 C 3,9 C 87 % 992,9 hPa 0,0 l/m 19,4 km/h (3 Bft) W-SW 244 0 min 0,000 mm 0,0 UV-I 0 W/m 1,8 C -4,5 C 27,4 km/h (4 Bft) 100,00 %
12.12.2017 00:22 3,8 C 3,9 C 87 % 992,9 hPa 0,0 l/m 15,5 km/h (3 Bft) W-SW 254 0 min 0,000 mm 0,0 UV-I 0 W/m 1,8 C -2,6 C 24,1 km/h (4 Bft) 100,00 %
12.12.2017 00:24 3,8 C 3,9 C 87 % 992,9 hPa 0,0 l/m 17,2 km/h (3 Bft) W-SW 255 0 min 0,000 mm 0,0 UV-I 0 W/m 1,8 C -3,5 C 25,7 km/h (4 Bft) 98,11 %
12.12.2017 00:26 3,9 C 3,9 C 87 % 992,9 hPa 0,0 l/m 17,6 km/h (3 Bft) W-SW 244 0 min 0,000 mm 0,0 UV-I 0 W/m 1,9 C -3,5 C 27,4 km/h (4 Bft) 100,00 %
12.12.2017 00:28 4,0 C 3,9 C 87 % 993,0 hPa 0,0 l/m 17,1 km/h (3 Bft) W-SW 244 0 min 0,000 mm 0,0 UV-I 0 W/m 2,0 C -3,2 C 25,7 km/h (4 Bft) 100,00 %
12.12.2017 00:30 4,1 C 3,9 C 87 % 993,1 hPa 0,0 l/m 16,5 km/h (3 Bft) W-SW 242 0 min 0,000 mm 0,0 UV-I 0 W/m 2,1 C -2,8 C 24,1 km/h (4 Bft) 100,00 %
12.12.2017 00:32 4,1 C 3,9 C 87 % 993,2 hPa 0,0 l/m 14,8 km/h (3 Bft) W-SW 238 0 min 0,000 mm 0,0 UV-I 0 W/m 2,1 C -1,9 C 24,1 km/h (4 Bft) 100,00 %
12.12.2017 00:34 4,1 C 3,9 C 87 % 993,3 hPa 0,0 l/m 15,2 km/h (3 Bft) W 265 0 min 0,000 mm 0,0 UV-I 0 W/m 2,1 C -2,1 C 20,9 km/h (4 Bft) 100,00 %
12.12.2017 00:36 4,2 C 3,9 C 87 % 993,4 hPa 0,0 l/m 14,3 km/h (3 Bft) S-SW 208 0 min 0,000 mm 0,0 UV-I 0 W/m 2,2 C -1,5 C 22,5 km/h (4 Bft) 98,11 %
12.12.2017 00:38 4,3 C 3,9 C 87 % 993,4 hPa 0,0 l/m 14,1 km/h (3 Bft) W-SW 255 0 min 0,000 mm 0,0 UV-I 0 W/m 2,3 C -1,3 C 22,5 km/h (4 Bft) 97,56 %
12.12.2017 00:40 4,3 C 3,9 C 87 % 993,4 hPa 0,0 l/m 16,0 km/h (3 Bft) W-SW 245 0 min 0,000 mm 0,0 UV-I 0 W/m 2,3 C -2,3 C 24,1 km/h (4 Bft) 97,73 %
12.12.2017 00:42 4,3 C 3,9 C 86 % 993,3 hPa 0,0 l/m 11,8 km/h (2 Bft) W-SW 237 0 min 0,000 mm 0,0 UV-I 0 W/m 2,2 C 0,1 C 20,9 km/h (4 Bft) 96,23 %
12.12.2017 00:44 4,2 C 3,9 C 87 % 993,3 hPa 0,0 l/m 12,1 km/h (2 Bft) W-SW 252 0 min 0,000 mm 0,0 UV-I 0 W/m 2,2 C -0,2 C 20,9 km/h (4 Bft) 97,87 %
12.12.2017 00:46 4,2 C 3,9 C 87 % 993,4 hPa 0,0 l/m 13,5 km/h (3 Bft) W-SW 239 0 min 0,000 mm 0,0 UV-I 0 W/m 2,2 C -1,1 C 19,3 km/h (3 Bft) 97,22 %
12.12.2017 00:48 4,2 C 3,9 C 87 % 993,6 hPa 0,0 l/m 14,1 km/h (3 Bft) W-SW 254 0 min 0,000 mm 0,0 UV-I 0 W/m 2,2 C -1,4 C 17,7 km/h (3 Bft) 98,21 %
12.12.2017 00:50 4,2 C 3,9 C 87 % 993,8 hPa 0,0 l/m 14,5 km/h (3 Bft) SW 234 0 min 0,000 mm 0,0 UV-I 0 W/m 2,2 C -1,6 C 19,3 km/h (3 Bft) 96,00 %
12.12.2017 00:52 4,1 C 3,9 C 87 % 993,8 hPa 0,0 l/m 14,4 km/h (3 Bft) W-SW 244 0 min 0,000 mm 0,0 UV-I 0 W/m 2,1 C -1,7 C 20,9 km/h (4 Bft) 97,44 %
12.12.2017 00:54 4,2 C 3,9 C 87 % 993,9 hPa 0,0 l/m 13,7 km/h (3 Bft) W-SW 247 0 min 0,000 mm 0,0 UV-I 0 W/m 2,2 C -1,2 C 19,3 km/h (3 Bft) 96,00 %
12.12.2017 00:56 4,2 C 3,9 C 87 % 993,9 hPa 0,0 l/m 13,8 km/h (3 Bft) W 266 0 min 0,000 mm 0,0 UV-I 0 W/m 2,2 C -1,2 C 19,3 km/h (3 Bft) 98,11 %
12.12.2017 00:58 4,2 C 3,9 C 87 % 993,9 hPa 0,0 l/m 12,8 km/h (3 Bft) S-SW 209 0 min 0,000 mm 0,0 UV-I 0 W/m 2,2 C -0,7 C 17,7 km/h (3 Bft) 97,56 %
12.12.2017 01:00 4,2 C 3,9 C 87 % 994,1 hPa 0,0 l/m 14,5 km/h (3 Bft) SW 236 0 min 0,025 mm 0,0 UV-I 0 W/m 2,2 C -1,6 C 20,9 km/h (4 Bft) 98,00 %
12.12.2017 01:02 4,3 C 3,9 C 87 % 994,0 hPa 0,0 l/m 14,3 km/h (3 Bft) W-SW 256 0 min 0,000 mm 0,0 UV-I 0 W/m 2,3 C -1,4 C 20,9 km/h (4 Bft) 86,96 %
12.12.2017 01:04 4,3 C 3,9 C 87 % 994,1 hPa 0,0 l/m 14,8 km/h (3 Bft) SW 230 0 min 0,000 mm 0,0 UV-I 0 W/m 2,3 C -1,7 C 19,3 km/h (3 Bft) 98,53 %
12.12.2017 01:06 4,3 C 3,9 C 87 % 994,1 hPa 0,0 l/m 13,2 km/h (3 Bft) SW 230 0 min 0,000 mm 0,0 UV-I 0 W/m 2,3 C -0,8 C 19,3 km/h (3 Bft) 97,56 %
12.12.2017 01:08 4,3 C 3,9 C 87 % 994,2 hPa 0,0 l/m 14,9 km/h (3 Bft) W-SW 238 0 min 0,000 mm 0,0 UV-I 0 W/m 2,3 C -1,7 C 19,3 km/h (3 Bft) 96,23 %
12.12.2017 01:10 4,4 C 3,9 C 87 % 994,3 hPa 0,0 l/m 16,0 km/h (3 Bft) SW 225 0 min 0,000 mm 0,0 UV-I 0 W/m 2,4 C -2,2 C 22,5 km/h (4 Bft) 95,12 %
12.12.2017 01:12 4,5 C 3,9 C 87 % 994,5 hPa 0,0 l/m 16,9 km/h (3 Bft) S-SW 208 0 min 0,000 mm 0,0 UV-I 0 W/m 2,5 C -2,5 C 24,1 km/h (4 Bft) 98,11 %
12.12.2017 01:14 4,6 C 3,9 C 86 % 994,5 hPa 0,0 l/m 15,1 km/h (3 Bft) SW 234 0 min 0,000 mm 0,0 UV-I 0 W/m 2,5 C -1,5 C 20,9 km/h (4 Bft) 97,56 %
12.12.2017 01:16 4,6 C 3,9 C 86 % 994,5 hPa 0,0 l/m 11,3 km/h (2 Bft) SW 232 0 min 0,000 mm 0,0 UV-I 0 W/m 2,5 C 0,7 C 16,1 km/h (3 Bft) 97,56 %
12.12.2017 01:18 4,6 C 3,9 C 86 % 994,6 hPa 0,0 l/m 12,5 km/h (3 Bft) SW 235 0 min 0,000 mm 0,0 UV-I 0 W/m 2,5 C -0,0 C 17,7 km/h (3 Bft) 100,00 %
12.12.2017 01:20 4,6 C 3,9 C 86 % 994,6 hPa 0,0 l/m 12,1 km/h (2 Bft) W-SW 240 0 min 0,000 mm 0,0 UV-I 0 W/m 2,5 C 0,2 C 14,5 km/h (3 Bft) 96,00 %
12.12.2017 01:22 4,6 C 3,9 C 86 % 994,5 hPa 0,0 l/m 12,8 km/h (3 Bft) W-SW 246 0 min 0,000 mm 0,0 UV-I 0 W/m 2,5 C -0,2 C 20,9 km/h (4 Bft) 100,00 %
12.12.2017 01:24 4,6 C 3,9 C 86 % 994,5 hPa 0,0 l/m 10,6 km/h (2 Bft) SW 225 0 min 0,000 mm 0,0 UV-I 0 W/m 2,5 C 1,2 C 16,1 km/h (3 Bft) 100,00 %
12.12.2017 01:26 4,6 C 3,9 C 86 % 994,6 hPa 0,0 l/m 11,9 km/h (2 Bft) SW 232 0 min 0,000 mm 0,0 UV-I 0 W/m 2,5 C 0,4 C 19,3 km/h (3 Bft) 100,00 %
12.12.2017 01:28 4,6 C 3,9 C 86 % 994,6 hPa 0,0 l/m 9,7 km/h (2 Bft) W-SW 240 0 min 0,000 mm 0,0 UV-I 0 W/m 2,5 C 1,8 C 16,1 km/h (3 Bft) 97,44 %
12.12.2017 01:30 4,6 C 3,9 C 86 % 994,9 hPa 0,0 l/m 10,8 km/h (2 Bft) SW 234 0 min 0,000 mm 0,0 UV-I 0 W/m 2,5 C 1,1 C 16,1 km/h (3 Bft) 98,21 %
12.12.2017 01:32 4,6 C 3,9 C 86 % 995,0 hPa 0,0 l/m 10,2 km/h (2 Bft) SW 233 0 min 0,000 mm 0,0 UV-I 0 W/m 2,5 C 1,5 C 14,5 km/h (3 Bft) 95,12 %
12.12.2017 01:34 4,6 C 3,9 C 86 % 995,0 hPa 0,0 l/m 12,2 km/h (2 Bft) SW 232 0 min 0,000 mm 0,0 UV-I 0 W/m 2,5 C 0,2 C 17,7 km/h (3 Bft) 100,00 %
12.12.2017 01:36 4,6 C 3,9 C 87 % 995,2 hPa 0,0 l/m 12,0 km/h (2 Bft) SW 233 0 min 0,000 mm 0,0 UV-I 0 W/m 2,6 C 0,3 C 17,7 km/h (3 Bft) 98,00 %
12.12.2017 01:38 4,5 C 3,9 C 87 % 995,2 hPa 0,0 l/m 9,7 km/h (2 Bft) W-SW 248 0 min 0,000 mm 0,0 UV-I 0 W/m 2,5 C 1,7 C 12,9 km/h (3 Bft) 100,00 %
12.12.2017 01:40 4,5 C 3,9 C 87 % 995,3 hPa 0,0 l/m 8,9 km/h (2 Bft) SW 215 0 min 0,000 mm 0,0 UV-I 0 W/m 2,5 C 2,3 C 14,5 km/h (3 Bft) 100,00 %
12.12.2017 01:42 4,4 C 3,9 C 87 % 995,3 hPa 0,0 l/m 9,4 km/h (2 Bft) W-SW 255 0 min 0,000 mm 0,0 UV-I 0 W/m 2,4 C 1,9 C 12,9 km/h (3 Bft) 100,00 %
12.12.2017 01:44 4,4 C 3,9 C 87 % 995,2 hPa 0,0 l/m 10,8 km/h (2 Bft) W-SW 249 0 min 0,000 mm 0,0 UV-I 0 W/m 2,4 C 0,8 C 12,9 km/h (3 Bft) 100,00 %
12.12.2017 01:46 4,3 C 3,9 C 87 % 995,2 hPa 0,0 l/m 11,4 km/h (2 Bft) SW 236 0 min 0,000 mm 0,0 UV-I 0 W/m 2,3 C 0,3 C 12,9 km/h (3 Bft) 100,00 %
12.12.2017 01:48 4,4 C 3,9 C 87 % 995,3 hPa 0,0 l/m 11,9 km/h (2 Bft) W-SW 250 0 min 0,000 mm 0,0 UV-I 0 W/m 2,4 C 0,1 C 16,1 km/h (3 Bft) 100,00 %
12.12.2017 01:50 4,4 C 3,9 C 87 % 995,3 hPa 0,0 l/m 12,2 km/h (2 Bft) W 264 0 min 0,000 mm 0,0 UV-I 0 W/m 2,4 C -0,1 C 14,5 km/h (3 Bft) 100,00 %
12.12.2017 01:52 4,4 C 3,9 C 87 % 995,3 hPa 0,0 l/m 11,4 km/h (2 Bft) W 266 0 min 0,000 mm 0,0 UV-I 0 W/m 2,4 C 0,4 C 14,5 km/h (3 Bft) 100,00 %
12.12.2017 01:54 4,6 C 3,9 C 87 % 995,4 hPa 0,0 l/m 11,8 km/h (2 Bft) W 259 0 min 0,000 mm 0,0 UV-I 0 W/m 2,6 C 0,4 C 16,1 km/h (3 Bft) 100,00 %
12.12.2017 01:56 4,6 C 3,9 C 87 % 995,5 hPa 0,0 l/m 13,3 km/h (3 Bft) W-SW 239 0 min 0,000 mm 0,0 UV-I 0 W/m 2,6 C -0,5 C 17,7 km/h (3 Bft) 100,00 %
12.12.2017 01:58 4,7 C 3,9 C 87 % 995,5 hPa 0,0 l/m 13,0 km/h (3 Bft) W 260 0 min 0,000 mm 0,0 UV-I 0 W/m 2,7 C -0,2 C 17,7 km/h (3 Bft) 100,00 %
12.12.2017 02:00 4,7 C 3,9 C 87 % 995,5 hPa 0,0 l/m 11,8 km/h (2 Bft) W-SW 249 0 min 0,026 mm 0,0 UV-I 0 W/m 2,7 C 0,5 C 14,5 km/h (3 Bft) 100,00 %
12.12.2017 02:02 4,7 C 3,9 C 86 % 995,5 hPa 0,0 l/m 11,5 km/h (2 Bft) W 259 0 min 0,000 mm 0,0 UV-I 0 W/m 2,6 C 0,7 C 14,5 km/h (3 Bft) 100,00 %
12.12.2017 02:04 4,7 C 3,9 C 86 % 995,6 hPa 0,0 l/m 10,9 km/h (2 Bft) W 260 0 min 0,000 mm 0,0 UV-I 0 W/m 2,6 C 1,1 C 16,1 km/h (3 Bft) 100,00 %
12.12.2017 02:06 4,8 C 3,9 C 86 % 995,6 hPa 0,0 l/m 10,6 km/h (2 Bft) W 268 0 min 0,000 mm 0,0 UV-I 0 W/m 2,7 C 1,4 C 14,5 km/h (3 Bft) 100,00 %
12.12.2017 02:08 4,8 C 3,9 C 86 % 995,7 hPa 0,0 l/m 8,2 km/h (2 Bft) W-SW 244 0 min 0,000 mm 0,0 UV-I 0 W/m 2,7 C 3,2 C 11,3 km/h (2 Bft) 100,00 %
12.12.2017 02:10 4,8 C 3,9 C 86 % 995,7 hPa 0,0 l/m 9,0 km/h (2 Bft) W-SW 254 0 min 0,000 mm 0,0 UV-I 0 W/m 2,7 C 2,6 C 12,9 km/h (3 Bft) 100,00 %
12.12.2017 02:12 4,8 C 3,9 C 86 % 995,8 hPa 0,0 l/m 9,8 km/h (2 Bft) SW 234 0 min 0,000 mm 0,0 UV-I 0 W/m 2,7 C 2,0 C 12,9 km/h (3 Bft) 100,00 %
12.12.2017 02:14 4,8 C 3,9 C 86 % 995,8 hPa 0,0 l/m 9,9 km/h (2 Bft) W 268 0 min 0,000 mm 0,0 UV-I 0 W/m 2,7 C 1,9 C 12,9 km/h (3 Bft) 100,00 %
12.12.2017 02:16 4,7 C 3,9 C 86 % 995,8 hPa 0,0 l/m 9,5 km/h (2 Bft) W-SW 257 0 min 0,000 mm 0,0 UV-I 0 W/m 2,6 C 2,1 C 11,3 km/h (2 Bft) 97,87 %
12.12.2017 02:18 4,7 C 3,9 C 87 % 995,8 hPa 0,0 l/m 10,4 km/h (2 Bft) W-SW 240 0 min 0,000 mm 0,0 UV-I 0 W/m 2,7 C 1,5 C 12,9 km/h (3 Bft) 100,00 %
12.12.2017 02:20 4,8 C 3,9 C 87 % 996,1 hPa 0,0 l/m 10,1 km/h (2 Bft) W-SW 238 0 min 0,000 mm 0,0 UV-I 0 W/m 2,8 C 1,8 C 14,5 km/h (3 Bft) 98,00 %
12.12.2017 02:22 4,8 C 3,9 C 86 % 996,2 hPa 0,0 l/m 9,8 km/h (2 Bft) W-SW 248 0 min 0,000 mm 0,0 UV-I 0 W/m 2,7 C 2,0 C 12,9 km/h (3 Bft) 100,00 %
12.12.2017 02:24 4,9 C 3,9 C 86 % 996,2 hPa 0,0 l/m 9,0 km/h (2 Bft) W 263 0 min 0,000 mm 0,0 UV-I 0 W/m 2,8 C 2,7 C 12,9 km/h (3 Bft) 100,00 %
12.12.2017 02:26 4,9 C 3,9 C 86 % 996,2 hPa 0,0 l/m 10,6 km/h (2 Bft) W 262 0 min 0,000 mm 0,0 UV-I 0 W/m 2,8 C 1,5 C 14,5 km/h (3 Bft) 98,11 %
12.12.2017 02:28 4,9 C 3,9 C 86 % 996,2 hPa 0,0 l/m 9,1 km/h (2 Bft) W 267 0 min 0,000 mm 0,0 UV-I 0 W/m 2,8 C 2,6 C 12,9 km/h (3 Bft) 97,73 %
12.12.2017 02:30 4,9 C 3,9 C 86 % 996,3 hPa 0,0 l/m 9,9 km/h (2 Bft) W 265 0 min 0,000 mm 0,0 UV-I 0 W/m 2,8 C 2,0 C 12,9 km/h (3 Bft) 100,00 %
12.12.2017 02:32 4,8 C 3,9 C 86 % 996,4 hPa 0,0 l/m 9,8 km/h (2 Bft) W 265 0 min 0,000 mm 0,0 UV-I 0 W/m 2,7 C 2,0 C 14,5 km/h (3 Bft) 100,00 %
12.12.2017 02:34 4,8 C 3,9 C 86 % 996,4 hPa 0,0 l/m 11,1 km/h (2 Bft) W-SW 258 0 min 0,000 mm 0,0 UV-I 0 W/m 2,7 C 1,1 C 14,5 km/h (3 Bft) 96,43 %
12.12.2017 02:36 4,9 C 3,9 C 86 % 996,5 hPa 0,0 l/m 10,7 km/h (2 Bft) W-SW 257 0 min 0,000 mm 0,0 UV-I 0 W/m 2,8 C 1,5 C 14,5 km/h (3 Bft) 100,00 %
12.12.2017 02:38 4,9 C 3,9 C 86 % 996,6 hPa 0,0 l/m 9,6 km/h (2 Bft) W-SW 241 0 min 0,000 mm 0,0 UV-I 0 W/m 2,8 C 2,2 C 16,1 km/h (3 Bft) 100,00 %
12.12.2017 02:40 4,9 C 3,9 C 86 % 996,7 hPa 0,0 l/m 9,6 km/h (2 Bft) W-SW 254 0 min 0,000 mm 0,0 UV-I 0 W/m 2,8 C 2,2 C 12,9 km/h (3 Bft) 100,00 %
12.12.2017 02:42 4,9 C 3,9 C 86 % 996,7 hPa 0,0 l/m 10,5 km/h (2 Bft) W-SW 256 0 min 0,000 mm 0,0 UV-I 0 W/m 2,8 C 1,6 C 14,5 km/h (3 Bft) 100,00 %
12.12.2017 02:44 4,8 C 3,9 C 86 % 996,8 hPa 0,0 l/m 13,5 km/h (3 Bft) W 266 0 min 0,000 mm 0,0 UV-I 0 W/m 2,7 C -0,4 C 17,7 km/h (3 Bft) 100,00 %
12.12.2017 02:46 4,8 C 3,9 C 86 % 996,9 hPa 0,0 l/m 13,8 km/h (3 Bft) W 264 0 min 0,000 mm 0,0 UV-I 0 W/m 2,7 C -0,5 C 17,7 km/h (3 Bft) 98,00 %
12.12.2017 02:48 4,8 C 3,9 C 87 % 997,0 hPa 0,0 l/m 11,9 km/h (2 Bft) W-SW 256 0 min 0,000 mm 0,0 UV-I 0 W/m 2,8 C 0,6 C 16,1 km/h (3 Bft) 97,62 %
12.12.2017 02:50 4,8 C 3,9 C 86 % 997,0 hPa 0,0 l/m 12,4 km/h (3 Bft) W 270 0 min 0,000 mm 0,0 UV-I 0 W/m 2,7 C 0,3 C 16,1 km/h (3 Bft) 97,56 %
12.12.2017 02:52 4,8 C 3,9 C 86 % 997,2 hPa 0,0 l/m 11,1 km/h (2 Bft) W-SW 251 0 min 0,000 mm 0,0 UV-I 0 W/m 2,7 C 1,1 C 14,5 km/h (3 Bft) 98,18 %
12.12.2017 02:54 4,8 C 3,9 C 86 % 997,3 hPa 0,0 l/m 10,8 km/h (2 Bft) W-SW 257 0 min 0,000 mm 0,0 UV-I 0 W/m 2,7 C 1,3 C 14,5 km/h (3 Bft) 100,00 %
12.12.2017 02:56 4,8 C 3,9 C 86 % 997,4 hPa 0,0 l/m 11,4 km/h (2 Bft) W-SW 257 0 min 0,000 mm 0,0 UV-I 0 W/m 2,7 C 0,9 C 14,5 km/h (3 Bft) 97,37 %
12.12.2017 02:58 4,8 C 3,9 C 87 % 997,4 hPa 0,0 l/m 10,6 km/h (2 Bft) W 260 0 min 0,000 mm 0,0 UV-I 0 W/m 2,8 C 1,4 C 14,5 km/h (3 Bft) 97,56 %
12.12.2017 03:00 4,8 C 3,9 C 86 % 997,4 hPa 0,0 l/m 12,1 km/h (2 Bft) W 269 0 min 0,000 mm 0,0 UV-I 0 W/m 2,7 C 0,5 C 14,5 km/h (3 Bft) 98,46 %
12.12.2017 03:02 4,8 C 3,9 C 87 % 997,4 hPa 0,0 l/m 10,1 km/h (2 Bft) W 261 0 min 0,025 mm 0,0 UV-I 0 W/m 2,8 C 1,8 C 14,5 km/h (3 Bft) 97,56 %
12.12.2017 03:04 4,8 C 3,9 C 86 % 997,5 hPa 0,0 l/m 10,4 km/h (2 Bft) W-SW 252 0 min 0,000 mm 0,0 UV-I 0 W/m 2,7 C 1,6 C 16,1 km/h (3 Bft) 95,74 %
12.12.2017 03:06 4,7 C 3,9 C 87 % 997,6 hPa 0,0 l/m 10,0 km/h (2 Bft) W 259 0 min 0,000 mm 0,0 UV-I 0 W/m 2,7 C 1,7 C 14,5 km/h (3 Bft) 97,87 %
12.12.2017 03:08 4,7 C 3,9 C 87 % 997,5 hPa 0,0 l/m 8,6 km/h (2 Bft) W 263 0 min 0,000 mm 0,0 UV-I 0 W/m 2,7 C 2,8 C 12,9 km/h (3 Bft) 96,23 %
12.12.2017 03:10 4,7 C 3,9 C 87 % 997,6 hPa 0,0 l/m 10,5 km/h (2 Bft) W 262 0 min 0,000 mm 0,0 UV-I 0 W/m 2,7 C 1,4 C 12,9 km/h (3 Bft) 97,56 %
12.12.2017 03:12 4,7 C 3,9 C 87 % 997,6 hPa 0,0 l/m 11,2 km/h (2 Bft) W 262 0 min 0,000 mm 0,0 UV-I 0 W/m 2,7 C 0,9 C 12,9 km/h (3 Bft) 98,00 %
12.12.2017 03:14 4,7 C 3,9 C 87 % 997,6 hPa 0,0 l/m 10,9 km/h (2 Bft) W 262 0 min 0,000 mm 0,0 UV-I 0 W/m 2,7 C 1,1 C 14,5 km/h (3 Bft) 97,56 %
12.12.2017 03:16 4,7 C 3,9 C 87 % 997,8 hPa 0,0 l/m 10,2 km/h (2 Bft) W-SW 254 0 min 0,000 mm 0,0 UV-I 0 W/m 2,7 C 1,6 C 12,9 km/h (3 Bft) 98,00 %
12.12.2017 03:18 4,7 C 3,9 C 87 % 997,8 hPa 0,0 l/m 9,6 km/h (2 Bft) W 263 0 min 0,000 mm 0,0 UV-I 0 W/m 2,7 C 2,0 C 12,9 km/h (3 Bft) 97,87 %
12.12.2017 03:20 4,6 C 3,9 C 87 % 997,9 hPa 0,0 l/m 10,5 km/h (2 Bft) W-SW 248 0 min 0,000 mm 0,0 UV-I 0 W/m 2,6 C 1,3 C 14,5 km/h (3 Bft) 98,11 %
12.12.2017 03:22 4,6 C 3,9 C 87 % 997,9 hPa 0,0 l/m 8,4 km/h (2 Bft) W-SW 253 0 min 0,000 mm 0,0 UV-I 0 W/m 2,6 C 2,9 C 12,9 km/h (3 Bft) 97,56 %
12.12.2017 03:24 4,7 C 3,9 C 87 % 997,9 hPa 0,0 l/m 8,8 km/h (2 Bft) W-SW 252 0 min 0,000 mm 0,0 UV-I 0 W/m 2,7 C 2,6 C 11,3 km/h (2 Bft) 97,62 %
12.12.2017 03:26 4,7 C 3,9 C 87 % 998,0 hPa 0,0 l/m 9,2 km/h (2 Bft) W-SW 254 0 min 0,000 mm 0,0 UV-I 0 W/m 2,7 C 2,3 C 12,9 km/h (3 Bft) 98,00 %
12.12.2017 03:28 4,8 C 3,9 C 87 % 998,0 hPa 0,0 l/m 8,4 km/h (2 Bft) W 260 0 min 0,000 mm 0,0 UV-I 0 W/m 2,8 C 3,1 C 12,9 km/h (3 Bft) 96,23 %
12.12.2017 03:30 4,7 C 3,9 C 87 % 998,1 hPa 0,0 l/m 7,4 km/h (2 Bft) W-SW 253 0 min 0,000 mm 0,0 UV-I 0 W/m 2,7 C 3,8 C 11,3 km/h (2 Bft) 97,37 %
12.12.2017 03:32 4,7 C 3,9 C 87 % 998,1 hPa 0,0 l/m 8,0 km/h (2 Bft) W-SW 250 0 min 0,000 mm 0,0 UV-I 0 W/m 2,7 C 3,3 C 12,9 km/h (3 Bft) 97,87 %
12.12.2017 03:34 4,8 C 3,9 C 87 % 998,1 hPa 0,0 l/m 9,8 km/h (2 Bft) W 262 0 min 0,000 mm 0,0 UV-I 0 W/m 2,8 C 2,0 C 16,1 km/h (3 Bft) 98,21 %
12.12.2017 03:36 4,8 C 3,9 C 87 % 998,2 hPa 0,0 l/m 8,1 km/h (2 Bft) W 269 0 min 0,000 mm 0,0 UV-I 0 W/m 2,8 C 3,3 C 14,5 km/h (3 Bft) 100,00 %
12.12.2017 03:38 4,8 C 3,9 C 87 % 998,3 hPa 0,0 l/m 7,6 km/h (2 Bft) W-SW 255 0 min 0,000 mm 0,0 UV-I 0 W/m 2,8 C 3,7 C 12,9 km/h (3 Bft) 100,00 %
12.12.2017 03:40 4,7 C 3,9 C 87 % 998,4 hPa 0,0 l/m 9,5 km/h (2 Bft) W-SW 254 0 min 0,000 mm 0,0 UV-I 0 W/m 2,7 C 2,1 C 14,5 km/h (3 Bft) 100,00 %
12.12.2017 03:42 4,6 C 3,9 C 87 % 998,5 hPa 0,0 l/m 10,1 km/h (2 Bft) W 261 0 min 0,000 mm 0,0 UV-I 0 W/m 2,6 C 1,6 C 12,9 km/h (3 Bft) 95,12 %
12.12.2017 03:44 4,6 C 3,9 C 87 % 998,5 hPa 0,0 l/m 8,6 km/h (2 Bft) W 271 0 min 0,000 mm 0,0 UV-I 0 W/m 2,6 C 2,7 C 11,3 km/h (2 Bft) 98,11 %
12.12.2017 03:46 4,6 C 3,9 C 88 % 998,5 hPa 0,0 l/m 9,9 km/h (2 Bft) W-SW 255 0 min 0,000 mm 0,0 UV-I 0 W/m 2,8 C 1,7 C 12,9 km/h (3 Bft) 97,87 %
12.12.2017 03:48 4,5 C 3,9 C 88 % 998,6 hPa 0,0 l/m 8,9 km/h (2 Bft) W-SW 257 0 min 0,000 mm 0,0 UV-I 0 W/m 2,7 C 2,3 C 14,5 km/h (3 Bft) 100,00 %
12.12.2017 03:50 4,4 C 3,9 C 88 % 998,6 hPa 0,0 l/m 8,5 km/h (2 Bft) W-SW 248 0 min 0,000 mm 0,0 UV-I 0 W/m 2,6 C 2,6 C 14,5 km/h (3 Bft) 100,00 %
12.12.2017 03:52 4,3 C 3,9 C 89 % 998,7 hPa 0,0 l/m 10,5 km/h (2 Bft) W-SW 251 0 min 0,000 mm 0,0 UV-I 0 W/m 2,7 C 0,9 C 17,7 km/h (3 Bft) 100,00 %
12.12.2017 03:54 4,3 C 3,9 C 89 % 998,8 hPa 0,0 l/m 10,9 km/h (2 Bft) SW 236 0 min 0,000 mm 0,0 UV-I 0 W/m 2,7 C 0,7 C 19,3 km/h (3 Bft) 98,15 %
12.12.2017 03:56 4,3 C 3,9 C 90 % 998,9 hPa 0,0 l/m 13,2 km/h (3 Bft) W 259 0 min 0,000 mm 0,0 UV-I 0 W/m 2,8 C -0,8 C 19,3 km/h (3 Bft) 100,00 %
12.12.2017 03:58 4,3 C 3,9 C 90 % 999,1 hPa 0,2 l/m 13,1 km/h (3 Bft) W-SW 246 0 min 0,000 mm 0,0 UV-I 0 W/m 2,8 C -0,7 C 17,7 km/h (3 Bft) 100,00 %
12.12.2017 04:00 4,3 C 3,9 C 90 % 999,1 hPa 0,0 l/m 9,9 km/h (2 Bft) W-SW 250 0 min 0,026 mm 0,0 UV-I 0 W/m 2,8 C 1,4 C 14,5 km/h (3 Bft) 100,00 %
12.12.2017 04:02 4,2 C 3,9 C 91 % 999,1 hPa 0,0 l/m 10,5 km/h (2 Bft) SW 225 0 min 0,000 mm 0,0 UV-I 0 W/m 2,9 C 0,8 C 19,3 km/h (3 Bft) 95,00 %
12.12.2017 04:04 4,2 C 3,9 C 91 % 999,1 hPa 0,0 l/m 12,4 km/h (3 Bft) W 263 0 min 0,000 mm 0,0 UV-I 0 W/m 2,9 C -0,4 C 16,1 km/h (3 Bft) 100,00 %
12.12.2017 04:06 4,1 C 3,9 C 91 % 999,1 hPa 0,0 l/m 14,1 km/h (3 Bft) SW 233 0 min 0,000 mm 0,0 UV-I 0 W/m 2,8 C -1,5 C 19,3 km/h (3 Bft) 100,00 %
12.12.2017 04:08 4,1 C 3,9 C 92 % 999,2 hPa 0,2 l/m 14,6 km/h (3 Bft) SW 236 0 min 0,000 mm 0,0 UV-I 0 W/m 2,9 C -1,8 C 19,3 km/h (3 Bft) 98,21 %
12.12.2017 04:10 4,1 C 3,9 C 92 % 999,3 hPa 0,0 l/m 15,4 km/h (3 Bft) W-SW 239 0 min 0,000 mm 0,0 UV-I 0 W/m 2,9 C -2,2 C 24,1 km/h (4 Bft) 100,00 %
12.12.2017 04:12 4,0 C 3,9 C 92 % 999,2 hPa 0,0 l/m 18,5 km/h (3 Bft) W 273 0 min 0,000 mm 0,0 UV-I 0 W/m 2,8 C -3,8 C 25,7 km/h (4 Bft) 97,56 %
12.12.2017 04:14 4,0 C 3,9 C 92 % 999,2 hPa 0,2 l/m 18,5 km/h (3 Bft) W-SW 256 0 min 0,000 mm 0,0 UV-I 0 W/m 2,8 C -3,8 C 30,6 km/h (5 Bft) 98,11 %
12.12.2017 04:16 4,0 C 3,9 C 92 % 999,5 hPa 0,0 l/m 17,0 km/h (3 Bft) SW 220 0 min 0,000 mm 0,0 UV-I 0 W/m 2,8 C -3,1 C 24,1 km/h (4 Bft) 97,87 %
12.12.2017 04:18 3,9 C 3,9 C 92 % 999,5 hPa 0,0 l/m 15,2 km/h (3 Bft) SW 233 0 min 0,000 mm 0,0 UV-I 0 W/m 2,7 C -2,4 C 20,9 km/h (4 Bft) 97,56 %
12.12.2017 04:20 3,9 C 3,9 C 92 % 999,5 hPa 0,2 l/m 17,2 km/h (3 Bft) SW 229 0 min 0,000 mm 0,0 UV-I 0 W/m 2,7 C -3,4 C 25,7 km/h (4 Bft) 98,11 %
12.12.2017 04:22 3,9 C 3,9 C 92 % 999,6 hPa 0,0 l/m 12,4 km/h (3 Bft) W-SW 252 0 min 0,000 mm 0,0 UV-I 0 W/m 2,7 C -0,8 C 19,3 km/h (3 Bft) 97,37 %
12.12.2017 04:24 3,8 C 3,9 C 92 % 999,6 hPa 0,0 l/m 17,7 km/h (3 Bft) W 259 0 min 0,000 mm 0,0 UV-I 0 W/m 2,6 C -3,7 C 24,1 km/h (4 Bft) 97,73 %
12.12.2017 04:26 3,8 C 3,9 C 92 % 999,7 hPa 0,0 l/m 19,2 km/h (3 Bft) SW 236 0 min 0,000 mm 0,0 UV-I 0 W/m 2,6 C -4,4 C 32,2 km/h (5 Bft) 94,34 %
12.12.2017 04:28 3,8 C 3,9 C 92 % 999,8 hPa 0,2 l/m 19,8 km/h (3 Bft) SW 214 0 min 0,000 mm 0,0 UV-I 0 W/m 2,6 C -4,6 C 25,7 km/h (4 Bft) 98,11 %
12.12.2017 04:30 3,8 C 3,9 C 92 % 999,9 hPa 0,0 l/m 19,8 km/h (3 Bft) W-SW 254 0 min 0,000 mm 0,0 UV-I 0 W/m 2,6 C -4,6 C 25,7 km/h (4 Bft) 97,37 %
12.12.2017 04:32 3,8 C 3,9 C 92 % 1000,0 hPa 0,0 l/m 17,7 km/h (3 Bft) W 277 0 min 0,000 mm 0,0 UV-I 0 W/m 2,6 C -3,7 C 24,1 km/h (4 Bft) 97,56 %
12.12.2017 04:34 3,8 C 3,9 C 92 % 1000,1 hPa 0,0 l/m 15,7 km/h (3 Bft) W-SW 238 0 min 0,000 mm 0,0 UV-I 0 W/m 2,6 C -2,7 C 25,7 km/h (4 Bft) 97,78 %
12.12.2017 04:36 3,7 C 3,9 C 92 % 1000,1 hPa 0,2 l/m 14,1 km/h (3 Bft) W 259 0 min 0,000 mm 0,0 UV-I 0 W/m 2,5 C -2,0 C 22,5 km/h (4 Bft) 98,18 %
12.12.2017 04:38 3,7 C 3,9 C 93 % 1000,1 hPa 0,0 l/m 15,4 km/h (3 Bft) W-SW 251 0 min 0,000 mm 0,0 UV-I 0 W/m 2,7 C -2,7 C 22,5 km/h (4 Bft) 98,00 %
12.12.2017 04:40 3,6 C 3,9 C 93 % 1000,2 hPa 0,0 l/m 12,7 km/h (3 Bft) W 265 0 min 0,000 mm 0,0 UV-I 0 W/m 2,6 C -1,3 C 20,9 km/h (4 Bft) 97,62 %
12.12.2017 04:42 3,6 C 3,9 C 93 % 1000,2 hPa 0,2 l/m 14,0 km/h (3 Bft) SW 221 0 min 0,000 mm 0,0 UV-I 0 W/m 2,6 C -2,1 C 22,5 km/h (4 Bft) 94,23 %
12.12.2017 04:44 3,6 C 3,9 C 93 % 1000,3 hPa 0,0 l/m 15,6 km/h (3 Bft) W-SW 239 0 min 0,000 mm 0,0 UV-I 0 W/m 2,6 C -2,9 C 20,9 km/h (4 Bft) 97,62 %
12.12.2017 04:46 3,5 C 3,9 C 93 % 1000,3 hPa 0,0 l/m 13,2 km/h (3 Bft) SW 229 0 min 0,000 mm 0,0 UV-I 0 W/m 2,5 C -1,7 C 25,7 km/h (4 Bft) 98,21 %
12.12.2017 04:48 3,5 C 3,9 C 94 % 1000,4 hPa 0,0 l/m 15,8 km/h (3 Bft) W-SW 254 0 min 0,000 mm 0,0 UV-I 0 W/m 2,6 C -3,2 C 25,7 km/h (4 Bft) 97,62 %
12.12.2017 04:50 3,5 C 3,9 C 94 % 1000,5 hPa 0,0 l/m 13,5 km/h (3 Bft) W-SW 248 0 min 0,000 mm 0,0 UV-I 0 W/m 2,6 C -1,9 C 19,3 km/h (3 Bft) 98,00 %
12.12.2017 04:52 3,5 C 3,9 C 94 % 1000,5 hPa 0,0 l/m 13,7 km/h (3 Bft) SW 221 0 min 0,000 mm 0,0 UV-I 0 W/m 2,6 C -2,0 C 19,3 km/h (3 Bft) 94,74 %
12.12.2017 04:54 3,4 C 3,9 C 94 % 1000,5 hPa 0,2 l/m 15,2 km/h (3 Bft) SW 217 0 min 0,000 mm 0,0 UV-I 0 W/m 2,5 C -3,0 C 19,3 km/h (3 Bft) 97,73 %
12.12.2017 04:56 3,4 C 3,9 C 94 % 1000,6 hPa 0,0 l/m 16,1 km/h (3 Bft) SW 226 0 min 0,000 mm 0,0 UV-I 0 W/m 2,5 C -3,4 C 22,5 km/h (4 Bft) 97,78 %
12.12.2017 04:58 3,4 C 3,9 C 94 % 1000,7 hPa 0,0 l/m 16,8 km/h (3 Bft) W-SW 249 0 min 0,000 mm 0,0 UV-I 0 W/m 2,5 C -3,8 C 24,1 km/h (4 Bft) 96,77 %
12.12.2017 05:00 3,4 C 3,9 C 94 % 1000,7 hPa 0,0 l/m 15,0 km/h (3 Bft) W-SW 250 0 min 0,000 mm 0,0 UV-I 0 W/m 2,5 C -2,9 C 22,5 km/h (4 Bft) 97,37 %
12.12.2017 05:02 3,4 C 3,9 C 94 % 1000,8 hPa 0,0 l/m 16,0 km/h (3 Bft) W 261 0 min 0,000 mm 0,0 UV-I 0 W/m 2,5 C -3,4 C 20,9 km/h (4 Bft) 94,00 %
12.12.2017 05:04 3,4 C 3,9 C 94 % 1000,8 hPa 0,2 l/m 16,0 km/h (3 Bft) SW 217 0 min 0,000 mm 0,0 UV-I 0 W/m 2,5 C -3,4 C 20,9 km/h (4 Bft) 100,00 %
12.12.2017 05:06 3,4 C 3,9 C 94 % 1000,9 hPa 0,0 l/m 16,2 km/h (3 Bft) W-SW 248 0 min 0,000 mm 0,0 UV-I 0 W/m 2,5 C -3,5 C 20,9 km/h (4 Bft) 96,77 %
12.12.2017 05:08 3,4 C 3,9 C 94 % 1000,9 hPa 0,0 l/m 14,6 km/h (3 Bft) SW 236 0 min 0,000 mm 0,0 UV-I 0 W/m 2,5 C -2,6 C 22,5 km/h (4 Bft) 97,37 %
12.12.2017 05:10 3,4 C 3,9 C 94 % 1001,0 hPa 0,0 l/m 14,1 km/h (3 Bft) SW 234 0 min 0,000 mm 0,0 UV-I 0 W/m 2,5 C -2,4 C 20,9 km/h (4 Bft) 94,00 %
12.12.2017 05:12 3,3 C 3,9 C 94 % 1001,1 hPa 0,0 l/m 14,4 km/h (3 Bft) W-SW 256 0 min 0,000 mm 0,0 UV-I 0 W/m 2,4 C -2,7 C 19,3 km/h (3 Bft) 95,12 %
12.12.2017 05:14 3,3 C 3,9 C 94 % 1001,0 hPa 0,0 l/m 14,4 km/h (3 Bft) W-SW 251 0 min 0,000 mm 0,0 UV-I 0 W/m 2,4 C -2,7 C 22,5 km/h (4 Bft) 95,74 %
12.12.2017 05:16 3,4 C 3,9 C 94 % 1001,2 hPa 0,2 l/m 15,5 km/h (3 Bft) SW 227 0 min 0,000 mm 0,0 UV-I 0 W/m 2,5 C -3,1 C 20,9 km/h (4 Bft) 96,00 %
12.12.2017 05:18 3,4 C 3,9 C 94 % 1001,2 hPa 0,0 l/m 14,9 km/h (3 Bft) SW 234 0 min 0,000 mm 0,0 UV-I 0 W/m 2,5 C -2,8 C 22,5 km/h (4 Bft) 96,00 %
12.12.2017 05:20 3,4 C 3,9 C 94 % 1001,4 hPa 0,0 l/m 15,7 km/h (3 Bft) W-SW 243 0 min 0,000 mm 0,0 UV-I 0 W/m 2,5 C -3,2 C 24,1 km/h (4 Bft) 95,24 %
12.12.2017 05:22 3,4 C 3,9 C 94 % 1001,5 hPa 0,0 l/m 12,4 km/h (3 Bft) SW 225 0 min 0,000 mm 0,0 UV-I 0 W/m 2,5 C -1,3 C 17,7 km/h (3 Bft) 96,15 %
12.12.2017 05:24 3,3 C 3,9 C 94 % 1001,6 hPa 0,2 l/m 13,4 km/h (3 Bft) W-SW 243 0 min 0,000 mm 0,0 UV-I 0 W/m 2,4 C -2,1 C 19,3 km/h (3 Bft) 92,31 %
12.12.2017 05:26 3,3 C 3,9 C 94 % 1001,6 hPa 0,0 l/m 13,4 km/h (3 Bft) SW 236 0 min 0,000 mm 0,0 UV-I 0 W/m 2,4 C -2,1 C 17,7 km/h (3 Bft) 94,34 %
12.12.2017 05:28 3,3 C 3,9 C 94 % 1001,6 hPa 0,0 l/m 12,3 km/h (3 Bft) SW 221 0 min 0,000 mm 0,0 UV-I 0 W/m 2,4 C -1,4 C 16,1 km/h (3 Bft) 93,62 %
12.12.2017 05:30 3,3 C 3,9 C 94 % 1001,7 hPa 0,0 l/m 12,7 km/h (3 Bft) W-SW 245 0 min 0,000 mm 0,0 UV-I 0 W/m 2,4 C -1,6 C 16,1 km/h (3 Bft) 96,00 %
12.12.2017 05:32 3,2 C 3,9 C 94 % 1001,8 hPa 0,2 l/m 14,2 km/h (3 Bft) W-SW 238 0 min 0,000 mm 0,0 UV-I 0 W/m 2,3 C -2,7 C 17,7 km/h (3 Bft) 98,00 %
12.12.2017 05:34 3,2 C 3,9 C 95 % 1001,8 hPa 0,0 l/m 11,4 km/h (2 Bft) SW 221 0 min 0,000 mm 0,0 UV-I 0 W/m 2,5 C -0,9 C 17,7 km/h (3 Bft) 96,15 %
12.12.2017 05:36 3,2 C 3,9 C 95 % 1001,9 hPa 0,0 l/m 11,4 km/h (2 Bft) W-SW 244 0 min 0,000 mm 0,0 UV-I 0 W/m 2,5 C -0,9 C 16,1 km/h (3 Bft) 95,45 %
12.12.2017 05:38 3,1 C 3,9 C 95 % 1002,0 hPa 0,0 l/m 12,4 km/h (3 Bft) SW 223 0 min 0,000 mm 0,0 UV-I 0 W/m 2,4 C -1,7 C 17,7 km/h (3 Bft) 100,00 %
12.12.2017 05:40 3,1 C 3,9 C 95 % 1001,9 hPa 0,2 l/m 10,5 km/h (2 Bft) SW 234 0 min 0,000 mm 0,0 UV-I 0 W/m 2,4 C -0,4 C 16,1 km/h (3 Bft) 97,56 %
12.12.2017 05:42 3,1 C 3,9 C 95 % 1002,1 hPa 0,0 l/m 10,9 km/h (2 Bft) SW 215 0 min 0,000 mm 0,0 UV-I 0 W/m 2,4 C -0,7 C 19,3 km/h (3 Bft) 96,00 %
12.12.2017 05:44 3,1 C 3,9 C 95 % 1002,0 hPa 0,0 l/m 11,6 km/h (2 Bft) SW 220 0 min 0,000 mm 0,0 UV-I 0 W/m 2,4 C -1,2 C 19,3 km/h (3 Bft) 92,00 %
12.12.2017 05:46 3,1 C 3,9 C 95 % 1002,0 hPa 0,2 l/m 11,9 km/h (2 Bft) SW 234 0 min 0,000 mm 0,0 UV-I 0 W/m 2,4 C -1,4 C 17,7 km/h (3 Bft) 100,00 %
12.12.2017 05:48 3,1 C 3,9 C 95 % 1002,1 hPa 0,0 l/m 10,3 km/h (2 Bft) SW 223 0 min 0,000 mm 0,0 UV-I 0 W/m 2,4 C -0,2 C 16,1 km/h (3 Bft) 98,21 %
12.12.2017 05:50 3,2 C 3,9 C 95 % 1002,1 hPa 0,2 l/m 12,4 km/h (3 Bft) SW 215 0 min 0,000 mm 0,0 UV-I 0 W/m 2,5 C -1,6 C 19,3 km/h (3 Bft) 100,00 %
12.12.2017 05:52 3,2 C 3,9 C 95 % 1002,1 hPa 0,0 l/m 13,3 km/h (3 Bft) SW 231 0 min 0,000 mm 0,0 UV-I 0 W/m 2,5 C -2,1 C 17,7 km/h (3 Bft) 100,00 %
12.12.2017 05:54 3,2 C 3,9 C 95 % 1002,1 hPa 0,0 l/m 14,2 km/h (3 Bft) SW 220 0 min 0,000 mm 0,0 UV-I 0 W/m 2,5 C -2,7 C 19,3 km/h (3 Bft) 100,00 %
12.12.2017 05:56 3,2 C 3,9 C 95 % 1002,3 hPa 0,2 l/m 16,0 km/h (3 Bft) W-SW 248 0 min 0,000 mm 0,0 UV-I 0 W/m 2,5 C -3,6 C 24,1 km/h (4 Bft) 97,87 %
12.12.2017 05:58 3,2 C 3,9 C 95 % 1002,3 hPa 0,2 l/m 16,3 km/h (3 Bft) W-SW 240 0 min 0,000 mm 0,0 UV-I 0 W/m 2,5 C -3,8 C 20,9 km/h (4 Bft) 98,00 %
12.12.2017 06:00 3,2 C 3,9 C 95 % 1002,4 hPa 0,0 l/m 16,2 km/h (3 Bft) S-SW 204 0 min 0,000 mm 0,0 UV-I 0 W/m 2,5 C -3,7 C 20,9 km/h (4 Bft) 100,00 %
12.12.2017 06:02 3,2 C 3,9 C 95 % 1002,5 hPa 0,0 l/m 14,6 km/h (3 Bft) W-SW 248 0 min 0,000 mm 0,0 UV-I 0 W/m 2,5 C -2,9 C 20,9 km/h (4 Bft) 100,00 %
12.12.2017 06:04 3,3 C 3,9 C 95 % 1002,5 hPa 0,2 l/m 11,8 km/h (2 Bft) W-SW 248 0 min 0,000 mm 0,0 UV-I 0 W/m 2,6 C -1,1 C 17,7 km/h (3 Bft) 100,00 %
12.12.2017 06:06 3,3 C 3,9 C 95 % 1002,5 hPa 0,0 l/m 12,3 km/h (3 Bft) S-SW 201 0 min 0,000 mm 0,0 UV-I 0 W/m 2,6 C -1,4 C 17,7 km/h (3 Bft) 100,00 %
12.12.2017 06:08 3,3 C 3,9 C 95 % 1002,5 hPa 0,2 l/m 11,7 km/h (2 Bft) SW 226 0 min 0,000 mm 0,0 UV-I 0 W/m 2,6 C -1,0 C 17,7 km/h (3 Bft) 100,00 %
12.12.2017 06:10 3,3 C 3,9 C 95 % 1002,5 hPa 0,0 l/m 14,0 km/h (3 Bft) S-SW 204 0 min 0,000 mm 0,0 UV-I 0 W/m 2,6 C -2,4 C 24,1 km/h (4 Bft) 100,00 %
12.12.2017 06:12 3,4 C 3,9 C 95 % 1002,5 hPa 0,0 l/m 15,4 km/h (3 Bft) S 186 0 min 0,000 mm 0,0 UV-I 0 W/m 2,7 C -3,1 C 25,7 km/h (4 Bft) 98,00 %
12.12.2017 06:14 3,4 C 3,9 C 95 % 1002,6 hPa 0,0 l/m 15,6 km/h (3 Bft) S-SW 212 0 min 0,000 mm 0,0 UV-I 0 W/m 2,7 C -3,2 C 24,1 km/h (4 Bft) 100,00 %
12.12.2017 06:16 3,5 C 3,9 C 95 % 1002,9 hPa 0,2 l/m 15,5 km/h (3 Bft) SW 216 0 min 0,000 mm 0,0 UV-I 0 W/m 2,8 C -3,0 C 24,1 km/h (4 Bft) 97,56 %
12.12.2017 06:18 3,6 C 3,9 C 95 % 1002,8 hPa 0,0 l/m 14,3 km/h (3 Bft) S-SW 202 0 min 0,000 mm 0,0 UV-I 0 W/m 2,9 C -2,2 C 19,3 km/h (3 Bft) 98,21 %
12.12.2017 06:20 3,6 C 3,9 C 95 % 1002,8 hPa 0,0 l/m 14,6 km/h (3 Bft) SW 220 0 min 0,000 mm 0,0 UV-I 0 W/m 2,9 C -2,4 C 22,5 km/h (4 Bft) 100,00 %
12.12.2017 06:22 3,6 C 3,9 C 94 % 1002,8 hPa 0,0 l/m 13,3 km/h (3 Bft) SW 230 0 min 0,000 mm 0,0 UV-I 0 W/m 2,7 C -1,7 C 19,3 km/h (3 Bft) 100,00 %
12.12.2017 06:24 3,6 C 3,9 C 94 % 1002,9 hPa 0,2 l/m 14,4 km/h (3 Bft) SW 236 0 min 0,000 mm 0,0 UV-I 0 W/m 2,7 C -2,3 C 24,1 km/h (4 Bft) 100,00 %
12.12.2017 06:26 3,7 C 3,9 C 94 % 1002,9 hPa 0,0 l/m 13,1 km/h (3 Bft) S-SW 211 0 min 0,000 mm 0,0 UV-I 0 W/m 2,8 C -1,4 C 19,3 km/h (3 Bft) 100,00 %
12.12.2017 06:28 3,7 C 3,9 C 94 % 1002,9 hPa 0,0 l/m 13,3 km/h (3 Bft) S-SW 203 0 min 0,000 mm 0,0 UV-I 0 W/m 2,8 C -1,5 C 19,3 km/h (3 Bft) 97,37 %
12.12.2017 06:30 3,7 C 3,9 C 94 % 1002,8 hPa 0,0 l/m 12,7 km/h (3 Bft) S-SW 200 0 min 0,000 mm 0,0 UV-I 0 W/m 2,8 C -1,2 C 22,5 km/h (4 Bft) 96,23 %
12.12.2017 06:32 3,7 C 3,9 C 94 % 1003,0 hPa 0,0 l/m 12,9 km/h (3 Bft) S-SW 207 0 min 0,000 mm 0,0 UV-I 0 W/m 2,8 C -1,3 C 17,7 km/h (3 Bft) 100,00 %
12.12.2017 06:34 3,7 C 3,9 C 94 % 1003,0 hPa 0,0 l/m 14,1 km/h (3 Bft) S-SW 209 0 min 0,000 mm 0,0 UV-I 0 W/m 2,8 C -2,0 C 20,9 km/h (4 Bft) 100,00 %
12.12.2017 06:36 3,7 C 3,9 C 94 % 1003,1 hPa 0,0 l/m 14,6 km/h (3 Bft) S-SW 198 0 min 0,000 mm 0,0 UV-I 0 W/m 2,8 C -2,3 C 20,9 km/h (4 Bft) 100,00 %
12.12.2017 06:38 3,7 C 3,9 C 94 % 1003,0 hPa 0,0 l/m 12,8 km/h (3 Bft) SW 215 0 min 0,000 mm 0,0 UV-I 0 W/m 2,8 C -1,2 C 19,3 km/h (3 Bft) 100,00 %
12.12.2017 06:40 3,7 C 3,9 C 94 % 1003,0 hPa 0,0 l/m 14,1 km/h (3 Bft) SW 231 0 min 0,000 mm 0,0 UV-I 0 W/m 2,8 C -2,0 C 22,5 km/h (4 Bft) 100,00 %
12.12.2017 06:42 3,7 C 3,9 C 94 % 1003,1 hPa 0,0 l/m 11,4 km/h (2 Bft) S-SW 207 0 min 0,000 mm 0,0 UV-I 0 W/m 2,8 C -0,3 C 19,3 km/h (3 Bft) 100,00 %
12.12.2017 06:44 3,7 C 3,9 C 94 % 1003,2 hPa 0,0 l/m 12,4 km/h (3 Bft) S 174 0 min 0,000 mm 0,0 UV-I 0 W/m 2,8 C -1,0 C 17,7 km/h (3 Bft) 100,00 %
12.12.2017 06:46 3,7 C 3,9 C 94 % 1003,2 hPa 0,0 l/m 12,6 km/h (3 Bft) S-SW 205 0 min 0,000 mm 0,0 UV-I 0 W/m 2,8 C -1,1 C 24,1 km/h (4 Bft) 100,00 %
12.12.2017 06:48 3,7 C 3,9 C 94 % 1003,3 hPa 0,0 l/m 10,1 km/h (2 Bft) S-SW 198 0 min 0,000 mm 0,0 UV-I 0 W/m 2,8 C 0,6 C 14,5 km/h (3 Bft) 100,00 %
12.12.2017 06:50 3,7 C 3,9 C 94 % 1003,3 hPa 0,2 l/m 11,7 km/h (2 Bft) S 180 0 min 0,000 mm 0,0 UV-I 0 W/m 2,8 C -0,5 C 19,3 km/h (3 Bft) 98,00 %
12.12.2017 06:52 3,8 C 3,9 C 94 % 1003,4 hPa 0,0 l/m 9,4 km/h (2 Bft) S-SW 193 0 min 0,000 mm 0,0 UV-I 0 W/m 2,9 C 1,2 C 20,9 km/h (4 Bft) 100,00 %
12.12.2017 06:54 3,7 C 3,9 C 94 % 1003,4 hPa 0,0 l/m 9,4 km/h (2 Bft) S-SO 165 0 min 0,000 mm 0,0 UV-I 0 W/m 2,8 C 1,1 C 14,5 km/h (3 Bft) 100,00 %
12.12.2017 06:56 3,8 C 3,9 C 94 % 1003,3 hPa 0,0 l/m 10,2 km/h (2 Bft) S 189 0 min 0,000 mm 0,0 UV-I 0 W/m 2,9 C 0,6 C 17,7 km/h (3 Bft) 98,11 %
12.12.2017 06:58 3,8 C 3,9 C 94 % 1003,2 hPa 0,0 l/m 9,2 km/h (2 Bft) S-SW 202 0 min 0,000 mm 0,0 UV-I 0 W/m 2,9 C 1,4 C 16,1 km/h (3 Bft) 100,00 %
12.12.2017 07:00 3,8 C 3,9 C 94 % 1003,3 hPa 0,0 l/m 11,4 km/h (2 Bft) S-SO 159 0 min 0,000 mm 0,0 UV-I 0 W/m 2,9 C -0,2 C 17,7 km/h (3 Bft) 100,00 %
12.12.2017 07:02 4,0 C 3,9 C 94 % 1003,2 hPa 0,0 l/m 11,6 km/h (2 Bft) S 182 0 min 0,000 mm 0,0 UV-I 0 W/m 3,1 C -0,1 C 22,5 km/h (4 Bft) 98,00 %
12.12.2017 07:04 4,1 C 3,9 C 94 % 1003,2 hPa 0,0 l/m 11,9 km/h (2 Bft) S-SO 165 0 min 0,000 mm 0,0 UV-I 0 W/m 3,2 C -0,2 C 17,7 km/h (3 Bft) 100,00 %
12.12.2017 07:06 4,2 C 3,9 C 93 % 1003,2 hPa 0,2 l/m 12,9 km/h (3 Bft) S-SO 157 0 min 0,000 mm 0,0 UV-I 0 W/m 3,2 C -0,7 C 24,1 km/h (4 Bft) 100,00 %
12.12.2017 07:08 4,2 C 3,9 C 93 % 1003,2 hPa 0,0 l/m 12,1 km/h (2 Bft) S 174 0 min 0,000 mm 0,0 UV-I 0 W/m 3,2 C -0,2 C 25,7 km/h (4 Bft) 100,00 %
12.12.2017 07:10 4,2 C 3,9 C 93 % 1003,1 hPa 0,0 l/m 10,0 km/h (2 Bft) S 180 0 min 0,000 mm 0,0 UV-I 0 W/m 3,2 C 1,2 C 22,5 km/h (4 Bft) 97,87 %
12.12.2017 07:12 4,2 C 3,9 C 93 % 1003,0 hPa 0,0 l/m 9,1 km/h (2 Bft) S-SW 194 0 min 0,000 mm 0,0 UV-I 0 W/m 3,2 C 1,9 C 16,1 km/h (3 Bft) 96,43 %
12.12.2017 07:14 4,2 C 3,9 C 93 % 1002,9 hPa 0,0 l/m 9,4 km/h (2 Bft) SO 136 0 min 0,000 mm 0,0 UV-I 0 W/m 3,2 C 1,6 C 17,7 km/h (3 Bft) 97,87 %
12.12.2017 07:16 4,2 C 3,9 C 93 % 1002,9 hPa 0,0 l/m 8,7 km/h (2 Bft) S 185 0 min 0,000 mm 0,0 UV-I 0 W/m 3,2 C 2,2 C 17,7 km/h (3 Bft) 100,00 %
12.12.2017 07:18 4,2 C 3,9 C 94 % 1002,9 hPa 0,0 l/m 7,8 km/h (2 Bft) S 171 0 min 0,000 mm 0,0 UV-I 0 W/m 3,3 C 2,9 C 16,1 km/h (3 Bft) 97,56 %
12.12.2017 07:20 4,3 C 3,9 C 94 % 1002,9 hPa 0,0 l/m 5,9 km/h (2 Bft) S-SO 165 0 min 0,000 mm 0,0 UV-I 0 W/m 3,4 C 4,3 C 17,7 km/h (3 Bft) 96,23 %
12.12.2017 07:22 4,3 C 3,9 C 93 % 1002,9 hPa 0,0 l/m 7,4 km/h (2 Bft) S-SO 153 0 min 0,000 mm 0,0 UV-I 0 W/m 3,3 C 3,4 C 11,3 km/h (2 Bft) 97,44 %
12.12.2017 07:24 4,4 C 3,9 C 93 % 1002,9 hPa 0,0 l/m 8,9 km/h (2 Bft) S-SO 156 0 min 0,000 mm 0,0 UV-I 0 W/m 3,4 C 2,2 C 14,5 km/h (3 Bft) 96,00 %
12.12.2017 07:26 4,4 C 3,9 C 93 % 1003,0 hPa 0,0 l/m 7,3 km/h (2 Bft) SO 142 0 min 0,000 mm 0,0 UV-I 0 W/m 3,4 C 3,6 C 11,3 km/h (2 Bft) 97,56 %
12.12.2017 07:28 4,4 C 3,9 C 93 % 1003,1 hPa 0,0 l/m 9,9 km/h (2 Bft) S-SW 198 0 min 0,000 mm 0,0 UV-I 0 W/m 3,4 C 1,5 C 19,3 km/h (3 Bft) 97,87 %
12.12.2017 07:30 4,4 C 3,9 C 93 % 1003,1 hPa 0,0 l/m 9,4 km/h (2 Bft) S-SO 160 0 min 0,000 mm 0,0 UV-I 0 W/m 3,4 C 1,9 C 17,7 km/h (3 Bft) 96,23 %
12.12.2017 07:32 4,4 C 3,9 C 93 % 1003,1 hPa 0,0 l/m 8,6 km/h (2 Bft) S-SW 195 0 min 0,000 mm 0,0 UV-I 0 W/m 3,4 C 2,5 C 16,1 km/h (3 Bft) 97,56 %
12.12.2017 07:34 4,4 C 3,9 C 93 % 1003,3 hPa 0,0 l/m 9,3 km/h (2 Bft) S-SO 167 0 min 0,000 mm 0,0 UV-I 0 W/m 3,4 C 1,9 C 14,5 km/h (3 Bft) 96,43 %
12.12.2017 07:36 4,5 C 3,9 C 93 % 1003,4 hPa 0,0 l/m 8,2 km/h (2 Bft) SW 233 0 min 0,000 mm 0,0 UV-I 0 W/m 3,5 C 2,9 C 14,5 km/h (3 Bft) 97,37 %
12.12.2017 07:38 4,5 C 3,9 C 93 % 1003,4 hPa 0,0 l/m 8,5 km/h (2 Bft) S-SO 163 0 min 0,000 mm 0,0 UV-I 0 W/m 3,5 C 2,7 C 16,1 km/h (3 Bft) 98,21 %
12.12.2017 07:40 4,6 C 3,9 C 93 % 1003,3 hPa 0,0 l/m 8,9 km/h (2 Bft) S-SW 204 0 min 0,000 mm 0,0 UV-I 0 W/m 3,6 C 2,5 C 16,1 km/h (3 Bft) 97,87 %
12.12.2017 07:42 4,6 C 3,9 C 92 % 1003,3 hPa 0,0 l/m 6,0 km/h (2 Bft) SO 146 0 min 0,000 mm 0,0 UV-I 0 W/m 3,4 C 4,6 C 12,9 km/h (3 Bft) 95,74 %
12.12.2017 07:44 4,6 C 3,9 C 92 % 1003,3 hPa 0,0 l/m 6,1 km/h (2 Bft) S-SW 196 0 min 0,000 mm 0,0 UV-I 0 W/m 3,4 C 4,6 C 11,3 km/h (2 Bft) 97,37 %
12.12.2017 07:46 4,7 C 3,9 C 92 % 1003,3 hPa 0,0 l/m 6,7 km/h (2 Bft) S-SO 149 0 min 0,000 mm 0,0 UV-I 0 W/m 3,5 C 4,4 C 12,9 km/h (3 Bft) 96,43 %
12.12.2017 07:48 4,7 C 3,9 C 92 % 1003,4 hPa 0,0 l/m 8,6 km/h (2 Bft) S-SO 166 0 min 0,000 mm 0,0 UV-I 0 W/m 3,5 C 2,8 C 17,7 km/h (3 Bft) 92,68 %
12.12.2017 07:50 4,8 C 3,9 C 92 % 1003,4 hPa 0,0 l/m 7,3 km/h (2 Bft) S 184 0 min 0,000 mm 0,0 UV-I 0 W/m 3,6 C 4,0 C 11,3 km/h (2 Bft) 98,11 %
12.12.2017 07:52 4,8 C 3,9 C 92 % 1003,5 hPa 0,0 l/m 5,1 km/h (1 Bft) S 184 0 min 0,000 mm 0,0 UV-I 0 W/m 3,6 C 4,8 C 11,3 km/h (2 Bft) 97,56 %
12.12.2017 07:54 4,8 C 3,9 C 92 % 1003,5 hPa 0,0 l/m 7,8 km/h (2 Bft) S-SO 161 0 min 0,000 mm 0,0 UV-I 0 W/m 3,6 C 3,6 C 14,5 km/h (3 Bft) 97,87 %
12.12.2017 07:56 4,8 C 3,9 C 92 % 1003,5 hPa 0,2 l/m 7,6 km/h (2 Bft) S 171 0 min 0,000 mm 0,0 UV-I 0 W/m 3,6 C 3,7 C 16,1 km/h (3 Bft) 100,00 %
12.12.2017 07:58 4,8 C 3,9 C 91 % 1003,6 hPa 0,0 l/m 7,5 km/h (2 Bft) S 179 0 min 0,000 mm 0,0 UV-I 0 W/m 3,5 C 3,8 C 11,3 km/h (2 Bft) 100,00 %
12.12.2017 08:00 4,8 C 3,9 C 91 % 1003,6 hPa 0,0 l/m 6,8 km/h (2 Bft) S-SO 166 0 min 0,000 mm 0,0 UV-I 5 W/m 3,5 C 4,5 C 11,3 km/h (2 Bft) 100,00 %
12.12.2017 08:02 4,9 C 3,9 C 91 % 1003,7 hPa 0,0 l/m 8,0 km/h (2 Bft) SO 142 0 min 0,000 mm 0,0 UV-I 3 W/m 3,6 C 3,5 C 19,3 km/h (3 Bft) 100,00 %
12.12.2017 08:04 4,9 C 3,9 C 91 % 1003,7 hPa 0,0 l/m 6,9 km/h (2 Bft) S-SO 159 0 min 0,000 mm 0,0 UV-I 5 W/m 3,6 C 4,5 C 11,3 km/h (2 Bft) 97,37 %
12.12.2017 08:06 4,9 C 3,9 C 91 % 1003,7 hPa 0,0 l/m 4,7 km/h (1 Bft) S 188 0 min 0,000 mm 0,0 UV-I 5 W/m 3,6 C 4,9 C 9,7 km/h (2 Bft) 100,00 %
12.12.2017 08:08 5,0 C 3,9 C 90 % 1003,7 hPa 0,0 l/m 6,1 km/h (2 Bft) S-SO 163 0 min 0,000 mm 0,0 UV-I 5 W/m 3,5 C 5,0 C 9,7 km/h (2 Bft) 100,00 %
12.12.2017 08:10 5,1 C 3,9 C 90 % 1003,8 hPa 0,0 l/m 5,9 km/h (2 Bft) S 190 0 min 0,000 mm 0,0 UV-I 6 W/m 3,6 C 5,1 C 9,7 km/h (2 Bft) 100,00 %
12.12.2017 08:12 5,0 C 3,9 C 90 % 1003,9 hPa 0,0 l/m 5,6 km/h (1 Bft) S 178 0 min 0,000 mm 0,0 UV-I 7 W/m 3,5 C 5,0 C 9,7 km/h (2 Bft) 97,37 %
12.12.2017 08:14 4,9 C 3,9 C 91 % 1004,1 hPa 0,0 l/m 8,0 km/h (2 Bft) SW 232 0 min 0,000 mm 0,0 UV-I 7 W/m 3,6 C 3,5 C 11,3 km/h (2 Bft) 100,00 %
12.12.2017 08:16 4,8 C 3,9 C 91 % 1004,0 hPa 0,0 l/m 5,7 km/h (1 Bft) S 172 0 min 0,000 mm 0,0 UV-I 7 W/m 3,5 C 4,8 C 11,3 km/h (2 Bft) 97,87 %
12.12.2017 08:18 4,7 C 3,9 C 91 % 1004,1 hPa 0,0 l/m 6,9 km/h (2 Bft) S-SW 193 0 min 0,000 mm 0,0 UV-I 7 W/m 3,4 C 4,3 C 12,9 km/h (3 Bft) 100,00 %
12.12.2017 08:20 4,7 C 3,9 C 91 % 1004,2 hPa 0,0 l/m 8,0 km/h (2 Bft) S-SO 150 0 min 0,000 mm 0,0 UV-I 7 W/m 3,4 C 3,3 C 12,9 km/h (3 Bft) 98,11 %
12.12.2017 08:22 4,8 C 3,9 C 92 % 1004,3 hPa 0,0 l/m 8,2 km/h (2 Bft) SW 227 0 min 0,000 mm 0,0 UV-I 7 W/m 3,6 C 3,2 C 14,5 km/h (3 Bft) 97,56 %
12.12.2017 08:24 4,8 C 3,9 C 92 % 1004,3 hPa 0,0 l/m 7,7 km/h (2 Bft) S-SW 194 0 min 0,000 mm 0,0 UV-I 7 W/m 3,6 C 3,6 C 12,9 km/h (3 Bft) 100,00 %
12.12.2017 08:26 4,8 C 3,9 C 91 % 1004,3 hPa 0,0 l/m 5,6 km/h (1 Bft) S 185 0 min 0,000 mm 0,0 UV-I 8 W/m 3,5 C 4,8 C 9,7 km/h (2 Bft) 100,00 %
12.12.2017 08:28 4,8 C 3,9 C 91 % 1004,3 hPa 0,0 l/m 6,5 km/h (2 Bft) S-SW 192 0 min 0,000 mm 0,0 UV-I 9 W/m 3,5 C 4,7 C 9,7 km/h (2 Bft) 100,00 %
12.12.2017 08:30 4,8 C 3,9 C 91 % 1004,4 hPa 0,0 l/m 7,2 km/h (2 Bft) S 191 0 min 0,000 mm 0,0 UV-I 9 W/m 3,5 C 4,1 C 9,7 km/h (2 Bft) 100,00 %
12.12.2017 08:32 4,8 C 3,9 C 91 % 1004,4 hPa 0,0 l/m 5,6 km/h (1 Bft) S 173 0 min 0,000 mm 0,0 UV-I 9 W/m 3,5 C 4,8 C 9,7 km/h (2 Bft) 100,00 %
12.12.2017 08:34 4,8 C 3,9 C 91 % 1004,4 hPa 0,0 l/m 6,3 km/h (2 Bft) S 178 0 min 0,000 mm 0,0 UV-I 9 W/m 3,5 C 4,8 C 11,3 km/h (2 Bft) 100,00 %
12.12.2017 08:36 4,8 C 3,9 C 92 % 1004,4 hPa 0,0 l/m 6,6 km/h (2 Bft) S-SO 157 0 min 0,000 mm 0,0 UV-I 9 W/m 3,6 C 4,6 C 11,3 km/h (2 Bft) 100,00 %
12.12.2017 08:38 4,8 C 3,9 C 92 % 1004,5 hPa 0,0 l/m 7,5 km/h (2 Bft) SW 223 0 min 0,000 mm 0,0 UV-I 9 W/m 3,6 C 3,8 C 11,3 km/h (2 Bft) 100,00 %
12.12.2017 08:40 4,8 C 3,9 C 91 % 1004,6 hPa 0,0 l/m 7,2 km/h (2 Bft) S-SW 203 0 min 0,000 mm 0,0 UV-I 9 W/m 3,5 C 4,1 C 11,3 km/h (2 Bft) 100,00 %
12.12.2017 08:42 4,8 C 3,9 C 91 % 1004,6 hPa 0,0 l/m 7,6 km/h (2 Bft) S-SW 192 0 min 0,000 mm 0,0 UV-I 11 W/m 3,5 C 3,7 C 11,3 km/h (2 Bft) 100,00 %
12.12.2017 08:44 4,7 C 3,9 C 91 % 1004,6 hPa 0,0 l/m 5,7 km/h (1 Bft) S-SW 202 0 min 0,000 mm 0,0 UV-I 9 W/m 3,4 C 4,7 C 11,3 km/h (2 Bft) 100,00 %
12.12.2017 08:46 4,7 C 3,9 C 92 % 1004,8 hPa 0,0 l/m 7,3 km/h (2 Bft) S-SW 204 0 min 0,000 mm 0,0 UV-I 9 W/m 3,5 C 3,9 C 20,9 km/h (4 Bft) 100,00 %
12.12.2017 08:48 5,0 C 3,9 C 91 % 1004,9 hPa 0,0 l/m 14,8 km/h (3 Bft) W-SW 249 0 min 0,000 mm 0,0 UV-I 9 W/m 3,7 C -0,8 C 22,5 km/h (4 Bft) 97,56 %
12.12.2017 08:50 5,2 C 3,9 C 90 % 1005,1 hPa 0,0 l/m 14,1 km/h (3 Bft) SW 229 0 min 0,000 mm 0,0 UV-I 9 W/m 3,7 C -0,2 C 20,9 km/h (4 Bft) 100,00 %
12.12.2017 08:52 5,2 C 3,9 C 89 % 1005,1 hPa 0,0 l/m 9,9 km/h (2 Bft) SW 217 0 min 0,000 mm 0,0 UV-I 9 W/m 3,5 C 2,4 C 14,5 km/h (3 Bft) 100,00 %
12.12.2017 08:54 5,2 C 3,9 C 89 % 1005,1 hPa 0,0 l/m 10,8 km/h (2 Bft) W-SW 254 0 min 0,000 mm 0,0 UV-I 10 W/m 3,5 C 1,7 C 19,3 km/h (3 Bft) 100,00 %
12.12.2017 08:56 5,3 C 3,9 C 89 % 1005,1 hPa 0,0 l/m 7,4 km/h (2 Bft) W 277 0 min 0,000 mm 0,0 UV-I 11 W/m 3,6 C 4,4 C 12,9 km/h (3 Bft) 97,73 %
12.12.2017 08:58 5,1 C 3,9 C 89 % 1005,2 hPa 0,0 l/m 6,3 km/h (2 Bft) W-SW 243 0 min 0,000 mm 0,0 UV-I 11 W/m 3,4 C 5,1 C 12,9 km/h (3 Bft) 100,00 %
12.12.2017 09:00 4,9 C 3,9 C 91 % 1005,2 hPa 0,0 l/m 9,2 km/h (2 Bft) SW 232 0 min 0,000 mm 0,0 UV-I 13 W/m 3,6 C 2,5 C 12,9 km/h (3 Bft) 100,00 %
12.12.2017 09:02 4,9 C 3,9 C 91 % 1005,3 hPa 0,0 l/m 6,9 km/h (2 Bft) S-SW 211 0 min 0,000 mm 0,0 UV-I 14 W/m 3,6 C 4,5 C 14,5 km/h (3 Bft) 100,00 %
12.12.2017 09:04 4,8 C 3,9 C 91 % 1005,4 hPa 0,0 l/m 7,4 km/h (2 Bft) SW 235 0 min 0,000 mm 0,0 UV-I 14 W/m 3,5 C 3,9 C 11,3 km/h (2 Bft) 97,37 %
12.12.2017 09:06 4,8 C 3,9 C 91 % 1005,5 hPa 0,0 l/m 6,9 km/h (2 Bft) W 259 0 min 0,000 mm 0,0 UV-I 16 W/m 3,5 C 4,4 C 12,9 km/h (3 Bft) 98,11 %
12.12.2017 09:08 4,8 C 3,9 C 91 % 1005,6 hPa 0,0 l/m 6,8 km/h (2 Bft) SW 219 0 min 0,000 mm 0,0 UV-I 18 W/m 3,5 C 4,5 C 9,7 km/h (2 Bft) 93,62 %
12.12.2017 09:10 4,7 C 3,9 C 91 % 1005,7 hPa 0,0 l/m 7,0 km/h (2 Bft) SW 215 0 min 0,000 mm 0,0 UV-I 16 W/m 3,4 C 4,2 C 9,7 km/h (2 Bft) 97,73 %
12.12.2017 09:12 4,6 C 3,9 C 92 % 1005,8 hPa 0,0 l/m 7,8 km/h (2 Bft) SW 216 0 min 0,000 mm 0,0 UV-I 16 W/m 3,4 C 3,4 C 11,3 km/h (2 Bft) 98,21 %
12.12.2017 09:14 4,6 C 3,9 C 92 % 1005,8 hPa 0,0 l/m 9,8 km/h (2 Bft) SW 221 0 min 0,000 mm 0,0 UV-I 17 W/m 3,4 C 1,8 C 16,1 km/h (3 Bft) 97,56 %
12.12.2017 09:16 4,6 C 3,9 C 92 % 1005,9 hPa 0,0 l/m 7,9 km/h (2 Bft) S-SW 209 0 min 0,000 mm 0,0 UV-I 17 W/m 3,4 C 3,3 C 11,3 km/h (2 Bft) 96,23 %
12.12.2017 09:18 4,6 C 3,9 C 92 % 1005,9 hPa 0,0 l/m 6,8 km/h (2 Bft) S-SW 206 0 min 0,000 mm 0,0 UV-I 16 W/m 3,4 C 4,3 C 12,9 km/h (3 Bft) 95,12 %
12.12.2017 09:20 4,6 C 3,9 C 92 % 1006,0 hPa 0,0 l/m 5,4 km/h (1 Bft) SW 225 0 min 0,000 mm 0,0 UV-I 16 W/m 3,4 C 4,6 C 8,0 km/h (2 Bft) 100,00 %
12.12.2017 09:22 4,6 C 3,9 C 92 % 1005,9 hPa 0,0 l/m 3,9 km/h (1 Bft) S-SW 194 0 min 0,000 mm 0,0 UV-I 17 W/m 3,4 C 4,6 C 9,7 km/h (2 Bft) 96,23 %
12.12.2017 09:24 4,5 C 3,9 C 92 % 1006,0 hPa 0,0 l/m 6,7 km/h (2 Bft) S-SW 208 0 min 0,000 mm 0,0 UV-I 18 W/m 3,3 C 4,2 C 9,7 km/h (2 Bft) 98,00 %
12.12.2017 09:26 4,4 C 3,9 C 93 % 1006,1 hPa 0,0 l/m 7,0 km/h (2 Bft) S-SW 192 0 min 0,000 mm 0,0 UV-I 19 W/m 3,4 C 3,9 C 12,9 km/h (3 Bft) 95,12 %
12.12.2017 09:28 4,4 C 3,9 C 93 % 1006,2 hPa 0,0 l/m 7,1 km/h (2 Bft) SW 224 0 min 0,000 mm 0,0 UV-I 21 W/m 3,4 C 3,8 C 9,7 km/h (2 Bft) 95,74 %
12.12.2017 09:30 4,4 C 3,9 C 93 % 1006,2 hPa 0,0 l/m 10,7 km/h (2 Bft) S-SW 202 0 min 0,000 mm 0,0 UV-I 24 W/m 3,4 C 0,9 C 14,5 km/h (3 Bft) 92,68 %
12.12.2017 09:32 4,4 C 3,9 C 93 % 1006,2 hPa 0,0 l/m 9,7 km/h (2 Bft) S-SW 197 0 min 0,000 mm 0,0 UV-I 24 W/m 3,4 C 1,6 C 16,1 km/h (3 Bft) 94,55 %
12.12.2017 09:34 4,4 C 3,9 C 93 % 1006,2 hPa 0,0 l/m 8,2 km/h (2 Bft) S-SW 196 0 min 0,000 mm 0,0 UV-I 25 W/m 3,4 C 2,8 C 16,1 km/h (3 Bft) 96,00 %
12.12.2017 09:36 4,4 C 3,9 C 93 % 1006,2 hPa 0,0 l/m 10,8 km/h (2 Bft) S-SW 196 0 min 0,000 mm 0,0 UV-I 26 W/m 3,4 C 0,8 C 17,7 km/h (3 Bft) 96,00 %
12.12.2017 09:38 4,4 C 3,9 C 93 % 1006,3 hPa 0,0 l/m 5,5 km/h (1 Bft) S 182 0 min 0,000 mm 0,0 UV-I 25 W/m 3,4 C 4,4 C 9,7 km/h (2 Bft) 95,74 %
12.12.2017 09:40 4,3 C 3,9 C 93 % 1006,4 hPa 0,0 l/m 6,5 km/h (2 Bft) S 173 0 min 0,000 mm 0,0 UV-I 26 W/m 3,3 C 4,2 C 11,3 km/h (2 Bft) 94,74 %
12.12.2017 09:42 4,4 C 3,9 C 94 % 1006,5 hPa 0,0 l/m 9,0 km/h (2 Bft) W-SW 240 0 min 0,000 mm 0,0 UV-I 28 W/m 3,5 C 2,2 C 17,7 km/h (3 Bft) 94,34 %
12.12.2017 09:44 4,5 C 3,9 C 93 % 1006,6 hPa 0,0 l/m 7,5 km/h (2 Bft) S-SW 212 0 min 0,000 mm 0,0 UV-I 28 W/m 3,5 C 3,5 C 11,3 km/h (2 Bft) 95,45 %
12.12.2017 09:46 4,5 C 3,9 C 93 % 1006,7 hPa 0,0 l/m 6,7 km/h (2 Bft) SW 219 0 min 0,000 mm 0,0 UV-I 28 W/m 3,5 C 4,2 C 11,3 km/h (2 Bft) 94,00 %
12.12.2017 09:48 4,6 C 3,9 C 93 % 1006,7 hPa 0,0 l/m 7,7 km/h (2 Bft) S-SW 206 0 min 0,000 mm 0,0 UV-I 30 W/m 3,6 C 3,4 C 12,9 km/h (3 Bft) 95,45 %
12.12.2017 09:50 4,6 C 3,9 C 93 % 1006,8 hPa 0,0 l/m 10,5 km/h (2 Bft) SW 234 0 min 0,000 mm 0,0 UV-I 32 W/m 3,6 C 1,3 C 17,7 km/h (3 Bft) 96,00 %
12.12.2017 09:52 4,6 C 3,9 C 93 % 1006,9 hPa 0,0 l/m 9,0 km/h (2 Bft) S-SW 197 0 min 0,000 mm 0,0 UV-I 33 W/m 3,6 C 2,4 C 12,9 km/h (3 Bft) 95,74 %
12.12.2017 09:54 4,7 C 3,9 C 93 % 1007,1 hPa 0,0 l/m 7,6 km/h (2 Bft) W-SW 254 0 min 0,000 mm 0,0 UV-I 33 W/m 3,7 C 3,6 C 11,3 km/h (2 Bft) 89,47 %
12.12.2017 09:56 4,7 C 3,9 C 93 % 1007,1 hPa 0,0 l/m 9,3 km/h (2 Bft) S-SW 203 0 min 0,000 mm 0,0 UV-I 33 W/m 3,7 C 2,3 C 16,1 km/h (3 Bft) 95,83 %
12.12.2017 09:58 4,7 C 3,9 C 93 % 1007,2 hPa 0,0 l/m 10,3 km/h (2 Bft) S-SW 202 0 min 0,000 mm 0,0 UV-I 34 W/m 3,7 C 1,5 C 14,5 km/h (3 Bft) 96,15 %
12.12.2017 10:00 4,7 C 3,9 C 92 % 1007,3 hPa 0,0 l/m 9,7 km/h (2 Bft) SW 225 0 min 0,025 mm 0,0 UV-I 37 W/m 3,5 C 2,0 C 16,1 km/h (3 Bft) 95,24 %
12.12.2017 10:02 4,7 C 3,9 C 92 % 1007,3 hPa 0,0 l/m 9,0 km/h (2 Bft) SW 234 0 min 0,000 mm 0,0 UV-I 41 W/m 3,5 C 2,5 C 11,3 km/h (2 Bft) 96,36 %
12.12.2017 10:04 4,6 C 3,9 C 92 % 1007,5 hPa 0,0 l/m 8,7 km/h (2 Bft) SW 235 0 min 0,000 mm 0,0 UV-I 43 W/m 3,4 C 2,6 C 12,9 km/h (3 Bft) 97,44 %
12.12.2017 10:06 4,6 C 3,9 C 92 % 1007,4 hPa 0,0 l/m 9,7 km/h (2 Bft) W-SW 247 0 min 0,000 mm 0,0 UV-I 45 W/m 3,4 C 1,8 C 16,1 km/h (3 Bft) 97,87 %
12.12.2017 10:08 4,6 C 3,9 C 92 % 1007,5 hPa 0,0 l/m 13,3 km/h (3 Bft) W-SW 238 0 min 0,000 mm 0,0 UV-I 46 W/m 3,4 C -0,5 C 20,9 km/h (4 Bft) 94,00 %
12.12.2017 10:10 4,6 C 3,9 C 92 % 1007,6 hPa 0,0 l/m 11,9 km/h (2 Bft) SW 227 0 min 0,000 mm 0,0 UV-I 44 W/m 3,4 C 0,4 C 20,9 km/h (4 Bft) 94,00 %
12.12.2017 10:12 4,6 C 3,9 C 92 % 1007,8 hPa 0,0 l/m 12,4 km/h (3 Bft) W-SW 237 0 min 0,000 mm 0,0 UV-I 42 W/m 3,4 C 0,1 C 17,7 km/h (3 Bft) 97,73 %
12.12.2017 10:14 4,5 C 3,9 C 92 % 1007,8 hPa 0,0 l/m 10,9 km/h (2 Bft) W-SW 250 0 min 0,000 mm 0,0 UV-I 45 W/m 3,3 C 0,9 C 14,5 km/h (3 Bft) 96,55 %
12.12.2017 10:16 4,6 C 3,9 C 91 % 1007,9 hPa 0,0 l/m 11,6 km/h (2 Bft) S-SW 194 0 min 0,000 mm 0,0 UV-I 49 W/m 3,3 C 0,5 C 17,7 km/h (3 Bft) 98,46 %
12.12.2017 10:18 4,6 C 3,9 C 91 % 1008,0 hPa 0,0 l/m 14,4 km/h (3 Bft) SW 235 0 min 0,000 mm 0,0 UV-I 53 W/m 3,3 C -1,1 C 22,5 km/h (4 Bft) 95,12 %
12.12.2017 10:20 4,6 C 3,9 C 91 % 1008,0 hPa 0,0 l/m 12,8 km/h (3 Bft) SW 217 0 min 0,000 mm 0,0 UV-I 57 W/m 3,3 C -0,2 C 19,3 km/h (3 Bft) 96,23 %
12.12.2017 10:22 4,6 C 3,9 C 91 % 1008,1 hPa 0,0 l/m 10,9 km/h (2 Bft) S-SW 211 0 min 0,000 mm 0,0 UV-I 61 W/m 3,3 C 1,0 C 19,3 km/h (3 Bft) 97,56 %
12.12.2017 10:24 4,7 C 3,9 C 91 % 1008,1 hPa 0,0 l/m 10,9 km/h (2 Bft) S-SW 211 0 min 0,000 mm 0,0 UV-I 61 W/m 3,4 C 1,1 C 16,1 km/h (3 Bft) 97,87 %
12.12.2017 10:26 4,7 C 3,9 C 91 % 1008,0 hPa 0,0 l/m 12,8 km/h (3 Bft) S-SW 205 0 min 0,000 mm 0,0 UV-I 61 W/m 3,4 C -0,1 C 19,3 km/h (3 Bft) 98,11 %
12.12.2017 10:28 4,7 C 3,9 C 90 % 1008,2 hPa 0,0 l/m 10,5 km/h (2 Bft) S-SW 213 0 min 0,000 mm 0,0 UV-I 59 W/m 3,2 C 1,4 C 20,9 km/h (4 Bft) 98,00 %
12.12.2017 10:30 4,7 C 3,9 C 90 % 1008,2 hPa 0,0 l/m 12,1 km/h (2 Bft) S-SW 213 0 min 0,000 mm 0,0 UV-I 59 W/m 3,2 C 0,3 C 17,7 km/h (3 Bft) 100,00 %
12.12.2017 10:32 4,7 C 3,9 C 90 % 1008,2 hPa 0,0 l/m 14,7 km/h (3 Bft) W-SW 254 0 min 0,000 mm 0,0 UV-I 53 W/m 3,2 C -1,1 C 24,1 km/h (4 Bft) 100,00 %
12.12.2017 10:34 4,7 C 3,9 C 90 % 1008,2 hPa 0,0 l/m 13,1 km/h (3 Bft) SW 217 0 min 0,000 mm 0,0 UV-I 51 W/m 3,2 C -0,2 C 24,1 km/h (4 Bft) 100,00 %
12.12.2017 10:36 4,7 C 3,9 C 89 % 1008,3 hPa 0,0 l/m 15,1 km/h (3 Bft) W-SW 247 0 min 0,000 mm 0,0 UV-I 49 W/m 3,0 C -1,3 C 22,5 km/h (4 Bft) 100,00 %
12.12.2017 10:38 4,7 C 3,9 C 89 % 1008,3 hPa 0,0 l/m 18,3 km/h (3 Bft) W-SW 257 0 min 0,000 mm 0,0 UV-I 50 W/m 3,0 C -2,9 C 30,6 km/h (5 Bft) 100,00 %
12.12.2017 10:40 4,7 C 3,9 C 88 % 1008,4 hPa 0,0 l/m 17,3 km/h (3 Bft) SW 224 0 min 0,000 mm 0,0 UV-I 50 W/m 2,9 C -2,4 C 25,7 km/h (4 Bft) 98,00 %
12.12.2017 10:42 4,6 C 3,9 C 87 % 1008,5 hPa 0,0 l/m 15,8 km/h (3 Bft) W-SW 242 0 min 0,000 mm 0,0 UV-I 52 W/m 2,6 C -1,8 C 22,5 km/h (4 Bft) 100,00 %
12.12.2017 10:44 4,6 C 3,9 C 87 % 1008,4 hPa 0,0 l/m 19,9 km/h (4 Bft) SW 227 0 min 0,000 mm 0,0 UV-I 56 W/m 2,6 C -3,6 C 30,6 km/h (5 Bft) 97,37 %
12.12.2017 10:46 4,6 C 3,9 C 87 % 1008,5 hPa 0,0 l/m 17,9 km/h (3 Bft) W-SW 252 0 min 0,000 mm 0,0 UV-I 58 W/m 2,6 C -2,8 C 24,1 km/h (4 Bft) 100,00 %
12.12.2017 10:48 4,6 C 3,9 C 87 % 1008,5 hPa 0,0 l/m 15,2 km/h (3 Bft) W 263 0 min 0,000 mm 0,0 UV-I 59 W/m 2,6 C -1,5 C 25,7 km/h (4 Bft) 100,00 %
12.12.2017 10:50 4,5 C 3,9 C 87 % 1008,6 hPa 0,0 l/m 17,3 km/h (3 Bft) W-SW 239 0 min 0,000 mm 0,0 UV-I 55 W/m 2,5 C -2,7 C 24,1 km/h (4 Bft) 97,87 %
12.12.2017 10:52 4,5 C 3,9 C 87 % 1008,6 hPa 0,0 l/m 19,6 km/h (3 Bft) SW 231 0 min 0,000 mm 0,0 UV-I 53 W/m 2,5 C -3,7 C 27,4 km/h (4 Bft) 100,00 %
12.12.2017 10:54 4,5 C 3,9 C 86 % 1008,6 hPa 0,0 l/m 21,1 km/h (4 Bft) W-SW 246 0 min 0,000 mm 0,0 UV-I 73 W/m 2,4 C -4,3 C 30,6 km/h (5 Bft) 100,00 %
12.12.2017 10:56 4,5 C 3,9 C 86 % 1008,7 hPa 0,0 l/m 16,5 km/h (3 Bft) W-SW 255 0 min 0,000 mm 0,0 UV-I 58 W/m 2,4 C -2,3 C 25,7 km/h (4 Bft) 100,00 %
12.12.2017 10:58 4,4 C 3,9 C 86 % 1008,7 hPa 0,0 l/m 14,0 km/h (3 Bft) W 275 0 min 0,000 mm 0,0 UV-I 47 W/m 2,3 C -1,1 C 19,3 km/h (3 Bft) 97,73 %
12.12.2017 11:00 4,4 C 3,9 C 86 % 1008,8 hPa 0,0 l/m 14,0 km/h (3 Bft) SW 217 0 min 0,025 mm 0,0 UV-I 41 W/m 2,3 C -1,1 C 24,1 km/h (4 Bft) 98,21 %
12.12.2017 11:02 4,3 C 3,9 C 86 % 1008,8 hPa 0,0 l/m 15,7 km/h (3 Bft) W-SW 257 0 min 0,000 mm 0,0 UV-I 38 W/m 2,2 C -2,1 C 22,5 km/h (4 Bft) 100,00 %
12.12.2017 11:04 4,3 C 3,9 C 86 % 1008,9 hPa 0,0 l/m 17,0 km/h (3 Bft) W-SW 246 0 min 0,000 mm 0,0 UV-I 49 W/m 2,2 C -2,8 C 24,1 km/h (4 Bft) 100,00 %
12.12.2017 11:06 4,3 C 3,9 C 85 % 1008,9 hPa 0,0 l/m 18,2 km/h (3 Bft) W-SW 255 0 min 0,000 mm 0,0 UV-I 81 W/m 2,0 C -3,3 C 25,7 km/h (4 Bft) 100,00 %
12.12.2017 11:08 4,3 C 3,9 C 86 % 1009,0 hPa 0,0 l/m 19,8 km/h (3 Bft) W 267 0 min 0,000 mm 0,0 UV-I 93 W/m 2,2 C -4,0 C 25,7 km/h (4 Bft) 100,00 %
12.12.2017 11:10 4,4 C 3,9 C 86 % 1009,0 hPa 0,0 l/m 15,2 km/h (3 Bft) W-SW 248 0 min 0,000 mm 0,0 UV-I 95 W/m 2,3 C -1,8 C 22,5 km/h (4 Bft) 100,00 %
12.12.2017 11:12 4,4 C 3,9 C 85 % 1009,1 hPa 0,0 l/m 17,7 km/h (3 Bft) W-SW 237 0 min 0,000 mm 0,0 UV-I 96 W/m 2,1 C -3,0 C 25,7 km/h (4 Bft) 100,00 %
12.12.2017 11:14 4,4 C 3,9 C 85 % 1009,2 hPa 0,0 l/m 15,7 km/h (3 Bft) SW 223 0 min 0,000 mm 0,0 UV-I 106 W/m 2,1 C -2,0 C 25,7 km/h (4 Bft) 100,00 %
12.12.2017 11:16 4,4 C 3,9 C 85 % 1009,3 hPa 0,0 l/m 15,7 km/h (3 Bft) W 263 0 min 0,000 mm 0,0 UV-I 97 W/m 2,1 C -2,0 C 22,5 km/h (4 Bft) 100,00 %
12.12.2017 11:18 4,3 C 3,9 C 85 % 1009,3 hPa 0,0 l/m 18,7 km/h (3 Bft) W 274 0 min 0,000 mm 0,0 UV-I 89 W/m 2,0 C -3,5 C 29,0 km/h (5 Bft) 98,51 %
12.12.2017 11:20 4,3 C 3,9 C 84 % 1009,4 hPa 0,0 l/m 14,9 km/h (3 Bft) W-SW 240 0 min 0,000 mm 0,0 UV-I 97 W/m 1,8 C -1,7 C 20,9 km/h (4 Bft) 100,00 %
12.12.2017 11:22 4,2 C 3,9 C 83 % 1009,5 hPa 0,0 l/m 17,7 km/h (3 Bft) W-NW 284 0 min 0,000 mm 0,0 UV-I 79 W/m 1,6 C -3,2 C 30,6 km/h (5 Bft) 100,00 %
12.12.2017 11:24 4,2 C 3,9 C 83 % 1009,7 hPa 0,0 l/m 17,1 km/h (3 Bft) W-SW 240 0 min 0,000 mm 0,0 UV-I 62 W/m 1,6 C -2,9 C 27,4 km/h (4 Bft) 100,00 %
12.12.2017 11:26 4,1 C 3,9 C 83 % 1009,7 hPa 0,0 l/m 15,4 km/h (3 Bft) N-NW 338 0 min 0,000 mm 0,0 UV-I 62 W/m 1,5 C -2,2 C 22,5 km/h (4 Bft) 100,00 %
12.12.2017 11:28 4,1 C 3,9 C 84 % 1009,7 hPa 0,0 l/m 13,5 km/h (3 Bft) W-NW 286 0 min 0,000 mm 0,0 UV-I 69 W/m 1,6 C -1,2 C 19,3 km/h (3 Bft) 100,00 %
12.12.2017 11:30 4,0 C 3,9 C 84 % 1009,8 hPa 0,0 l/m 14,5 km/h (3 Bft) W-SW 257 0 min 0,000 mm 0,0 UV-I 63 W/m 1,5 C -1,9 C 22,5 km/h (4 Bft) 95,12 %
12.12.2017 11:32 4,0 C 3,9 C 84 % 1009,8 hPa 0,0 l/m 16,7 km/h (3 Bft) W 264 0 min 0,000 mm 0,0 UV-I 54 W/m 1,5 C -3,0 C 24,1 km/h (4 Bft) 100,00 %
12.12.2017 11:34 3,9 C 3,9 C 84 % 1009,9 hPa 0,0 l/m 17,4 km/h (3 Bft) W 269 0 min 0,000 mm 0,0 UV-I 46 W/m 1,4 C -3,5 C 25,7 km/h (4 Bft) 100,00 %
12.12.2017 11:36 3,9 C 3,9 C 84 % 1009,9 hPa 0,0 l/m 11,7 km/h (2 Bft) W 264 0 min 0,000 mm 0,0 UV-I 46 W/m 1,4 C -0,3 C 17,7 km/h (3 Bft) 97,87 %
12.12.2017 11:38 3,8 C 3,9 C 85 % 1010,0 hPa 0,0 l/m 11,2 km/h (2 Bft) W-NW 287 0 min 0,000 mm 0,0 UV-I 54 W/m 1,5 C -0,1 C 20,9 km/h (4 Bft) 97,87 %
12.12.2017 11:40 3,8 C 3,9 C 85 % 1010,0 hPa 0,0 l/m 9,7 km/h (2 Bft) W 270 0 min 0,000 mm 0,0 UV-I 58 W/m 1,5 C 1,0 C 20,9 km/h (4 Bft) 97,37 %
12.12.2017 11:45 3,8 C 3,9 C 86 % 1010,0 hPa 0,0 l/m 9,7 km/h (2 Bft) W 270 0 min 0,000 mm 0,0 UV-I 69 W/m 1,7 C 1,0 C 19,3 km/h (3 Bft) 100,00 %
12.12.2017 11:50 3,7 C 3,9 C 87 % 1010,2 hPa 0,0 l/m 1,6 km/h (1 Bft) W 272 0 min 0,000 mm 0,0 UV-I 64 W/m 1,7 C 3,7 C 3,2 km/h (1 Bft) 96,11 %
12.12.2017 11:52 3,6 C 3,9 C 88 % 1010,3 hPa 0,0 l/m 3,3 km/h (1 Bft) NW 317 0 min 0,000 mm 0,0 UV-I 59 W/m 1,8 C 3,6 C 9,7 km/h (2 Bft) 95,45 %
12.12.2017 11:54 3,3 C 3,9 C 89 % 1010,3 hPa 0,0 l/m 5,5 km/h (1 Bft) W-NW 293 0 min 0,000 mm 0,0 UV-I 47 W/m 1,7 C 3,3 C 12,9 km/h (3 Bft) 97,87 %
12.12.2017 11:56 3,1 C 3,9 C 90 % 1010,4 hPa 0,0 l/m 2,3 km/h (1 Bft) W-NW 294 0 min 0,000 mm 0,0 UV-I 45 W/m 1,6 C 3,1 C 6,4 km/h (2 Bft) 98,11 %
12.12.2017 11:58 2,9 C 3,9 C 90 % 1010,4 hPa 0,0 l/m 4,6 km/h (1 Bft) W-NW 294 0 min 0,000 mm 0,0 UV-I 42 W/m 1,4 C 2,9 C 16,1 km/h (3 Bft) 97,37 %
12.12.2017 12:00 2,8 C 3,9 C 91 % 1010,4 hPa 0,0 l/m 6,8 km/h (2 Bft) W 265 0 min 0,051 mm 0,0 UV-I 38 W/m 1,5 C 2,4 C 14,5 km/h (3 Bft) 96,23 %
12.12.2017 12:02 2,7 C 3,9 C 91 % 1010,4 hPa 0,0 l/m 2,8 km/h (1 Bft) W-NW 290 0 min 0,000 mm 0,0 UV-I 36 W/m 1,4 C 2,7 C 4,8 km/h (1 Bft) 98,11 %
12.12.2017 12:04 2,6 C 3,9 C 92 % 1010,4 hPa 0,0 l/m 4,4 km/h (1 Bft) W 263 0 min 0,000 mm 0,0 UV-I 32 W/m 1,4 C 2,6 C 9,7 km/h (2 Bft) 95,74 %
12.12.2017 12:06 2,6 C 3,9 C 92 % 1010,5 hPa 0,0 l/m 7,5 km/h (2 Bft) W-NW 296 0 min 0,000 mm 0,0 UV-I 32 W/m 1,4 C 1,5 C 12,9 km/h (3 Bft) 100,00 %
12.12.2017 12:08 2,6 C 3,9 C 92 % 1010,5 hPa 0,0 l/m 6,2 km/h (2 Bft) W-SW 258 0 min 0,000 mm 0,0 UV-I 27 W/m 1,4 C 2,6 C 12,9 km/h (3 Bft) 94,00 %
12.12.2017 12:10 2,5 C 3,9 C 92 % 1010,5 hPa 0,0 l/m 7,4 km/h (2 Bft) W 259 0 min 0,000 mm 0,0 UV-I 33 W/m 1,3 C 1,5 C 12,9 km/h (3 Bft) 96,00 %
12.12.2017 12:12 2,4 C 3,9 C 92 % 1010,6 hPa 0,0 l/m 9,7 km/h (2 Bft) W 263 0 min 0,000 mm 0,0 UV-I 34 W/m 1,2 C -0,6 C 16,1 km/h (3 Bft) 97,78 %
12.12.2017 12:14 2,4 C 3,9 C 92 % 1010,6 hPa 0,0 l/m 11,0 km/h (2 Bft) W 267 0 min 0,000 mm 0,0 UV-I 40 W/m 1,2 C -1,5 C 14,5 km/h (3 Bft) 96,23 %
12.12.2017 12:16 2,5 C 3,9 C 92 % 1010,6 hPa 0,0 l/m 10,6 km/h (2 Bft) W 271 0 min 0,000 mm 0,0 UV-I 62 W/m 1,3 C -1,1 C 16,1 km/h (3 Bft) 100,00 %
12.12.2017 12:18 2,6 C 3,9 C 92 % 1010,6 hPa 0,0 l/m 12,4 km/h (3 Bft) W-SW 256 0 min 0,000 mm 0,0 UV-I 68 W/m 1,4 C -2,3 C 19,3 km/h (3 Bft) 100,00 %
12.12.2017 12:20 2,6 C 3,9 C 93 % 1010,7 hPa 0,0 l/m 16,5 km/h (3 Bft) W 262 0 min 0,000 mm 0,0 UV-I 55 W/m 1,6 C -4,6 C 22,5 km/h (4 Bft) 100,00 %
12.12.2017 12:22 2,7 C 3,9 C 92 % 1010,6 hPa 0,0 l/m 15,4 km/h (3 Bft) SW 231 0 min 0,000 mm 0,0 UV-I 57 W/m 1,5 C -3,9 C 22,5 km/h (4 Bft) 97,56 %
12.12.2017 12:24 2,7 C 3,9 C 92 % 1010,6 hPa 0,0 l/m 14,6 km/h (3 Bft) W-SW 246 0 min 0,000 mm 0,0 UV-I 65 W/m 1,5 C -3,5 C 20,9 km/h (4 Bft) 96,23 %
12.12.2017 12:26 2,7 C 3,9 C 91 % 1010,6 hPa 0,0 l/m 17,0 km/h (3 Bft) W 259 0 min 0,000 mm 0,0 UV-I 61 W/m 1,4 C -4,8 C 22,5 km/h (4 Bft) 100,00 %
12.12.2017 12:28 2,8 C 3,9 C 91 % 1010,5 hPa 0,0 l/m 15,2 km/h (3 Bft) W 265 0 min 0,000 mm 0,0 UV-I 79 W/m 1,5 C -3,7 C 19,3 km/h (3 Bft) 98,21 %
12.12.2017 12:30 2,8 C 3,9 C 91 % 1010,5 hPa 0,0 l/m 16,2 km/h (3 Bft) W 262 0 min 0,000 mm 0,0 UV-I 98 W/m 1,5 C -4,2 C 22,5 km/h (4 Bft) 100,00 %
12.12.2017 12:32 2,8 C 3,9 C 91 % 1010,4 hPa 0,0 l/m 14,6 km/h (3 Bft) W-SW 242 0 min 0,000 mm 0,0 UV-I 107 W/m 1,5 C -3,4 C 24,1 km/h (4 Bft) 100,00 %
12.12.2017 12:34 2,9 C 3,9 C 91 % 1010,5 hPa 0,0 l/m 11,8 km/h (2 Bft) W-SW 251 0 min 0,000 mm 0,0 UV-I 115 W/m 1,6 C -1,5 C 16,1 km/h (3 Bft) 98,11 %
12.12.2017 12:36 3,0 C 3,9 C 91 % 1010,6 hPa 0,0 l/m 14,1 km/h (3 Bft) W-SW 240 0 min 0,000 mm 0,0 UV-I 111 W/m 1,7 C -2,8 C 20,9 km/h (4 Bft) 100,00 %
12.12.2017 12:38 3,1 C 3,9 C 91 % 1010,7 hPa 0,0 l/m 13,6 km/h (3 Bft) W 279 0 min 0,000 mm 0,0 UV-I 116 W/m 1,8 C -2,4 C 19,3 km/h (3 Bft) 100,00 %
12.12.2017 12:40 3,1 C 3,9 C 90 % 1010,6 hPa 0,0 l/m 13,8 km/h (3 Bft) S-SW 212 0 min 0,000 mm 0,0 UV-I 106 W/m 1,6 C -2,5 C 20,9 km/h (4 Bft) 100,00 %
12.12.2017 12:42 3,2 C 3,9 C 90 % 1010,6 hPa 0,0 l/m 10,5 km/h (2 Bft) SW 234 0 min 0,000 mm 0,0 UV-I 98 W/m 1,7 C -0,3 C 16,1 km/h (3 Bft) 100,00 %
12.12.2017 12:44 3,2 C 3,9 C 90 % 1010,7 hPa 0,0 l/m 13,3 km/h (3 Bft) SW 217 0 min 0,000 mm 0,0 UV-I 89 W/m 1,7 C -2,1 C 22,5 km/h (4 Bft) 100,00 %
12.12.2017 12:46 3,2 C 3,9 C 89 % 1010,7 hPa 0,0 l/m 11,5 km/h (2 Bft) SW 227 0 min 0,000 mm 0,0 UV-I 95 W/m 1,6 C -1,0 C 17,7 km/h (3 Bft) 100,00 %
12.12.2017 12:48 3,3 C 3,9 C 89 % 1010,7 hPa 0,0 l/m 11,2 km/h (2 Bft) W-SW 246 0 min 0,000 mm 0,0 UV-I 107 W/m 1,7 C -0,7 C 16,1 km/h (3 Bft) 100,00 %
12.12.2017 12:50 3,3 C 3,9 C 88 % 1010,7 hPa 0,0 l/m 10,9 km/h (2 Bft) W-SW 249 0 min 0,000 mm 0,0 UV-I 102 W/m 1,5 C -0,5 C 16,1 km/h (3 Bft) 98,11 %
12.12.2017 12:52 3,3 C 3,9 C 88 % 1010,8 hPa 0,0 l/m 11,0 km/h (2 Bft) W-SW 242 0 min 0,000 mm 0,0 UV-I 98 W/m 1,5 C -0,5 C 17,7 km/h (3 Bft) 100,00 %
12.12.2017 12:54 3,3 C 3,9 C 88 % 1010,7 hPa 0,0 l/m 9,1 km/h (2 Bft) SW 232 0 min 0,000 mm 0,0 UV-I 98 W/m 1,5 C 0,9 C 12,9 km/h (3 Bft) 98,08 %
12.12.2017 12:56 3,3 C 3,9 C 88 % 1010,7 hPa 0,0 l/m 10,5 km/h (2 Bft) SW 229 0 min 0,000 mm 0,0 UV-I 98 W/m 1,5 C -0,2 C 17,7 km/h (3 Bft) 97,44 %
12.12.2017 12:58 3,4 C 3,9 C 88 % 1010,8 hPa 0,0 l/m 11,5 km/h (2 Bft) SW 223 0 min 0,000 mm 0,0 UV-I 91 W/m 1,6 C -0,8 C 16,1 km/h (3 Bft) 100,00 %
12.12.2017 13:00 3,4 C 3,9 C 87 % 1010,9 hPa 0,0 l/m 9,1 km/h (2 Bft) W-SW 237 0 min 0,000 mm 0,0 UV-I 90 W/m 1,4 C 1,0 C 12,9 km/h (3 Bft) 100,00 %
12.12.2017 13:02 3,4 C 3,9 C 87 % 1011,0 hPa 0,0 l/m 11,5 km/h (2 Bft) SW 227 0 min 0,026 mm 0,0 UV-I 98 W/m 1,4 C -0,8 C 16,1 km/h (3 Bft) 100,00 %
12.12.2017 13:04 3,4 C 3,9 C 87 % 1010,9 hPa 0,0 l/m 11,1 km/h (2 Bft) W-SW 237 0 min 0,000 mm 0,0 UV-I 93 W/m 1,4 C -0,5 C 16,1 km/h (3 Bft) 100,00 %
12.12.2017 13:06 3,4 C 3,9 C 87 % 1011,0 hPa 0,0 l/m 9,1 km/h (2 Bft) S-SW 199 0 min 0,000 mm 0,0 UV-I 83 W/m 1,4 C 1,0 C 12,9 km/h (3 Bft) 98,11 %
12.12.2017 13:08 3,4 C 3,9 C 87 % 1011,0 hPa 0,0 l/m 9,7 km/h (2 Bft) W-SW 244 0 min 0,000 mm 0,0 UV-I 73 W/m 1,4 C 0,5 C 16,1 km/h (3 Bft) 100,00 %
12.12.2017 13:10 3,4 C 3,9 C 87 % 1011,0 hPa 0,0 l/m 10,4 km/h (2 Bft) W-SW 237 0 min 0,000 mm 0,0 UV-I 54 W/m 1,4 C 0,0 C 16,1 km/h (3 Bft) 96,23 %
12.12.2017 13:12 3,4 C 3,9 C 87 % 1011,0 hPa 0,0 l/m 10,9 km/h (2 Bft) W-SW 246 0 min 0,000 mm 0,0 UV-I 50 W/m 1,4 C -0,3 C 16,1 km/h (3 Bft) 100,00 %
12.12.2017 13:14 3,4 C 3,9 C 87 % 1011,0 hPa 0,0 l/m 9,4 km/h (2 Bft) W 259 0 min 0,000 mm 0,0 UV-I 61 W/m 1,4 C 0,8 C 12,9 km/h (3 Bft) 100,00 %
12.12.2017 13:16 3,4 C 3,9 C 87 % 1011,1 hPa 0,0 l/m 9,6 km/h (2 Bft) SW 225 0 min 0,000 mm 0,0 UV-I 75 W/m 1,4 C 0,6 C 12,9 km/h (3 Bft) 100,00 %
12.12.2017 13:18 3,4 C 3,9 C 87 % 1011,1 hPa 0,0 l/m 10,2 km/h (2 Bft) W-SW 242 0 min 0,000 mm 0,0 UV-I 74 W/m 1,4 C 0,2 C 16,1 km/h (3 Bft) 97,73 %
12.12.2017 13:20 3,4 C 3,9 C 87 % 1011,1 hPa 0,0 l/m 11,2 km/h (2 Bft) SW 229 0 min 0,000 mm 0,0 UV-I 74 W/m 1,4 C -0,6 C 17,7 km/h (3 Bft) 100,00 %
12.12.2017 13:22 3,4 C 3,9 C 88 % 1011,1 hPa 0,0 l/m 11,8 km/h (2 Bft) S-SW 207 0 min 0,000 mm 0,0 UV-I 77 W/m 1,6 C -1,0 C 17,7 km/h (3 Bft) 100,00 %
12.12.2017 13:24 3,4 C 3,9 C 88 % 1011,1 hPa 0,0 l/m 11,4 km/h (2 Bft) SW 232 0 min 0,000 mm 0,0 UV-I 77 W/m 1,6 C -0,7 C 16,1 km/h (3 Bft) 98,11 %
12.12.2017 13:26 3,4 C 3,9 C 88 % 1011,2 hPa 0,0 l/m 11,1 km/h (2 Bft) SW 232 0 min 0,000 mm 0,0 UV-I 85 W/m 1,6 C -0,5 C 19,3 km/h (3 Bft) 100,00 %
12.12.2017 13:28 3,4 C 3,9 C 88 % 1011,2 hPa 0,0 l/m 14,2 km/h (3 Bft) SW 232 0 min 0,000 mm 0,0 UV-I 74 W/m 1,6 C -2,4 C 20,9 km/h (4 Bft) 100,00 %
12.12.2017 13:30 3,4 C 3,9 C 88 % 1011,2 hPa 0,0 l/m 11,0 km/h (2 Bft) W-SW 248 0 min 0,000 mm 0,0 UV-I 57 W/m 1,6 C -0,4 C 14,5 km/h (3 Bft) 98,11 %
12.12.2017 13:32 3,4 C 3,9 C 88 % 1011,2 hPa 0,0 l/m 10,8 km/h (2 Bft) SW 229 0 min 0,000 mm 0,0 UV-I 48 W/m 1,6 C -0,3 C 16,1 km/h (3 Bft) 97,73 %
12.12.2017 13:34 3,4 C 3,9 C 88 % 1011,2 hPa 0,0 l/m 13,5 km/h (3 Bft) SW 224 0 min 0,000 mm 0,0 UV-I 50 W/m 1,6 C -2,0 C 20,9 km/h (4 Bft) 98,00 %
12.12.2017 13:36 3,4 C 3,9 C 87 % 1011,3 hPa 0,0 l/m 15,3 km/h (3 Bft) S-SW 207 0 min 0,000 mm 0,0 UV-I 48 W/m 1,4 C -3,0 C 24,1 km/h (4 Bft) 95,45 %
12.12.2017 13:38 3,4 C 3,9 C 87 % 1011,4 hPa 0,0 l/m 14,9 km/h (3 Bft) W-SW 255 0 min 0,000 mm 0,0 UV-I 58 W/m 1,4 C -2,8 C 20,9 km/h (4 Bft) 94,34 %
12.12.2017 13:40 3,3 C 3,9 C 87 % 1011,3 hPa 0,0 l/m 14,2 km/h (3 Bft) SW 230 0 min 0,000 mm 0,0 UV-I 66 W/m 1,3 C -2,5 C 19,3 km/h (3 Bft) 97,73 %
12.12.2017 13:45 3,3 C 3,9 C 86 % 1011,5 hPa 0,0 l/m 16,1 km/h (3 Bft) SW 225 0 min 0,000 mm 0,0 UV-I 63 W/m 1,2 C -3,6 C 24,1 km/h (4 Bft) 100,00 %
12.12.2017 13:50 3,3 C 3,9 C 85 % 1011,5 hPa 0,0 l/m 14,5 km/h (3 Bft) SW 225 0 min 0,000 mm 0,0 UV-I 55 W/m 1,0 C -2,7 C 22,5 km/h (4 Bft) 100,00 %
12.12.2017 13:52 3,3 C 3,9 C 85 % 1011,4 hPa 0,0 l/m 14,8 km/h (3 Bft) SW 217 0 min 0,000 mm 0,0 UV-I 56 W/m 1,0 C -2,9 C 17,7 km/h (3 Bft) 95,05 %
12.12.2017 13:54 3,3 C 3,9 C 85 % 1011,5 hPa 0,0 l/m 14,4 km/h (3 Bft) SW 217 0 min 0,000 mm 0,0 UV-I 53 W/m 1,0 C -2,7 C 24,1 km/h (4 Bft) 95,12 %
12.12.2017 13:56 3,3 C 3,9 C 85 % 1011,4 hPa 0,0 l/m 13,5 km/h (3 Bft) SW 229 0 min 0,000 mm 0,0 UV-I 53 W/m 1,0 C -2,1 C 20,9 km/h (4 Bft) 94,00 %
12.12.2017 13:58 3,3 C 3,9 C 85 % 1011,5 hPa 0,0 l/m 13,5 km/h (3 Bft) W-SW 258 0 min 0,000 mm 0,0 UV-I 49 W/m 1,0 C -2,1 C 19,3 km/h (3 Bft) 95,74 %
12.12.2017 14:00 3,2 C 3,9 C 85 % 1011,6 hPa 0,0 l/m 13,2 km/h (3 Bft) W-SW 247 0 min 0,050 mm 0,0 UV-I 50 W/m 0,9 C -2,1 C 19,3 km/h (3 Bft) 96,00 %
12.12.2017 14:02 3,2 C 3,9 C 85 % 1011,6 hPa 0,0 l/m 13,4 km/h (3 Bft) W-SW 255 0 min 0,000 mm 0,0 UV-I 51 W/m 0,9 C -2,2 C 19,3 km/h (3 Bft) 94,00 %
12.12.2017 14:04 3,2 C 3,9 C 85 % 1011,7 hPa 0,0 l/m 14,3 km/h (3 Bft) SW 214 0 min 0,000 mm 0,0 UV-I 50 W/m 0,9 C -2,7 C 20,9 km/h (4 Bft) 92,68 %
12.12.2017 14:06 3,2 C 3,9 C 85 % 1011,7 hPa 0,0 l/m 13,8 km/h (3 Bft) SW 234 0 min 0,000 mm 0,0 UV-I 41 W/m 0,9 C -2,4 C 19,3 km/h (3 Bft) 94,34 %
12.12.2017 14:08 3,2 C 3,9 C 85 % 1011,7 hPa 0,0 l/m 14,3 km/h (3 Bft) W 259 0 min 0,000 mm 0,0 UV-I 39 W/m 0,9 C -2,7 C 19,3 km/h (3 Bft) 95,45 %
12.12.2017 14:10 3,2 C 3,9 C 85 % 1011,7 hPa 0,0 l/m 10,3 km/h (2 Bft) W-SW 237 0 min 0,000 mm 0,0 UV-I 38 W/m 0,9 C -0,1 C 16,1 km/h (3 Bft) 94,00 %
12.12.2017 14:12 3,1 C 3,9 C 86 % 1011,8 hPa 0,0 l/m 11,3 km/h (2 Bft) S-SW 212 0 min 0,000 mm 0,0 UV-I 37 W/m 1,0 C -1,0 C 17,7 km/h (3 Bft) 95,74 %
12.12.2017 14:14 3,1 C 3,9 C 86 % 1011,8 hPa 0,0 l/m 11,8 km/h (2 Bft) W-SW 239 0 min 0,000 mm 0,0 UV-I 34 W/m 1,0 C -1,3 C 19,3 km/h (3 Bft) 95,74 %
12.12.2017 14:16 3,1 C 3,9 C 86 % 1011,8 hPa 0,0 l/m 11,3 km/h (2 Bft) SW 234 0 min 0,000 mm 0,0 UV-I 31 W/m 1,0 C -1,0 C 17,7 km/h (3 Bft) 94,74 %
12.12.2017 14:18 3,1 C 3,9 C 86 % 1011,9 hPa 0,0 l/m 12,7 km/h (3 Bft) W-SW 238 0 min 0,000 mm 0,0 UV-I 29 W/m 1,0 C -1,9 C 19,3 km/h (3 Bft) 97,73 %
12.12.2017 14:20 3,1 C 3,9 C 85 % 1011,9 hPa 0,0 l/m 11,1 km/h (2 Bft) SW 225 0 min 0,000 mm 0,0 UV-I 28 W/m 0,8 C -0,8 C 14,5 km/h (3 Bft) 95,24 %
12.12.2017 14:22 3,1 C 3,9 C 85 % 1012,0 hPa 0,0 l/m 11,3 km/h (2 Bft) W-SW 244 0 min 0,000 mm 0,0 UV-I 28 W/m 0,8 C -1,0 C 16,1 km/h (3 Bft) 96,36 %
12.12.2017 14:24 3,1 C 3,9 C 86 % 1012,1 hPa 0,0 l/m 12,8 km/h (3 Bft) SW 227 0 min 0,000 mm 0,0 UV-I 24 W/m 1,0 C -1,9 C 17,7 km/h (3 Bft) 96,23 %
12.12.2017 14:26 3,1 C 3,9 C 86 % 1012,1 hPa 0,0 l/m 8,1 km/h (2 Bft) W-SW 242 0 min 0,000 mm 0,0 UV-I 21 W/m 1,0 C 1,5 C 12,9 km/h (3 Bft) 97,87 %
12.12.2017 14:28 3,1 C 3,9 C 86 % 1012,1 hPa 0,0 l/m 8,9 km/h (2 Bft) SW 236 0 min 0,000 mm 0,0 UV-I 21 W/m 1,0 C 0,8 C 16,1 km/h (3 Bft) 97,44 %
12.12.2017 14:30 3,0 C 3,9 C 86 % 1012,0 hPa 0,0 l/m 11,2 km/h (2 Bft) SW 227 0 min 0,000 mm 0,0 UV-I 23 W/m 0,9 C -1,0 C 19,3 km/h (3 Bft) 98,11 %
12.12.2017 14:32 3,0 C 3,9 C 86 % 1012,1 hPa 0,0 l/m 11,5 km/h (2 Bft) SW 221 0 min 0,000 mm 0,0 UV-I 23 W/m 0,9 C -1,2 C 17,7 km/h (3 Bft) 97,73 %
12.12.2017 14:34 3,0 C 3,9 C 86 % 1012,2 hPa 0,0 l/m 9,8 km/h (2 Bft) SW 233 0 min 0,000 mm 0,0 UV-I 21 W/m 0,9 C 0,0 C 14,5 km/h (3 Bft) 94,34 %
12.12.2017 14:36 2,9 C 3,9 C 86 % 1012,3 hPa 0,0 l/m 13,3 km/h (3 Bft) SW 234 0 min 0,000 mm 0,0 UV-I 21 W/m 0,8 C -2,5 C 22,5 km/h (4 Bft) 97,73 %
12.12.2017 14:38 2,9 C 3,9 C 86 % 1012,3 hPa 0,0 l/m 10,1 km/h (2 Bft) W-SW 244 0 min 0,000 mm 0,0 UV-I 21 W/m 0,8 C -0,3 C 16,1 km/h (3 Bft) 97,56 %
12.12.2017 14:40 2,9 C 3,9 C 86 % 1012,3 hPa 0,0 l/m 10,2 km/h (2 Bft) SW 234 0 min 0,000 mm 0,0 UV-I 23 W/m 0,8 C -0,4 C 14,5 km/h (3 Bft) 98,00 %
12.12.2017 14:42 2,9 C 3,9 C 86 % 1012,2 hPa 0,0 l/m 8,0 km/h (2 Bft) SW 221 0 min 0,000 mm 0,0 UV-I 25 W/m 0,8 C 1,4 C 12,9 km/h (3 Bft) 97,87 %
12.12.2017 14:44 2,9 C 3,9 C 85 % 1012,3 hPa 0,0 l/m 11,4 km/h (2 Bft) SW 229 0 min 0,000 mm 0,0 UV-I 26 W/m 0,6 C -1,3 C 16,1 km/h (3 Bft) 95,12 %
12.12.2017 14:46 2,9 C 3,9 C 85 % 1012,3 hPa 0,0 l/m 9,9 km/h (2 Bft) W-SW 244 0 min 0,000 mm 0,0 UV-I 27 W/m 0,6 C -0,2 C 19,3 km/h (3 Bft) 100,00 %
12.12.2017 14:48 3,0 C 3,9 C 85 % 1012,3 hPa 0,0 l/m 13,0 km/h (3 Bft) W-SW 251 0 min 0,000 mm 0,0 UV-I 28 W/m 0,7 C -2,2 C 17,7 km/h (3 Bft) 100,00 %
12.12.2017 14:50 3,0 C 3,9 C 85 % 1012,4 hPa 0,0 l/m 8,4 km/h (2 Bft) W-SW 238 0 min 0,000 mm 0,0 UV-I 29 W/m 0,7 C 1,2 C 12,9 km/h (3 Bft) 100,00 %
12.12.2017 14:52 3,0 C 3,9 C 85 % 1012,4 hPa 0,0 l/m 9,1 km/h (2 Bft) W-SW 254 0 min 0,000 mm 0,0 UV-I 29 W/m 0,7 C 0,6 C 12,9 km/h (3 Bft) 100,00 %
12.12.2017 14:54 2,9 C 3,9 C 85 % 1012,4 hPa 0,0 l/m 8,3 km/h (2 Bft) W-SW 237 0 min 0,000 mm 0,0 UV-I 26 W/m 0,6 C 1,1 C 14,5 km/h (3 Bft) 100,00 %
12.12.2017 14:56 2,9 C 3,9 C 85 % 1012,5 hPa 0,0 l/m 10,1 km/h (2 Bft) W-SW 248 0 min 0,000 mm 0,0 UV-I 25 W/m 0,6 C -0,3 C 14,5 km/h (3 Bft) 96,23 %
12.12.2017 14:58 2,9 C 3,9 C 85 % 1012,5 hPa 0,0 l/m 8,3 km/h (2 Bft) W-SW 238 0 min 0,000 mm 0,0 UV-I 23 W/m 0,6 C 1,1 C 12,9 km/h (3 Bft) 100,00 %
12.12.2017 15:00 2,9 C 3,9 C 85 % 1012,5 hPa 0,0 l/m 6,5 km/h (2 Bft) S-SW 206 0 min 0,000 mm 0,0 UV-I 21 W/m 0,6 C 2,8 C 12,9 km/h (3 Bft) 100,00 %
12.12.2017 15:02 2,9 C 3,9 C 85 % 1012,5 hPa 0,0 l/m 8,2 km/h (2 Bft) S-SW 209 0 min 0,026 mm 0,0 UV-I 21 W/m 0,6 C 1,2 C 11,3 km/h (2 Bft) 100,00 %
12.12.2017 15:04 2,8 C 3,9 C 86 % 1012,5 hPa 0,0 l/m 9,6 km/h (2 Bft) SW 218 0 min 0,000 mm 0,0 UV-I 20 W/m 0,7 C -0,0 C 14,5 km/h (3 Bft) 100,00 %
12.12.2017 15:06 2,8 C 3,9 C 86 % 1012,5 hPa 0,0 l/m 9,8 km/h (2 Bft) SW 227 0 min 0,000 mm 0,0 UV-I 19 W/m 0,7 C -0,2 C 16,1 km/h (3 Bft) 98,36 %
12.12.2017 15:08 2,8 C 3,9 C 86 % 1012,6 hPa 0,0 l/m 9,9 km/h (2 Bft) SW 235 0 min 0,000 mm 0,0 UV-I 18 W/m 0,7 C -0,3 C 17,7 km/h (3 Bft) 100,00 %
12.12.2017 15:10 2,8 C 3,9 C 86 % 1012,7 hPa 0,0 l/m 9,0 km/h (2 Bft) SW 230 0 min 0,000 mm 0,0 UV-I 18 W/m 0,7 C 0,4 C 12,9 km/h (3 Bft) 100,00 %
12.12.2017 15:12 2,8 C 3,9 C 86 % 1012,7 hPa 0,0 l/m 7,7 km/h (2 Bft) W-SW 256 0 min 0,000 mm 0,0 UV-I 18 W/m 0,7 C 1,6 C 12,9 km/h (3 Bft) 100,00 %
12.12.2017 15:14 2,8 C 3,9 C 86 % 1012,8 hPa 0,0 l/m 8,2 km/h (2 Bft) SW 235 0 min 0,000 mm 0,0 UV-I 18 W/m 0,7 C 1,1 C 12,9 km/h (3 Bft) 100,00 %
12.12.2017 15:16 2,8 C 3,9 C 87 % 1012,8 hPa 0,0 l/m 8,3 km/h (2 Bft) SW 225 0 min 0,000 mm 0,0 UV-I 16 W/m 0,9 C 1,0 C 11,3 km/h (2 Bft) 100,00 %
12.12.2017 15:18 2,8 C 3,9 C 87 % 1012,9 hPa 0,0 l/m 7,7 km/h (2 Bft) W-SW 249 0 min 0,000 mm 0,0 UV-I 14 W/m 0,9 C 1,6 C 11,3 km/h (2 Bft) 97,73 %
12.12.2017 15:20 2,7 C 3,9 C 87 % 1012,9 hPa 0,0 l/m 9,7 km/h (2 Bft) W-SW 250 0 min 0,000 mm 0,0 UV-I 14 W/m 0,8 C -0,2 C 16,1 km/h (3 Bft) 100,00 %
12.12.2017 15:22 2,8 C 3,9 C 87 % 1012,9 hPa 0,0 l/m 8,8 km/h (2 Bft) SW 227 0 min 0,000 mm 0,0 UV-I 13 W/m 0,9 C 0,6 C 12,9 km/h (3 Bft) 98,11 %
12.12.2017 15:24 2,8 C 3,9 C 87 % 1012,9 hPa 0,0 l/m 7,0 km/h (2 Bft) SW 222 0 min 0,000 mm 0,0 UV-I 12 W/m 0,9 C 2,2 C 14,5 km/h (3 Bft) 100,00 %
12.12.2017 15:26 2,7 C 3,9 C 87 % 1012,9 hPa 0,0 l/m 7,8 km/h (2 Bft) W-SW 238 0 min 0,000 mm 0,0 UV-I 14 W/m 0,8 C 1,4 C 11,3 km/h (2 Bft) 100,00 %
12.12.2017 15:28 2,7 C 3,9 C 87 % 1013,0 hPa 0,0 l/m 6,5 km/h (2 Bft) SW 233 0 min 0,000 mm 0,0 UV-I 14 W/m 0,8 C 2,6 C 9,7 km/h (2 Bft) 100,00 %
12.12.2017 15:30 2,7 C 3,9 C 87 % 1013,0 hPa 0,0 l/m 6,5 km/h (2 Bft) S-SW 211 0 min 0,000 mm 0,0 UV-I 14 W/m 0,8 C 2,6 C 11,3 km/h (2 Bft) 100,00 %
12.12.2017 15:32 2,7 C 3,9 C 88 % 1013,0 hPa 0,0 l/m 7,0 km/h (2 Bft) SW 222 0 min 0,000 mm 0,0 UV-I 12 W/m 0,9 C 2,1 C 11,3 km/h (2 Bft) 100,00 %
12.12.2017 15:34 2,6 C 3,9 C 88 % 1013,1 hPa 0,0 l/m 7,5 km/h (2 Bft) SW 229 0 min 0,000 mm 0,0 UV-I 12 W/m 0,8 C 1,5 C 12,9 km/h (3 Bft) 100,00 %
12.12.2017 15:36 2,6 C 3,9 C 88 % 1013,1 hPa 0,0 l/m 7,8 km/h (2 Bft) W-SW 247 0 min 0,000 mm 0,0 UV-I 11 W/m 0,8 C 1,3 C 11,3 km/h (2 Bft) 100,00 %
12.12.2017 15:38 2,6 C 3,9 C 88 % 1013,1 hPa 0,0 l/m 9,7 km/h (2 Bft) SW 235 0 min 0,000 mm 0,0 UV-I 11 W/m 0,8 C -0,3 C 14,5 km/h (3 Bft) 100,00 %
12.12.2017 15:40 2,6 C 3,9 C 88 % 1013,1 hPa 0,0 l/m 7,4 km/h (2 Bft) W-SW 242 0 min 0,000 mm 0,0 UV-I 11 W/m 0,8 C 1,6 C 12,9 km/h (3 Bft) 100,00 %
12.12.2017 15:42 2,6 C 3,9 C 88 % 1013,2 hPa 0,0 l/m 8,3 km/h (2 Bft) SW 218 0 min 0,000 mm 0,0 UV-I 11 W/m 0,8 C 0,8 C 12,9 km/h (3 Bft) 97,73 %
12.12.2017 15:44 2,6 C 3,9 C 88 % 1013,3 hPa 0,0 l/m 7,2 km/h (2 Bft) SW 231 0 min 0,000 mm 0,0 UV-I 9 W/m 0,8 C 1,8 C 11,3 km/h (2 Bft) 100,00 %
12.12.2017 15:46 2,6 C 3,9 C 88 % 1013,4 hPa 0,0 l/m 8,4 km/h (2 Bft) W-SW 244 0 min 0,000 mm 0,0 UV-I 9 W/m 0,8 C 0,7 C 12,9 km/h (3 Bft) 100,00 %
12.12.2017 15:48 2,6 C 3,9 C 88 % 1013,4 hPa 0,0 l/m 6,8 km/h (2 Bft) W-SW 238 0 min 0,000 mm 0,0 UV-I 9 W/m 0,8 C 2,2 C 11,3 km/h (2 Bft) 100,00 %
12.12.2017 15:50 2,6 C 3,9 C 88 % 1013,5 hPa 0,0 l/m 7,9 km/h (2 Bft) W-SW 243 0 min 0,000 mm 0,0 UV-I 8 W/m 0,8 C 1,2 C 14,5 km/h (3 Bft) 100,00 %
12.12.2017 15:52 2,6 C 3,9 C 88 % 1013,5 hPa 0,0 l/m 9,3 km/h (2 Bft) SW 234 0 min 0,000 mm 0,0 UV-I 7 W/m 0,8 C -0,0 C 12,9 km/h (3 Bft) 93,62 %
12.12.2017 15:54 2,6 C 3,9 C 88 % 1013,5 hPa 0,0 l/m 7,5 km/h (2 Bft) SW 223 0 min 0,000 mm 0,0 UV-I 7 W/m 0,8 C 1,5 C 11,3 km/h (2 Bft) 98,11 %
12.12.2017 15:56 2,6 C 3,9 C 88 % 1013,4 hPa 0,0 l/m 8,9 km/h (2 Bft) SW 216 0 min 0,000 mm 0,0 UV-I 7 W/m 0,8 C 0,3 C 14,5 km/h (3 Bft) 97,37 %
12.12.2017 15:58 2,5 C 3,9 C 88 % 1013,5 hPa 0,0 l/m 8,2 km/h (2 Bft) S-SW 212 0 min 0,000 mm 0,0 UV-I 7 W/m 0,7 C 0,8 C 12,9 km/h (3 Bft) 95,45 %
12.12.2017 16:00 2,5 C 3,9 C 88 % 1013,5 hPa 0,0 l/m 8,8 km/h (2 Bft) SW 219 0 min 0,025 mm 0,0 UV-I 6 W/m 0,7 C 0,3 C 14,5 km/h (3 Bft) 98,21 %
12.12.2017 16:02 2,4 C 3,9 C 89 % 1013,5 hPa 0,0 l/m 7,9 km/h (2 Bft) SW 223 0 min 0,000 mm 0,0 UV-I 5 W/m 0,8 C 1,0 C 12,9 km/h (3 Bft) 95,74 %
12.12.2017 16:04 2,4 C 3,9 C 88 % 1013,5 hPa 0,0 l/m 8,0 km/h (2 Bft) S-SW 211 0 min 0,000 mm 0,0 UV-I 5 W/m 0,6 C 0,9 C 12,9 km/h (3 Bft) 97,37 %
12.12.2017 16:06 2,4 C 3,9 C 88 % 1013,5 hPa 0,0 l/m 9,4 km/h (2 Bft) W-SW 237 0 min 0,000 mm 0,0 UV-I 5 W/m 0,6 C -0,3 C 14,5 km/h (3 Bft) 98,11 %
12.12.2017 16:08 2,4 C 3,9 C 88 % 1013,5 hPa 0,0 l/m 8,8 km/h (2 Bft) SW 224 0 min 0,000 mm 0,0 UV-I 4 W/m 0,6 C 0,2 C 14,5 km/h (3 Bft) 95,74 %
12.12.2017 16:10 2,4 C 3,9 C 88 % 1013,6 hPa 0,0 l/m 10,0 km/h (2 Bft) SW 227 0 min 0,000 mm 0,0 UV-I 0 W/m 0,6 C -0,8 C 16,1 km/h (3 Bft) 95,12 %
12.12.2017 16:12 2,4 C 3,9 C 88 % 1013,5 hPa 0,0 l/m 9,2 km/h (2 Bft) SW 231 0 min 0,000 mm 0,0 UV-I 0 W/m 0,6 C -0,2 C 12,9 km/h (3 Bft) 96,00 %
12.12.2017 16:14 2,4 C 3,9 C 88 % 1013,6 hPa 0,0 l/m 9,9 km/h (2 Bft) SW 230 0 min 0,000 mm 0,0 UV-I 0 W/m 0,6 C -0,7 C 14,5 km/h (3 Bft) 96,00 %
12.12.2017 16:16 2,4 C 3,9 C 88 % 1013,6 hPa 0,0 l/m 10,7 km/h (2 Bft) S-SW 213 0 min 0,000 mm 0,0 UV-I 0 W/m 0,6 C -1,3 C 14,5 km/h (3 Bft) 97,56 %
12.12.2017 16:18 2,4 C 3,9 C 88 % 1013,6 hPa 0,0 l/m 8,2 km/h (2 Bft) W-SW 239 0 min 0,000 mm 0,0 UV-I 0 W/m 0,6 C 0,7 C 12,9 km/h (3 Bft) 98,11 %
12.12.2017 16:20 2,4 C 3,9 C 88 % 1013,7 hPa 0,0 l/m 9,9 km/h (2 Bft) W-SW 240 0 min 0,000 mm 0,0 UV-I 0 W/m 0,6 C -0,7 C 14,5 km/h (3 Bft) 97,73 %
12.12.2017 16:22 2,4 C 3,9 C 88 % 1013,7 hPa 0,0 l/m 7,7 km/h (2 Bft) SW 228 0 min 0,000 mm 0,0 UV-I 0 W/m 0,6 C 1,1 C 12,9 km/h (3 Bft) 92,31 %
12.12.2017 16:24 2,4 C 3,9 C 88 % 1013,7 hPa 0,0 l/m 7,6 km/h (2 Bft) W-SW 248 0 min 0,000 mm 0,0 UV-I 0 W/m 0,6 C 1,2 C 11,3 km/h (2 Bft) 98,08 %
12.12.2017 16:26 2,4 C 3,9 C 88 % 1013,8 hPa 0,0 l/m 8,1 km/h (2 Bft) SW 232 0 min 0,000 mm 0,0 UV-I 0 W/m 0,6 C 0,8 C 12,9 km/h (3 Bft) 97,92 %
12.12.2017 16:28 2,4 C 3,9 C 88 % 1013,9 hPa 0,0 l/m 9,5 km/h (2 Bft) SW 231 0 min 0,000 mm 0,0 UV-I 0 W/m 0,6 C -0,4 C 12,9 km/h (3 Bft) 97,14 %
12.12.2017 16:30 2,4 C 3,9 C 88 % 1013,9 hPa 0,0 l/m 9,0 km/h (2 Bft) SW 233 0 min 0,000 mm 0,0 UV-I 0 W/m 0,6 C 0,0 C 11,3 km/h (2 Bft) 100,00 %
12.12.2017 16:32 2,3 C 3,9 C 88 % 1013,9 hPa 0,0 l/m 10,5 km/h (2 Bft) SW 225 0 min 0,000 mm 0,0 UV-I 0 W/m 0,5 C -1,3 C 14,5 km/h (3 Bft) 100,00 %
12.12.2017 16:34 2,3 C 3,9 C 88 % 1014,0 hPa 0,0 l/m 9,4 km/h (2 Bft) W-SW 237 0 min 0,000 mm 0,0 UV-I 0 W/m 0,5 C -0,4 C 12,9 km/h (3 Bft) 98,31 %
12.12.2017 16:36 2,3 C 3,9 C 88 % 1014,0 hPa 0,0 l/m 8,6 km/h (2 Bft) W-SW 244 0 min 0,000 mm 0,0 UV-I 0 W/m 0,5 C 0,2 C 12,9 km/h (3 Bft) 98,00 %
12.12.2017 16:38 2,3 C 3,9 C 88 % 1014,0 hPa 0,0 l/m 7,6 km/h (2 Bft) S-SW 213 0 min 0,000 mm 0,0 UV-I 0 W/m 0,5 C 1,1 C 11,3 km/h (2 Bft) 100,00 %
12.12.2017 16:40 2,3 C 3,9 C 88 % 1014,1 hPa 0,0 l/m 6,8 km/h (2 Bft) SW 215 0 min 0,000 mm 0,0 UV-I 0 W/m 0,5 C 1,9 C 11,3 km/h (2 Bft) 100,00 %
12.12.2017 16:42 2,3 C 3,9 C 88 % 1014,0 hPa 0,0 l/m 7,0 km/h (2 Bft) S-SW 205 0 min 0,000 mm 0,0 UV-I 0 W/m 0,5 C 1,7 C 11,3 km/h (2 Bft) 100,00 %
12.12.2017 16:44 2,3 C 3,9 C 88 % 1014,1 hPa 0,0 l/m 7,4 km/h (2 Bft) S-SW 211 0 min 0,000 mm 0,0 UV-I 0 W/m 0,5 C 1,3 C 11,3 km/h (2 Bft) 100,00 %
12.12.2017 16:46 2,3 C 3,9 C 88 % 1014,1 hPa 0,0 l/m 7,9 km/h (2 Bft) SW 228 0 min 0,000 mm 0,0 UV-I 0 W/m 0,5 C 0,9 C 11,3 km/h (2 Bft) 100,00 %
12.12.2017 16:48 2,3 C 3,9 C 88 % 1014,2 hPa 0,0 l/m 6,7 km/h (2 Bft) SW 215 0 min 0,000 mm 0,0 UV-I 0 W/m 0,5 C 2,0 C 12,9 km/h (3 Bft) 96,43 %
12.12.2017 16:50 2,3 C 3,9 C 88 % 1014,3 hPa 0,0 l/m 6,8 km/h (2 Bft) SW 214 0 min 0,000 mm 0,0 UV-I 0 W/m 0,5 C 1,9 C 9,7 km/h (2 Bft) 100,00 %
12.12.2017 16:52 2,4 C 3,9 C 88 % 1014,3 hPa 0,0 l/m 7,7 km/h (2 Bft) SW 229 0 min 0,000 mm 0,0 UV-I 0 W/m 0,6 C 1,1 C 11,3 km/h (2 Bft) 100,00 %
12.12.2017 16:54 2,4 C 3,9 C 88 % 1014,3 hPa 0,0 l/m 6,9 km/h (2 Bft) SW 221 0 min 0,000 mm 0,0 UV-I 0 W/m 0,6 C 1,9 C 9,7 km/h (2 Bft) 100,00 %
12.12.2017 16:56 2,3 C 3,9 C 88 % 1014,4 hPa 0,0 l/m 7,1 km/h (2 Bft) SW 232 0 min 0,000 mm 0,0 UV-I 0 W/m 0,5 C 1,6 C 11,3 km/h (2 Bft) 95,74 %
12.12.2017 16:58 2,3 C 3,9 C 88 % 1014,4 hPa 0,0 l/m 6,8 km/h (2 Bft) SW 227 0 min 0,000 mm 0,0 UV-I 0 W/m 0,5 C 1,9 C 9,7 km/h (2 Bft) 100,00 %
12.12.2017 17:00 2,3 C 3,9 C 88 % 1014,4 hPa 0,0 l/m 7,1 km/h (2 Bft) SW 234 0 min 0,000 mm 0,0 UV-I 0 W/m 0,5 C 1,6 C 12,9 km/h (3 Bft) 98,00 %
12.12.2017 17:02 2,3 C 3,9 C 88 % 1014,4 hPa 0,0 l/m 6,9 km/h (2 Bft) W-SW 238 0 min 0,000 mm 0,0 UV-I 0 W/m 0,5 C 1,8 C 11,3 km/h (2 Bft) 100,00 %
12.12.2017 17:04 2,3 C 3,9 C 88 % 1014,5 hPa 0,0 l/m 7,2 km/h (2 Bft) W-SW 252 0 min 0,000 mm 0,0 UV-I 0 W/m 0,5 C 1,5 C 12,9 km/h (3 Bft) 98,11 %
12.12.2017 17:06 2,3 C 3,9 C 88 % 1014,5 hPa 0,0 l/m 6,2 km/h (2 Bft) SW 226 0 min 0,000 mm 0,0 UV-I 0 W/m 0,5 C 2,3 C 9,7 km/h (2 Bft) 97,87 %
12.12.2017 17:08 2,3 C 3,9 C 87 % 1014,6 hPa 0,0 l/m 5,3 km/h (1 Bft) SW 232 0 min 0,000 mm 0,0 UV-I 0 W/m 0,4 C 2,3 C 8,0 km/h (2 Bft) 97,87 %
12.12.2017 17:10 2,3 C 3,9 C 87 % 1014,6 hPa 0,0 l/m 6,0 km/h (2 Bft) SW 233 0 min 0,000 mm 0,0 UV-I 0 W/m 0,4 C 2,3 C 9,7 km/h (2 Bft) 100,00 %
12.12.2017 17:12 2,3 C 3,9 C 87 % 1014,7 hPa 0,0 l/m 6,1 km/h (2 Bft) S-SW 213 0 min 0,000 mm 0,0 UV-I 0 W/m 0,4 C 2,3 C 8,0 km/h (2 Bft) 100,00 %
12.12.2017 17:14 2,3 C 3,9 C 87 % 1014,7 hPa 0,0 l/m 6,4 km/h (2 Bft) SW 220 0 min 0,000 mm 0,0 UV-I 0 W/m 0,4 C 2,3 C 9,7 km/h (2 Bft) 100,00 %
12.12.2017 17:16 2,3 C 3,9 C 87 % 1014,7 hPa 0,0 l/m 5,9 km/h (2 Bft) S-SW 213 0 min 0,000 mm 0,0 UV-I 0 W/m 0,4 C 2,3 C 8,0 km/h (2 Bft) 98,00 %
12.12.2017 17:18 2,3 C 3,9 C 87 % 1014,8 hPa 0,0 l/m 5,6 km/h (1 Bft) S-SW 212 0 min 0,000 mm 0,0 UV-I 0 W/m 0,4 C 2,3 C 8,0 km/h (2 Bft) 97,56 %
12.12.2017 17:20 2,3 C 3,9 C 87 % 1014,8 hPa 0,0 l/m 5,9 km/h (2 Bft) SW 215 0 min 0,000 mm 0,0 UV-I 0 W/m 0,4 C 2,3 C 9,7 km/h (2 Bft) 100,00 %
12.12.2017 17:22 2,3 C 3,9 C 87 % 1014,8 hPa 0,0 l/m 7,0 km/h (2 Bft) SW 215 0 min 0,000 mm 0,0 UV-I 0 W/m 0,4 C 1,7 C 12,9 km/h (3 Bft) 100,00 %
12.12.2017 17:24 2,3 C 3,9 C 87 % 1014,8 hPa 0,0 l/m 10,6 km/h (2 Bft) W-SW 240 0 min 0,000 mm 0,0 UV-I 0 W/m 0,4 C -1,4 C 19,3 km/h (3 Bft) 100,00 %
12.12.2017 17:26 2,3 C 3,9 C 87 % 1014,9 hPa 0,0 l/m 8,7 km/h (2 Bft) W-SW 251 0 min 0,000 mm 0,0 UV-I 0 W/m 0,4 C 0,1 C 14,5 km/h (3 Bft) 97,56 %
12.12.2017 17:28 2,3 C 3,9 C 87 % 1014,9 hPa 0,0 l/m 9,9 km/h (2 Bft) W-SW 240 0 min 0,000 mm 0,0 UV-I 0 W/m 0,4 C -0,8 C 12,9 km/h (3 Bft) 100,00 %
12.12.2017 17:30 2,3 C 3,9 C 87 % 1015,0 hPa 0,0 l/m 11,3 km/h (2 Bft) SW 217 0 min 0,000 mm 0,0 UV-I 0 W/m 0,4 C -1,9 C 14,5 km/h (3 Bft) 96,55 %
12.12.2017 17:32 2,3 C 3,9 C 87 % 1015,0 hPa 0,0 l/m 10,5 km/h (2 Bft) W 259 0 min 0,000 mm 0,0 UV-I 0 W/m 0,4 C -1,3 C 14,5 km/h (3 Bft) 100,00 %
12.12.2017 17:34 2,3 C 3,9 C 87 % 1015,0 hPa 0,0 l/m 10,0 km/h (2 Bft) SW 226 0 min 0,000 mm 0,0 UV-I 0 W/m 0,4 C -0,9 C 14,5 km/h (3 Bft) 100,00 %
12.12.2017 17:36 2,3 C 3,9 C 87 % 1015,1 hPa 0,0 l/m 9,9 km/h (2 Bft) W-SW 248 0 min 0,000 mm 0,0 UV-I 0 W/m 0,4 C -0,8 C 14,5 km/h (3 Bft) 98,00 %
12.12.2017 17:38 2,3 C 3,9 C 87 % 1015,1 hPa 0,0 l/m 9,8 km/h (2 Bft) W-SW 255 0 min 0,000 mm 0,0 UV-I 0 W/m 0,4 C -0,8 C 14,5 km/h (3 Bft) 94,74 %
12.12.2017 17:40 2,3 C 3,9 C 88 % 1015,1 hPa 0,0 l/m 8,6 km/h (2 Bft) SW 222 0 min 0,000 mm 0,0 UV-I 0 W/m 0,5 C 0,2 C 12,9 km/h (3 Bft) 100,00 %
12.12.2017 17:42 2,3 C 3,9 C 88 % 1015,1 hPa 0,0 l/m 13,2 km/h (3 Bft) W-SW 239 0 min 0,000 mm 0,0 UV-I 0 W/m 0,5 C -3,1 C 20,9 km/h (4 Bft) 97,62 %
12.12.2017 17:44 2,3 C 3,9 C 88 % 1015,1 hPa 0,0 l/m 11,4 km/h (2 Bft) SW 226 0 min 0,000 mm 0,0 UV-I 0 W/m 0,5 C -1,9 C 19,3 km/h (3 Bft) 98,18 %
12.12.2017 17:46 2,3 C 3,9 C 87 % 1015,2 hPa 0,0 l/m 14,5 km/h (3 Bft) W-SW 248 0 min 0,000 mm 0,0 UV-I 0 W/m 0,4 C -3,9 C 20,9 km/h (4 Bft) 95,24 %
12.12.2017 17:48 2,3 C 3,9 C 87 % 1015,1 hPa 0,0 l/m 8,5 km/h (2 Bft) SW 228 0 min 0,000 mm 0,0 UV-I 0 W/m 0,4 C 0,3 C 14,5 km/h (3 Bft) 98,00 %
12.12.2017 17:50 2,3 C 3,9 C 88 % 1015,1 hPa 0,0 l/m 11,2 km/h (2 Bft) SW 220 0 min 0,000 mm 0,0 UV-I 0 W/m 0,5 C -1,8 C 14,5 km/h (3 Bft) 96,00 %
12.12.2017 17:52 2,3 C 3,9 C 88 % 1015,1 hPa 0,0 l/m 11,9 km/h (2 Bft) SW 233 0 min 0,000 mm 0,0 UV-I 0 W/m 0,5 C -2,3 C 16,1 km/h (3 Bft) 97,37 %
12.12.2017 17:54 2,3 C 3,9 C 88 % 1015,2 hPa 0,0 l/m 9,2 km/h (2 Bft) SW 229 0 min 0,000 mm 0,0 UV-I 0 W/m 0,5 C -0,3 C 14,5 km/h (3 Bft) 97,73 %
12.12.2017 17:56 2,2 C 3,9 C 88 % 1015,2 hPa 0,0 l/m 13,5 km/h (3 Bft) W-SW 255 0 min 0,000 mm 0,0 UV-I 0 W/m 0,4 C -3,4 C 20,9 km/h (4 Bft) 98,21 %
12.12.2017 17:58 2,2 C 3,9 C 89 % 1015,1 hPa 0,0 l/m 9,8 km/h (2 Bft) W-SW 248 0 min 0,000 mm 0,0 UV-I 0 W/m 0,6 C -0,9 C 12,9 km/h (3 Bft) 95,12 %
12.12.2017 18:00 2,2 C 3,9 C 89 % 1015,1 hPa 0,0 l/m 10,5 km/h (2 Bft) SW 214 0 min 0,000 mm 0,0 UV-I 0 W/m 0,6 C -1,4 C 14,5 km/h (3 Bft) 87,50 %
12.12.2017 18:02 2,2 C 3,9 C 89 % 1015,2 hPa 0,0 l/m 10,4 km/h (2 Bft) W-SW 242 0 min 0,000 mm 0,0 UV-I 0 W/m 0,6 C -1,3 C 14,5 km/h (3 Bft) 92,00 %
12.12.2017 18:04 2,2 C 3,9 C 89 % 1015,3 hPa 0,0 l/m 7,7 km/h (2 Bft) SW 227 0 min 0,000 mm 0,0 UV-I 0 W/m 0,6 C 0,9 C 14,5 km/h (3 Bft) 94,29 %
12.12.2017 18:06 2,2 C 3,9 C 89 % 1015,3 hPa 0,0 l/m 7,3 km/h (2 Bft) SW 221 0 min 0,000 mm 0,0 UV-I 0 W/m 0,6 C 1,3 C 11,3 km/h (2 Bft) 96,23 %
12.12.2017 18:08 2,1 C 3,9 C 90 % 1015,3 hPa 0,0 l/m 8,6 km/h (2 Bft) SW 232 0 min 0,000 mm 0,0 UV-I 0 W/m 0,6 C 0,0 C 12,9 km/h (3 Bft) 88,46 %
12.12.2017 18:10 2,1 C 3,9 C 90 % 1015,4 hPa 0,0 l/m 9,7 km/h (2 Bft) W-SW 237 0 min 0,000 mm 0,0 UV-I 0 W/m 0,6 C -0,9 C 12,9 km/h (3 Bft) 95,77 %
12.12.2017 18:12 2,1 C 3,9 C 90 % 1015,4 hPa 0,0 l/m 7,2 km/h (2 Bft) SW 216 0 min 0,000 mm 0,0 UV-I 0 W/m 0,6 C 1,3 C 12,9 km/h (3 Bft) 95,45 %
12.12.2017 18:14 2,1 C 3,9 C 90 % 1015,4 hPa 0,0 l/m 7,8 km/h (2 Bft) SW 215 0 min 0,000 mm 0,0 UV-I 0 W/m 0,6 C 0,7 C 14,5 km/h (3 Bft) 95,12 %
12.12.2017 18:16 2,1 C 3,9 C 90 % 1015,5 hPa 0,0 l/m 10,1 km/h (2 Bft) SW 232 0 min 0,000 mm 0,0 UV-I 0 W/m 0,6 C -1,2 C 16,1 km/h (3 Bft) 96,23 %
12.12.2017 18:18 2,1 C 3,9 C 90 % 1015,5 hPa 0,0 l/m 9,0 km/h (2 Bft) SW 235 0 min 0,000 mm 0,0 UV-I 0 W/m 0,6 C -0,3 C 12,9 km/h (3 Bft) 95,74 %
12.12.2017 18:20 2,1 C 3,9 C 90 % 1015,5 hPa 0,0 l/m 7,6 km/h (2 Bft) SW 229 0 min 0,000 mm 0,0 UV-I 0 W/m 0,6 C 0,9 C 12,9 km/h (3 Bft) 95,12 %
12.12.2017 18:22 2,1 C 3,9 C 90 % 1015,5 hPa 0,0 l/m 8,0 km/h (2 Bft) W-SW 242 0 min 0,000 mm 0,0 UV-I 0 W/m 0,6 C 0,6 C 12,9 km/h (3 Bft) 92,86 %
12.12.2017 18:24 2,1 C 3,9 C 90 % 1015,5 hPa 0,0 l/m 7,7 km/h (2 Bft) SW 231 0 min 0,000 mm 0,0 UV-I 0 W/m 0,6 C 0,8 C 12,9 km/h (3 Bft) 95,12 %
12.12.2017 18:26 2,0 C 3,9 C 90 % 1015,6 hPa 0,0 l/m 9,9 km/h (2 Bft) SW 232 0 min 0,000 mm 0,0 UV-I 0 W/m 0,5 C -1,2 C 14,5 km/h (3 Bft) 92,45 %
12.12.2017 18:28 2,0 C 3,9 C 90 % 1015,7 hPa 0,0 l/m 10,2 km/h (2 Bft) SW 236 0 min 0,000 mm 0,0 UV-I 0 W/m 0,5 C -1,4 C 16,1 km/h (3 Bft) 95,74 %
12.12.2017 18:30 2,0 C 3,9 C 91 % 1015,7 hPa 0,0 l/m 8,6 km/h (2 Bft) W 261 0 min 0,000 mm 0,0 UV-I 0 W/m 0,7 C -0,1 C 11,3 km/h (2 Bft) 94,87 %
12.12.2017 18:32 1,9 C 3,9 C 91 % 1015,8 hPa 0,0 l/m 7,6 km/h (2 Bft) SW 227 0 min 0,000 mm 0,0 UV-I 0 W/m 0,6 C 0,7 C 12,9 km/h (3 Bft) 96,23 %
12.12.2017 18:34 1,9 C 3,9 C 91 % 1015,8 hPa 0,0 l/m 8,5 km/h (2 Bft) W-SW 244 0 min 0,000 mm 0,0 UV-I 0 W/m 0,6 C -0,1 C 14,5 km/h (3 Bft) 93,18 %
12.12.2017 18:36 1,9 C 3,9 C 91 % 1015,9 hPa 0,0 l/m 8,9 km/h (2 Bft) W-SW 247 0 min 0,000 mm 0,0 UV-I 0 W/m 0,6 C -0,5 C 14,5 km/h (3 Bft) 97,73 %
12.12.2017 18:38 1,8 C 3,9 C 91 % 1015,9 hPa 0,2 l/m 9,7 km/h (2 Bft) SW 235 0 min 0,000 mm 0,0 UV-I 0 W/m 0,5 C -1,2 C 14,5 km/h (3 Bft) 98,11 %
12.12.2017 18:40 1,8 C 3,9 C 91 % 1015,9 hPa 0,0 l/m 9,7 km/h (2 Bft) S-SW 209 0 min 0,000 mm 0,0 UV-I 0 W/m 0,5 C -1,2 C 14,5 km/h (3 Bft) 94,74 %
12.12.2017 18:42 1,8 C 3,9 C 91 % 1015,9 hPa 0,0 l/m 11,8 km/h (2 Bft) W-SW 249 0 min 0,000 mm 0,0 UV-I 0 W/m 0,5 C -2,8 C 17,7 km/h (3 Bft) 96,43 %
12.12.2017 18:44 1,8 C 3,9 C 91 % 1016,0 hPa 0,0 l/m 11,0 km/h (2 Bft) SW 219 0 min 0,000 mm 0,0 UV-I 0 W/m 0,5 C -2,2 C 17,7 km/h (3 Bft) 97,56 %
12.12.2017 18:46 1,8 C 3,9 C 91 % 1016,1 hPa 0,0 l/m 9,9 km/h (2 Bft) S-SW 211 0 min 0,000 mm 0,0 UV-I 0 W/m 0,5 C -1,4 C 17,7 km/h (3 Bft) 98,11 %
12.12.2017 18:48 1,8 C 3,9 C 91 % 1016,1 hPa 0,0 l/m 9,0 km/h (2 Bft) SW 223 0 min 0,000 mm 0,0 UV-I 0 W/m 0,5 C -0,6 C 12,9 km/h (3 Bft) 94,74 %
12.12.2017 18:50 1,8 C 3,9 C 92 % 1016,1 hPa 0,0 l/m 10,2 km/h (2 Bft) W-SW 250 0 min 0,000 mm 0,0 UV-I 0 W/m 0,6 C -1,6 C 16,1 km/h (3 Bft) 97,87 %
12.12.2017 18:52 1,8 C 3,9 C 92 % 1016,0 hPa 0,0 l/m 12,0 km/h (2 Bft) W-SW 243 0 min 0,000 mm 0,0 UV-I 0 W/m 0,6 C -2,9 C 20,9 km/h (4 Bft) 97,87 %
12.12.2017 18:54 1,8 C 3,9 C 92 % 1016,1 hPa 0,0 l/m 11,3 km/h (2 Bft) SW 235 0 min 0,000 mm 0,0 UV-I 0 W/m 0,6 C -2,4 C 17,7 km/h (3 Bft) 98,00 %
12.12.2017 18:56 1,8 C 3,9 C 92 % 1016,2 hPa 0,0 l/m 11,3 km/h (2 Bft) SW 234 0 min 0,000 mm 0,0 UV-I 0 W/m 0,6 C -2,4 C 16,1 km/h (3 Bft) 100,00 %
12.12.2017 18:58 1,8 C 3,9 C 92 % 1016,3 hPa 0,0 l/m 11,6 km/h (2 Bft) W-SW 237 0 min 0,000 mm 0,0 UV-I 0 W/m 0,6 C -2,7 C 17,7 km/h (3 Bft) 100,00 %
12.12.2017 19:00 1,8 C 3,9 C 92 % 1016,3 hPa 0,0 l/m 11,0 km/h (2 Bft) SW 225 0 min 0,000 mm 0,0 UV-I 0 W/m 0,6 C -2,2 C 19,3 km/h (3 Bft) 100,00 %
12.12.2017 19:02 1,8 C 3,9 C 92 % 1016,3 hPa 0,0 l/m 11,2 km/h (2 Bft) W-SW 248 0 min 0,000 mm 0,0 UV-I 0 W/m 0,6 C -2,4 C 17,7 km/h (3 Bft) 100,00 %
12.12.2017 19:04 1,8 C 3,9 C 92 % 1016,4 hPa 0,0 l/m 10,8 km/h (2 Bft) SW 229 0 min 0,000 mm 0,0 UV-I 0 W/m 0,6 C -2,1 C 16,1 km/h (3 Bft) 100,00 %
12.12.2017 19:06 1,8 C 3,9 C 92 % 1016,4 hPa 0,0 l/m 11,6 km/h (2 Bft) SW 228 0 min 0,000 mm 0,0 UV-I 0 W/m 0,6 C -2,7 C 17,7 km/h (3 Bft) 100,00 %
12.12.2017 19:08 1,8 C 3,9 C 92 % 1016,4 hPa 0,0 l/m 10,4 km/h (2 Bft) SW 236 0 min 0,000 mm 0,0 UV-I 0 W/m 0,6 C -1,8 C 16,1 km/h (3 Bft) 98,00 %
12.12.2017 19:10 1,7 C 3,9 C 92 % 1016,4 hPa 0,0 l/m 11,5 km/h (2 Bft) W-SW 246 0 min 0,000 mm 0,0 UV-I 0 W/m 0,5 C -2,7 C 17,7 km/h (3 Bft) 97,73 %
12.12.2017 19:12 1,7 C 3,9 C 92 % 1016,4 hPa 0,0 l/m 9,5 km/h (2 Bft) S-SW 202 0 min 0,000 mm 0,0 UV-I 0 W/m 0,5 C -1,2 C 14,5 km/h (3 Bft) 100,00 %
12.12.2017 19:14 1,7 C 3,9 C 92 % 1016,4 hPa 0,0 l/m 8,9 km/h (2 Bft) SW 223 0 min 0,000 mm 0,0 UV-I 0 W/m 0,5 C -0,7 C 12,9 km/h (3 Bft) 100,00 %
12.12.2017 19:16 1,7 C 3,9 C 93 % 1016,4 hPa 0,0 l/m 6,7 km/h (2 Bft) SW 236 0 min 0,000 mm 0,0 UV-I 0 W/m 0,7 C 1,4 C 11,3 km/h (2 Bft) 100,00 %
12.12.2017 19:18 1,7 C 3,9 C 93 % 1016,5 hPa 0,0 l/m 8,3 km/h (2 Bft) SW 234 0 min 0,000 mm 0,0 UV-I 0 W/m 0,7 C -0,1 C 12,9 km/h (3 Bft) 98,00 %
12.12.2017 19:20 1,7 C 3,9 C 93 % 1016,4 hPa 0,0 l/m 10,0 km/h (2 Bft) SW 214 0 min 0,000 mm 0,0 UV-I 0 W/m 0,7 C -1,6 C 17,7 km/h (3 Bft) 100,00 %
12.12.2017 19:22 1,7 C 3,9 C 93 % 1016,5 hPa 0,0 l/m 7,8 km/h (2 Bft) SW 215 0 min 0,000 mm 0,0 UV-I 0 W/m 0,7 C 0,3 C 12,9 km/h (3 Bft) 100,00 %
12.12.2017 19:24 1,7 C 3,9 C 93 % 1016,6 hPa 0,0 l/m 7,6 km/h (2 Bft) W-SW 239 0 min 0,000 mm 0,0 UV-I 0 W/m 0,7 C 0,5 C 12,9 km/h (3 Bft) 100,00 %
12.12.2017 19:26 1,7 C 3,9 C 93 % 1016,6 hPa 0,0 l/m 7,8 km/h (2 Bft) SW 228 0 min 0,000 mm 0,0 UV-I 0 W/m 0,7 C 0,3 C 12,9 km/h (3 Bft) 100,00 %
12.12.2017 19:28 1,7 C 3,9 C 93 % 1016,6 hPa 0,0 l/m 8,0 km/h (2 Bft) SW 215 0 min 0,000 mm 0,0 UV-I 0 W/m 0,7 C 0,1 C 12,9 km/h (3 Bft) 100,00 %
12.12.2017 19:30 1,7 C 3,9 C 93 % 1016,7 hPa 0,0 l/m 8,5 km/h (2 Bft) SW 218 0 min 0,000 mm 0,0 UV-I 0 W/m 0,7 C -0,3 C 12,9 km/h (3 Bft) 100,00 %
12.12.2017 19:32 1,7 C 3,9 C 93 % 1016,7 hPa 0,0 l/m 9,0 km/h (2 Bft) S-SW 194 0 min 0,000 mm 0,0 UV-I 0 W/m 0,7 C -0,8 C 14,5 km/h (3 Bft) 94,44 %
12.12.2017 19:34 1,7 C 3,9 C 93 % 1016,7 hPa 0,2 l/m 7,2 km/h (2 Bft) SW 215 0 min 0,000 mm 0,0 UV-I 0 W/m 0,7 C 0,9 C 12,9 km/h (3 Bft) 100,00 %
12.12.2017 19:36 1,7 C 3,9 C 93 % 1016,7 hPa 0,0 l/m 7,8 km/h (2 Bft) S 184 0 min 0,000 mm 0,0 UV-I 0 W/m 0,7 C 0,3 C 12,9 km/h (3 Bft) 100,00 %
12.12.2017 19:38 1,7 C 3,9 C 93 % 1016,7 hPa 0,0 l/m 9,2 km/h (2 Bft) S-SW 207 0 min 0,000 mm 0,0 UV-I 0 W/m 0,7 C -0,9 C 14,5 km/h (3 Bft) 100,00 %
12.12.2017 19:40 1,7 C 3,9 C 93 % 1016,7 hPa 0,0 l/m 9,1 km/h (2 Bft) S-SW 201 0 min 0,000 mm 0,0 UV-I 0 W/m 0,7 C -0,8 C 11,3 km/h (2 Bft) 98,11 %
12.12.2017 19:42 1,7 C 3,9 C 93 % 1016,7 hPa 0,0 l/m 9,3 km/h (2 Bft) SW 217 0 min 0,000 mm 0,0 UV-I 0 W/m 0,7 C -1,0 C 12,9 km/h (3 Bft) 100,00 %
12.12.2017 19:44 1,6 C 3,9 C 93 % 1016,8 hPa 0,0 l/m 10,8 km/h (2 Bft) S-SW 196 0 min 0,000 mm 0,0 UV-I 0 W/m 0,6 C -2,3 C 17,7 km/h (3 Bft) 100,00 %
12.12.2017 19:46 1,6 C 3,9 C 93 % 1016,8 hPa 0,0 l/m 9,3 km/h (2 Bft) S-SW 200 0 min 0,000 mm 0,0 UV-I 0 W/m 0,6 C -1,1 C 14,5 km/h (3 Bft) 100,00 %
12.12.2017 19:48 1,6 C 3,9 C 94 % 1016,8 hPa 0,0 l/m 8,2 km/h (2 Bft) SW 216 0 min 0,000 mm 0,0 UV-I 0 W/m 0,7 C -0,2 C 11,3 km/h (2 Bft) 100,00 %
12.12.2017 19:50 1,6 C 3,9 C 94 % 1016,8 hPa 0,0 l/m 7,8 km/h (2 Bft) S-SW 207 0 min 0,000 mm 0,0 UV-I 0 W/m 0,7 C 0,2 C 11,3 km/h (2 Bft) 97,87 %
12.12.2017 19:52 1,6 C 3,9 C 94 % 1016,8 hPa 0,0 l/m 6,2 km/h (2 Bft) S-SW 213 0 min 0,000 mm 0,0 UV-I 0 W/m 0,7 C 1,6 C 8,0 km/h (2 Bft) 100,00 %
12.12.2017 19:54 1,6 C 3,9 C 94 % 1016,8 hPa 0,0 l/m 7,6 km/h (2 Bft) S-SW 198 0 min 0,000 mm 0,0 UV-I 0 W/m 0,7 C 0,4 C 12,9 km/h (3 Bft) 97,87 %
12.12.2017 19:56 1,6 C 3,9 C 94 % 1016,8 hPa 0,0 l/m 7,3 km/h (2 Bft) S-SW 210 0 min 0,000 mm 0,0 UV-I 0 W/m 0,7 C 0,7 C 12,9 km/h (3 Bft) 97,87 %
12.12.2017 19:58 1,6 C 3,9 C 94 % 1016,9 hPa 0,0 l/m 8,4 km/h (2 Bft) SW 225 0 min 0,000 mm 0,0 UV-I 0 W/m 0,7 C -0,3 C 14,5 km/h (3 Bft) 100,00 %
12.12.2017 20:00 1,6 C 3,9 C 94 % 1016,8 hPa 0,0 l/m 7,4 km/h (2 Bft) S-SO 156 0 min 0,000 mm 0,0 UV-I 0 W/m 0,7 C 0,6 C 11,3 km/h (2 Bft) 100,00 %
12.12.2017 20:02 1,6 C 3,9 C 94 % 1016,8 hPa 0,0 l/m 9,7 km/h (2 Bft) SW 219 0 min 0,000 mm 0,0 UV-I 0 W/m 0,7 C -1,4 C 14,5 km/h (3 Bft) 97,87 %
12.12.2017 20:04 1,6 C 3,9 C 94 % 1016,9 hPa 0,0 l/m 9,2 km/h (2 Bft) S 179 0 min 0,000 mm 0,0 UV-I 0 W/m 0,7 C -1,0 C 16,1 km/h (3 Bft) 98,00 %
12.12.2017 20:06 1,6 C 3,9 C 94 % 1016,8 hPa 0,0 l/m 8,3 km/h (2 Bft) S 184 0 min 0,000 mm 0,0 UV-I 0 W/m 0,7 C -0,2 C 14,5 km/h (3 Bft) 100,00 %
12.12.2017 20:08 1,6 C 3,9 C 94 % 1016,8 hPa 0,0 l/m 7,1 km/h (2 Bft) S-SW 204 0 min 0,000 mm 0,0 UV-I 0 W/m 0,7 C 0,9 C 16,1 km/h (3 Bft) 95,74 %
12.12.2017 20:10 1,6 C 3,9 C 94 % 1016,9 hPa 0,0 l/m 7,9 km/h (2 Bft) SW 217 0 min 0,000 mm 0,0 UV-I 0 W/m 0,7 C 0,1 C 16,1 km/h (3 Bft) 95,74 %
12.12.2017 20:12 1,6 C 3,9 C 94 % 1016,9 hPa 0,0 l/m 8,8 km/h (2 Bft) S-SW 205 0 min 0,000 mm 0,0 UV-I 0 W/m 0,7 C -0,7 C 14,5 km/h (3 Bft) 95,74 %
12.12.2017 20:14 1,6 C 3,9 C 94 % 1016,9 hPa 0,0 l/m 9,1 km/h (2 Bft) S 171 0 min 0,000 mm 0,0 UV-I 0 W/m 0,7 C -0,9 C 14,5 km/h (3 Bft) 97,87 %
12.12.2017 20:16 1,6 C 3,9 C 94 % 1016,9 hPa 0,0 l/m 7,2 km/h (2 Bft) S-SW 213 0 min 0,000 mm 0,0 UV-I 0 W/m 0,7 C 0,8 C 12,9 km/h (3 Bft) 97,87 %
12.12.2017 20:18 1,6 C 3,9 C 94 % 1016,9 hPa 0,0 l/m 7,7 km/h (2 Bft) S-SW 207 0 min 0,000 mm 0,0 UV-I 0 W/m 0,7 C 0,3 C 14,5 km/h (3 Bft) 96,00 %
12.12.2017 20:20 1,6 C 3,9 C 94 % 1017,0 hPa 0,0 l/m 7,6 km/h (2 Bft) SW 221 0 min 0,000 mm 0,0 UV-I 0 W/m 0,7 C 0,4 C 11,3 km/h (2 Bft) 97,87 %
12.12.2017 20:22 1,6 C 3,9 C 94 % 1017,0 hPa 0,0 l/m 8,2 km/h (2 Bft) S-SW 212 0 min 0,000 mm 0,0 UV-I 0 W/m 0,7 C -0,2 C 14,5 km/h (3 Bft) 97,87 %
12.12.2017 20:24 1,6 C 3,9 C 94 % 1017,0 hPa 0,0 l/m 9,9 km/h (2 Bft) S 184 0 min 0,000 mm 0,0 UV-I 0 W/m 0,7 C -1,6 C 14,5 km/h (3 Bft) 97,87 %
12.12.2017 20:26 1,6 C 3,9 C 94 % 1017,0 hPa 0,0 l/m 11,1 km/h (2 Bft) S-SW 211 0 min 0,000 mm 0,0 UV-I 0 W/m 0,7 C -2,5 C 17,7 km/h (3 Bft) 95,83 %
12.12.2017 20:28 1,6 C 3,9 C 94 % 1016,9 hPa 0,0 l/m 9,2 km/h (2 Bft) SW 221 0 min 0,000 mm 0,0 UV-I 0 W/m 0,7 C -1,0 C 14,5 km/h (3 Bft) 93,62 %
12.12.2017 20:30 1,6 C 3,9 C 94 % 1017,0 hPa 0,0 l/m 10,4 km/h (2 Bft) S-SW 205 0 min 0,000 mm 0,0 UV-I 0 W/m 0,7 C -2,0 C 14,5 km/h (3 Bft) 93,62 %
12.12.2017 20:32 1,6 C 3,9 C 93 % 1017,0 hPa 0,0 l/m 9,1 km/h (2 Bft) SW 218 0 min 0,000 mm 0,0 UV-I 0 W/m 0,6 C -0,9 C 14,5 km/h (3 Bft) 94,29 %
12.12.2017 20:34 1,6 C 3,9 C 93 % 1017,0 hPa 0,0 l/m 8,9 km/h (2 Bft) S 183 0 min 0,000 mm 0,0 UV-I 0 W/m 0,6 C -0,8 C 14,5 km/h (3 Bft) 96,00 %
12.12.2017 20:36 1,6 C 3,9 C 93 % 1017,0 hPa 0,0 l/m 11,7 km/h (2 Bft) S-SO 161 0 min 0,000 mm 0,0 UV-I 0 W/m 0,6 C -3,0 C 17,7 km/h (3 Bft) 93,62 %
12.12.2017 20:38 1,6 C 3,9 C 93 % 1016,9 hPa 0,0 l/m 10,0 km/h (2 Bft) S-SW 200 0 min 0,000 mm 0,0 UV-I 0 W/m 0,6 C -1,7 C 17,7 km/h (3 Bft) 97,87 %
12.12.2017 20:40 1,7 C 3,9 C 93 % 1017,0 hPa 0,0 l/m 9,6 km/h (2 Bft) S-SW 203 0 min 0,000 mm 0,0 UV-I 0 W/m 0,7 C -1,3 C 16,1 km/h (3 Bft) 97,87 %
12.12.2017 20:42 1,7 C 3,9 C 93 % 1017,0 hPa 0,0 l/m 11,4 km/h (2 Bft) SW 226 0 min 0,000 mm 0,0 UV-I 0 W/m 0,7 C -2,6 C 17,7 km/h (3 Bft) 97,87 %
12.12.2017 20:44 1,7 C 3,9 C 93 % 1017,0 hPa 0,0 l/m 11,0 km/h (2 Bft) S 173 0 min 0,000 mm 0,0 UV-I 0 W/m 0,7 C -2,3 C 14,5 km/h (3 Bft) 100,00 %
12.12.2017 20:46 1,7 C 3,9 C 93 % 1017,0 hPa 0,0 l/m 9,2 km/h (2 Bft) S-SW 193 0 min 0,000 mm 0,0 UV-I 0 W/m 0,7 C -0,9 C 14,5 km/h (3 Bft) 98,00 %
12.12.2017 20:48 1,7 C 3,9 C 92 % 1017,0 hPa 0,0 l/m 9,2 km/h (2 Bft) S-SO 147 0 min 0,000 mm 0,0 UV-I 0 W/m 0,5 C -0,9 C 16,1 km/h (3 Bft) 100,00 %
12.12.2017 20:50 1,7 C 3,9 C 92 % 1017,0 hPa 0,0 l/m 8,3 km/h (2 Bft) S-SO 160 0 min 0,000 mm 0,0 UV-I 0 W/m 0,5 C -0,1 C 16,1 km/h (3 Bft) 100,00 %
12.12.2017 20:52 1,6 C 3,9 C 93 % 1017,0 hPa 0,0 l/m 8,6 km/h (2 Bft) S 183 0 min 0,000 mm 0,0 UV-I 0 W/m 0,6 C -0,5 C 14,5 km/h (3 Bft) 100,00 %
12.12.2017 20:54 1,6 C 3,9 C 93 % 1016,9 hPa 0,0 l/m 8,0 km/h (2 Bft) S 188 0 min 0,000 mm 0,0 UV-I 0 W/m 0,6 C 0,0 C 12,9 km/h (3 Bft) 97,87 %
12.12.2017 20:56 1,6 C 3,9 C 93 % 1016,9 hPa 0,0 l/m 8,6 km/h (2 Bft) S-SW 198 0 min 0,000 mm 0,0 UV-I 0 W/m 0,6 C -0,5 C 12,9 km/h (3 Bft) 100,00 %
12.12.2017 20:58 1,6 C 3,9 C 93 % 1016,9 hPa 0,0 l/m 7,4 km/h (2 Bft) S-SW 198 0 min 0,000 mm 0,0 UV-I 0 W/m 0,6 C 0,6 C 12,9 km/h (3 Bft) 97,87 %
12.12.2017 21:00 1,5 C 3,9 C 93 % 1017,0 hPa 0,0 l/m 11,0 km/h (2 Bft) S-SW 198 0 min 0,000 mm 0,0 UV-I 0 W/m 0,5 C -2,6 C 16,1 km/h (3 Bft) 100,00 %
12.12.2017 21:02 1,5 C 3,9 C 93 % 1017,0 hPa 0,0 l/m 10,4 km/h (2 Bft) S-SW 210 0 min 0,000 mm 0,0 UV-I 0 W/m 0,5 C -2,1 C 16,1 km/h (3 Bft) 100,00 %
12.12.2017 21:04 1,5 C 3,9 C 93 % 1017,0 hPa 0,0 l/m 7,8 km/h (2 Bft) S-SW 207 0 min 0,000 mm 0,0 UV-I 0 W/m 0,5 C 0,1 C 12,9 km/h (3 Bft) 100,00 %
12.12.2017 21:06 1,4 C 3,9 C 93 % 1016,9 hPa 0,0 l/m 9,3 km/h (2 Bft) SW 219 0 min 0,000 mm 0,0 UV-I 0 W/m 0,4 C -1,3 C 14,5 km/h (3 Bft) 97,92 %
12.12.2017 21:08 1,4 C 3,9 C 94 % 1017,0 hPa 0,0 l/m 10,9 km/h (2 Bft) S-SW 193 0 min 0,000 mm 0,0 UV-I 0 W/m 0,5 C -2,6 C 14,5 km/h (3 Bft) 100,00 %
12.12.2017 21:10 1,4 C 3,9 C 94 % 1017,1 hPa 0,0 l/m 10,6 km/h (2 Bft) S-SW 197 0 min 0,000 mm 0,0 UV-I 0 W/m 0,5 C -2,4 C 17,7 km/h (3 Bft) 97,87 %
12.12.2017 21:12 1,4 C 3,9 C 94 % 1017,1 hPa 0,0 l/m 9,8 km/h (2 Bft) SW 220 0 min 0,000 mm 0,0 UV-I 0 W/m 0,5 C -1,7 C 16,1 km/h (3 Bft) 100,00 %
12.12.2017 21:14 1,4 C 3,9 C 94 % 1017,1 hPa 0,0 l/m 9,2 km/h (2 Bft) S 188 0 min 0,000 mm 0,0 UV-I 0 W/m 0,5 C -1,2 C 14,5 km/h (3 Bft) 100,00 %
12.12.2017 21:16 1,4 C 3,9 C 94 % 1017,0 hPa 0,0 l/m 10,4 km/h (2 Bft) S-SW 196 0 min 0,000 mm 0,0 UV-I 0 W/m 0,5 C -2,2 C 14,5 km/h (3 Bft) 100,00 %
12.12.2017 21:18 1,4 C 3,9 C 94 % 1017,0 hPa 0,0 l/m 6,8 km/h (2 Bft) S-SW 202 0 min 0,000 mm 0,0 UV-I 0 W/m 0,5 C 1,0 C 11,3 km/h (2 Bft) 100,00 %
12.12.2017 21:20 1,4 C 3,9 C 94 % 1017,0 hPa 0,0 l/m 11,3 km/h (2 Bft) S-SW 211 0 min 0,000 mm 0,0 UV-I 0 W/m 0,5 C -2,9 C 16,1 km/h (3 Bft) 100,00 %
12.12.2017 21:22 1,4 C 3,9 C 94 % 1017,0 hPa 0,0 l/m 10,1 km/h (2 Bft) S 170 0 min 0,000 mm 0,0 UV-I 0 W/m 0,5 C -2,0 C 16,1 km/h (3 Bft) 100,00 %
12.12.2017 21:24 1,4 C 3,9 C 94 % 1017,0 hPa 0,0 l/m 9,4 km/h (2 Bft) S-SO 168 0 min 0,000 mm 0,0 UV-I 0 W/m 0,5 C -1,4 C 16,1 km/h (3 Bft) 98,00 %
12.12.2017 21:26 1,4 C 3,9 C 94 % 1017,0 hPa 0,0 l/m 9,1 km/h (2 Bft) S-SW 205 0 min 0,000 mm 0,0 UV-I 0 W/m 0,5 C -1,2 C 12,9 km/h (3 Bft) 100,00 %
12.12.2017 21:28 1,4 C 3,9 C 94 % 1016,9 hPa 0,0 l/m 10,1 km/h (2 Bft) S-SW 207 0 min 0,000 mm 0,0 UV-I 0 W/m 0,5 C -2,0 C 16,1 km/h (3 Bft) 100,00 %
12.12.2017 21:30 1,4 C 3,9 C 94 % 1016,9 hPa 0,0 l/m 10,5 km/h (2 Bft) S-SW 210 0 min 0,000 mm 0,0 UV-I 0 W/m 0,5 C -2,3 C 14,5 km/h (3 Bft) 97,87 %
12.12.2017 21:32 1,4 C 3,9 C 94 % 1017,0 hPa 0,0 l/m 11,2 km/h (2 Bft) S 184 0 min 0,000 mm 0,0 UV-I 0 W/m 0,5 C -2,8 C 17,7 km/h (3 Bft) 100,00 %
12.12.2017 21:34 1,4 C 3,9 C 94 % 1017,0 hPa 0,0 l/m 11,3 km/h (2 Bft) W-SW 258 0 min 0,000 mm 0,0 UV-I 0 W/m 0,5 C -2,9 C 17,7 km/h (3 Bft) 100,00 %
12.12.2017 21:36 1,5 C 3,9 C 94 % 1017,0 hPa 0,0 l/m 9,6 km/h (2 Bft) SW 220 0 min 0,000 mm 0,0 UV-I 0 W/m 0,6 C -1,5 C 14,5 km/h (3 Bft) 97,87 %
12.12.2017 21:38 1,5 C 3,9 C 94 % 1017,0 hPa 0,0 l/m 10,2 km/h (2 Bft) S-SW 205 0 min 0,000 mm 0,0 UV-I 0 W/m 0,6 C -2,0 C 14,5 km/h (3 Bft) 100,00 %
12.12.2017 21:40 1,5 C 3,9 C 94 % 1017,0 hPa 0,0 l/m 10,9 km/h (2 Bft) S-SW 209 0 min 0,000 mm 0,0 UV-I 0 W/m 0,6 C -2,5 C 19,3 km/h (3 Bft) 97,87 %
12.12.2017 21:42 1,5 C 3,9 C 94 % 1017,0 hPa 0,0 l/m 11,0 km/h (2 Bft) S 171 0 min 0,000 mm 0,0 UV-I 0 W/m 0,6 C -2,6 C 19,3 km/h (3 Bft) 97,87 %
12.12.2017 21:44 1,5 C 3,9 C 94 % 1017,0 hPa 0,0 l/m 12,7 km/h (3 Bft) S 180 0 min 0,000 mm 0,0 UV-I 0 W/m 0,6 C -3,7 C 19,3 km/h (3 Bft) 97,62 %
12.12.2017 21:46 1,4 C 3,9 C 94 % 1017,0 hPa 0,0 l/m 13,1 km/h (3 Bft) S-SW 200 0 min 0,000 mm 0,0 UV-I 0 W/m 0,5 C -4,1 C 20,9 km/h (4 Bft) 100,00 %
12.12.2017 21:48 1,5 C 3,9 C 94 % 1017,0 hPa 0,0 l/m 11,1 km/h (2 Bft) S-SW 211 0 min 0,000 mm 0,0 UV-I 0 W/m 0,6 C -2,6 C 17,7 km/h (3 Bft) 97,87 %
12.12.2017 21:50 1,5 C 3,9 C 94 % 1017,0 hPa 0,0 l/m 12,6 km/h (3 Bft) S-SW 210 0 min 0,000 mm 0,0 UV-I 0 W/m 0,6 C -3,7 C 17,7 km/h (3 Bft) 95,74 %
12.12.2017 21:52 1,5 C 3,9 C 94 % 1017,1 hPa 0,0 l/m 10,2 km/h (2 Bft) SW 220 0 min 0,000 mm 0,0 UV-I 0 W/m 0,6 C -2,0 C 17,7 km/h (3 Bft) 100,00 %
12.12.2017 21:54 1,5 C 3,9 C 93 % 1017,2 hPa 0,0 l/m 10,4 km/h (2 Bft) S-SW 200 0 min 0,000 mm 0,0 UV-I 0 W/m 0,5 C -2,1 C 16,1 km/h (3 Bft) 95,74 %
12.12.2017 21:56 1,6 C 3,9 C 94 % 1017,3 hPa 0,0 l/m 8,4 km/h (2 Bft) S-SW 213 0 min 0,000 mm 0,0 UV-I 0 W/m 0,7 C -0,3 C 12,9 km/h (3 Bft) 96,00 %
12.12.2017 21:58 1,6 C 3,9 C 93 % 1017,2 hPa 0,0 l/m 9,1 km/h (2 Bft) W-SW 239 0 min 0,000 mm 0,0 UV-I 0 W/m 0,6 C -0,9 C 14,5 km/h (3 Bft) 98,00 %
12.12.2017 22:00 1,6 C 3,9 C 93 % 1017,3 hPa 0,0 l/m 7,1 km/h (2 Bft) W-SW 239 0 min 0,000 mm 0,0 UV-I 0 W/m 0,6 C 0,9 C 11,3 km/h (2 Bft) 97,37 %
12.12.2017 22:02 1,6 C 3,9 C 93 % 1017,2 hPa 0,0 l/m 8,6 km/h (2 Bft) SW 216 0 min 0,000 mm 0,0 UV-I 0 W/m 0,6 C -0,5 C 14,5 km/h (3 Bft) 95,74 %
12.12.2017 22:04 1,5 C 3,9 C 93 % 1017,2 hPa 0,0 l/m 6,5 km/h (2 Bft) SW 227 0 min 0,000 mm 0,0 UV-I 0 W/m 0,5 C 1,4 C 9,7 km/h (2 Bft) 97,87 %
12.12.2017 22:06 1,5 C 3,9 C 93 % 1017,2 hPa 0,0 l/m 7,5 km/h (2 Bft) S-SW 209 0 min 0,000 mm 0,0 UV-I 0 W/m 0,5 C 0,4 C 12,9 km/h (3 Bft) 95,74 %
12.12.2017 22:08 1,5 C 3,9 C 93 % 1017,2 hPa 0,0 l/m 7,6 km/h (2 Bft) S-SW 199 0 min 0,000 mm 0,0 UV-I 0 W/m 0,5 C 0,3 C 11,3 km/h (2 Bft) 93,62 %
12.12.2017 22:10 1,5 C 3,9 C 93 % 1017,3 hPa 0,0 l/m 6,8 km/h (2 Bft) SW 219 0 min 0,000 mm 0,0 UV-I 0 W/m 0,5 C 1,1 C 12,9 km/h (3 Bft) 97,87 %
12.12.2017 22:12 1,4 C 3,9 C 93 % 1017,2 hPa 0,0 l/m 6,4 km/h (2 Bft) SW 223 0 min 0,000 mm 0,0 UV-I 0 W/m 0,4 C 1,4 C 9,7 km/h (2 Bft) 98,00 %
12.12.2017 22:14 1,4 C 3,9 C 93 % 1017,3 hPa 0,0 l/m 8,6 km/h (2 Bft) S 175 0 min 0,000 mm 0,0 UV-I 0 W/m 0,4 C -0,7 C 11,3 km/h (2 Bft) 94,00 %
12.12.2017 22:16 1,4 C 3,9 C 93 % 1017,3 hPa 0,0 l/m 8,3 km/h (2 Bft) S-SW 198 0 min 0,000 mm 0,0 UV-I 0 W/m 0,4 C -0,5 C 12,9 km/h (3 Bft) 93,62 %
12.12.2017 22:18 1,5 C 3,9 C 93 % 1017,4 hPa 0,0 l/m 9,0 km/h (2 Bft) SW 227 0 min 0,000 mm 0,0 UV-I 0 W/m 0,5 C -1,0 C 14,5 km/h (3 Bft) 95,74 %
12.12.2017 22:20 1,5 C 3,9 C 93 % 1017,4 hPa 0,0 l/m 8,1 km/h (2 Bft) SW 234 0 min 0,000 mm 0,0 UV-I 0 W/m 0,5 C -0,2 C 11,3 km/h (2 Bft) 95,74 %
12.12.2017 22:22 1,5 C 3,9 C 93 % 1017,4 hPa 0,0 l/m 10,2 km/h (2 Bft) SW 219 0 min 0,000 mm 0,0 UV-I 0 W/m 0,5 C -2,0 C 14,5 km/h (3 Bft) 95,74 %
12.12.2017 22:24 1,5 C 3,9 C 92 % 1017,5 hPa 0,0 l/m 9,5 km/h (2 Bft) W-SW 238 0 min 0,000 mm 0,0 UV-I 0 W/m 0,3 C -1,4 C 14,5 km/h (3 Bft) 95,74 %
12.12.2017 22:26 1,5 C 3,9 C 92 % 1017,6 hPa 0,0 l/m 7,8 km/h (2 Bft) SW 230 0 min 0,000 mm 0,0 UV-I 0 W/m 0,3 C 0,1 C 14,5 km/h (3 Bft) 95,74 %
12.12.2017 22:28 1,5 C 3,9 C 92 % 1017,6 hPa 0,0 l/m 8,4 km/h (2 Bft) SW 222 0 min 0,000 mm 0,0 UV-I 0 W/m 0,3 C -0,4 C 12,9 km/h (3 Bft) 95,24 %
12.12.2017 22:30 1,6 C 3,9 C 92 % 1017,6 hPa 0,0 l/m 7,0 km/h (2 Bft) S-SW 210 0 min 0,000 mm 0,0 UV-I 0 W/m 0,4 C 1,0 C 12,9 km/h (3 Bft) 95,74 %
12.12.2017 22:32 1,6 C 3,9 C 92 % 1017,7 hPa 0,0 l/m 8,2 km/h (2 Bft) SW 233 0 min 0,000 mm 0,0 UV-I 0 W/m 0,4 C -0,2 C 12,9 km/h (3 Bft) 93,62 %
12.12.2017 22:34 1,6 C 3,9 C 92 % 1017,7 hPa 0,0 l/m 9,1 km/h (2 Bft) W-SW 246 0 min 0,000 mm 0,0 UV-I 0 W/m 0,4 C -0,9 C 14,5 km/h (3 Bft) 93,62 %
12.12.2017 22:36 1,6 C 3,9 C 92 % 1017,7 hPa 0,0 l/m 9,9 km/h (2 Bft) SW 223 0 min 0,000 mm 0,0 UV-I 0 W/m 0,4 C -1,6 C 12,9 km/h (3 Bft) 95,74 %
12.12.2017 22:38 1,6 C 3,9 C 92 % 1017,6 hPa 0,0 l/m 8,9 km/h (2 Bft) S-SW 212 0 min 0,000 mm 0,0 UV-I 0 W/m 0,4 C -0,8 C 14,5 km/h (3 Bft) 93,62 %
12.12.2017 22:40 1,6 C 3,9 C 91 % 1017,5 hPa 0,0 l/m 10,1 km/h (2 Bft) SW 230 0 min 0,000 mm 0,0 UV-I 0 W/m 0,3 C -1,8 C 14,5 km/h (3 Bft) 90,00 %
12.12.2017 22:42 1,6 C 3,9 C 91 % 1017,6 hPa 0,0 l/m 8,8 km/h (2 Bft) SW 227 0 min 0,000 mm 0,0 UV-I 0 W/m 0,3 C -0,7 C 16,1 km/h (3 Bft) 97,14 %
12.12.2017 22:44 1,6 C 3,9 C 91 % 1017,7 hPa 0,0 l/m 8,2 km/h (2 Bft) S-SW 207 0 min 0,000 mm 0,0 UV-I 0 W/m 0,3 C -0,2 C 12,9 km/h (3 Bft) 92,31 %
12.12.2017 22:46 1,5 C 3,9 C 91 % 1017,8 hPa 0,0 l/m 8,4 km/h (2 Bft) SW 217 0 min 0,000 mm 0,0 UV-I 0 W/m 0,2 C -0,4 C 12,9 km/h (3 Bft) 95,74 %
12.12.2017 22:48 1,5 C 3,9 C 91 % 1017,8 hPa 0,0 l/m 8,2 km/h (2 Bft) SW 215 0 min 0,000 mm 0,0 UV-I 0 W/m 0,2 C -0,3 C 12,9 km/h (3 Bft) 95,74 %
12.12.2017 22:50 1,5 C 3,9 C 91 % 1017,8 hPa 0,0 l/m 10,5 km/h (2 Bft) SW 235 0 min 0,000 mm 0,0 UV-I 0 W/m 0,2 C -2,2 C 14,5 km/h (3 Bft) 93,62 %
12.12.2017 22:52 1,4 C 3,9 C 91 % 1017,7 hPa 0,0 l/m 8,4 km/h (2 Bft) SW 230 0 min 0,000 mm 0,0 UV-I 0 W/m 0,1 C -0,5 C 12,9 km/h (3 Bft) 95,74 %
12.12.2017 22:54 1,4 C 3,9 C 92 % 1017,7 hPa 0,0 l/m 9,1 km/h (2 Bft) SW 236 0 min 0,000 mm 0,0 UV-I 0 W/m 0,2 C -1,2 C 12,9 km/h (3 Bft) 98,00 %
12.12.2017 22:56 1,4 C 3,9 C 92 % 1017,7 hPa 0,0 l/m 8,0 km/h (2 Bft) S-SW 205 0 min 0,000 mm 0,0 UV-I 0 W/m 0,2 C -0,2 C 16,1 km/h (3 Bft) 95,74 %
12.12.2017 22:58 1,4 C 3,9 C 92 % 1017,8 hPa 0,0 l/m 9,0 km/h (2 Bft) SW 220 0 min 0,000 mm 0,0 UV-I 0 W/m 0,2 C -1,1 C 16,1 km/h (3 Bft) 97,87 %
12.12.2017 23:00 1,4 C 3,9 C 92 % 1017,8 hPa 0,0 l/m 10,2 km/h (2 Bft) SW 215 0 min 0,000 mm 0,0 UV-I 0 W/m 0,2 C -2,1 C 14,5 km/h (3 Bft) 93,62 %
12.12.2017 23:02 1,5 C 3,9 C 91 % 1017,8 hPa 0,0 l/m 9,8 km/h (2 Bft) SW 234 0 min 0,000 mm 0,0 UV-I 0 W/m 0,2 C -1,6 C 14,5 km/h (3 Bft) 94,00 %
12.12.2017 23:04 1,6 C 3,9 C 91 % 1017,9 hPa 0,0 l/m 7,5 km/h (2 Bft) SW 223 0 min 0,000 mm 0,0 UV-I 0 W/m 0,3 C 0,5 C 11,3 km/h (2 Bft) 97,87 %
12.12.2017 23:06 1,6 C 3,9 C 91 % 1017,9 hPa 0,0 l/m 9,4 km/h (2 Bft) W-SW 242 0 min 0,000 mm 0,0 UV-I 0 W/m 0,3 C -1,2 C 16,1 km/h (3 Bft) 97,44 %
12.12.2017 23:08 1,6 C 3,9 C 91 % 1017,9 hPa 0,0 l/m 8,6 km/h (2 Bft) S-SW 198 0 min 0,000 mm 0,0 UV-I 0 W/m 0,3 C -0,5 C 14,5 km/h (3 Bft) 100,00 %
12.12.2017 23:10 1,5 C 3,9 C 91 % 1017,9 hPa 0,0 l/m 9,0 km/h (2 Bft) W-SW 248 0 min 0,000 mm 0,0 UV-I 0 W/m 0,2 C -1,0 C 14,5 km/h (3 Bft) 97,87 %
12.12.2017 23:12 1,5 C 3,9 C 91 % 1017,9 hPa 0,0 l/m 8,5 km/h (2 Bft) S-SW 197 0 min 0,000 mm 0,0 UV-I 0 W/m 0,2 C -0,5 C 12,9 km/h (3 Bft) 100,00 %
12.12.2017 23:14 1,5 C 3,9 C 91 % 1018,0 hPa 0,0 l/m 8,1 km/h (2 Bft) SW 229 0 min 0,000 mm 0,0 UV-I 0 W/m 0,2 C -0,2 C 14,5 km/h (3 Bft) 100,00 %
12.12.2017 23:16 1,6 C 3,9 C 91 % 1018,0 hPa 0,0 l/m 8,7 km/h (2 Bft) S-SW 213 0 min 0,000 mm 0,0 UV-I 0 W/m 0,3 C -0,6 C 12,9 km/h (3 Bft) 100,00 %
12.12.2017 23:18 1,6 C 3,9 C 91 % 1018,0 hPa 0,0 l/m 9,5 km/h (2 Bft) S-SW 199 0 min 0,000 mm 0,0 UV-I 0 W/m 0,3 C -1,3 C 16,1 km/h (3 Bft) 100,00 %
12.12.2017 23:20 1,6 C 3,9 C 91 % 1018,0 hPa 0,0 l/m 8,7 km/h (2 Bft) SW 228 0 min 0,000 mm 0,0 UV-I 0 W/m 0,3 C -0,6 C 16,1 km/h (3 Bft) 100,00 %
12.12.2017 23:22 1,6 C 3,9 C 91 % 1018,0 hPa 0,0 l/m 7,4 km/h (2 Bft) SW 232 0 min 0,000 mm 0,0 UV-I 0 W/m 0,3 C 0,6 C 11,3 km/h (2 Bft) 100,00 %
12.12.2017 23:24 1,6 C 3,9 C 91 % 1018,1 hPa 0,0 l/m 10,7 km/h (2 Bft) SW 231 0 min 0,000 mm 0,0 UV-I 0 W/m 0,3 C -2,2 C 16,1 km/h (3 Bft) 97,87 %
12.12.2017 23:25 1,6 C 3,9 C 91 % 1018,0 hPa 0,0 l/m 9,7 km/h (2 Bft) SW 225 0 min 0,000 mm 0,0 UV-I 0 W/m 0,3 C -1,4 C 16,1 km/h (3 Bft) 97,37 %
12.12.2017 23:28 1,6 C 3,9 C 91 % 1018,0 hPa 0,0 l/m 11,5 km/h (2 Bft) SW 221 0 min 0,000 mm 0,0 UV-I 0 W/m 0,3 C -2,8 C 12,9 km/h (3 Bft) 100,00 %
12.12.2017 23:30 1,5 C 3,9 C 91 % 1018,1 hPa 0,0 l/m 11,1 km/h (2 Bft) SW 229 0 min 0,000 mm 0,0 UV-I 0 W/m 0,2 C -2,6 C 17,7 km/h (3 Bft) 97,87 %
12.12.2017 23:32 1,5 C 3,9 C 91 % 1018,1 hPa 0,0 l/m 11,3 km/h (2 Bft) SW 235 0 min 0,000 mm 0,0 UV-I 0 W/m 0,2 C -2,8 C 17,7 km/h (3 Bft) 96,00 %
12.12.2017 23:34 1,6 C 3,9 C 91 % 1018,1 hPa 0,0 l/m 11,2 km/h (2 Bft) W-SW 238 0 min 0,000 mm 0,0 UV-I 0 W/m 0,3 C -2,6 C 19,3 km/h (3 Bft) 100,00 %
12.12.2017 23:36 1,6 C 3,9 C 91 % 1018,1 hPa 0,0 l/m 10,2 km/h (2 Bft) SW 234 0 min 0,000 mm 0,0 UV-I 0 W/m 0,3 C -1,8 C 14,5 km/h (3 Bft) 100,00 %
12.12.2017 23:38 1,6 C 3,9 C 91 % 1018,1 hPa 0,0 l/m 11,3 km/h (2 Bft) W-SW 243 0 min 0,000 mm 0,0 UV-I 0 W/m 0,3 C -2,7 C 16,1 km/h (3 Bft) 95,12 %
12.12.2017 23:40 1,6 C 3,9 C 90 % 1018,1 hPa 0,0 l/m 11,8 km/h (2 Bft) W-SW 237 0 min 0,000 mm 0,0 UV-I 0 W/m 0,1 C -3,0 C 17,7 km/h (3 Bft) 100,00 %
12.12.2017 23:42 1,5 C 3,9 C 90 % 1018,1 hPa 0,0 l/m 12,5 km/h (3 Bft) W-SW 242 0 min 0,000 mm 0,0 UV-I 0 W/m 0,0 C -3,6 C 16,1 km/h (3 Bft) 97,87 %
12.12.2017 23:44 1,6 C 3,9 C 90 % 1018,2 hPa 0,0 l/m 9,8 km/h (2 Bft) W-SW 238 0 min 0,000 mm 0,0 UV-I 0 W/m 0,1 C -1,5 C 16,1 km/h (3 Bft) 98,00 %
12.12.2017 23:45 1,6 C 3,9 C 90 % 1018,2 hPa 0,0 l/m 11,3 km/h (2 Bft) SW 225 0 min 0,000 mm 0,0 UV-I 0 W/m 0,1 C -2,7 C 16,1 km/h (3 Bft) 100,00 %
12.12.2017 23:48 1,6 C 3,9 C 90 % 1018,2 hPa 0,0 l/m 9,2 km/h (2 Bft) SW 217 0 min 0,000 mm 0,0 UV-I 0 W/m 0,1 C -1,0 C 14,5 km/h (3 Bft) 100,00 %
12.12.2017 23:50 1,6 C 3,9 C 90 % 1018,2 hPa 0,0 l/m 9,2 km/h (2 Bft) W-SW 241 0 min 0,000 mm 0,0 UV-I 0 W/m 0,1 C -1,0 C 16,1 km/h (3 Bft) 100,00 %
12.12.2017 23:52 1,6 C 3,9 C 90 % 1018,3 hPa 0,0 l/m 9,6 km/h (2 Bft) SW 231 0 min 0,000 mm 0,0 UV-I 0 W/m 0,1 C -1,4 C 16,1 km/h (3 Bft) 100,00 %
12.12.2017 23:54 1,6 C 3,9 C 90 % 1018,3 hPa 0,0 l/m 9,1 km/h (2 Bft) SW 223 0 min 0,000 mm 0,0 UV-I 0 W/m 0,1 C -0,9 C 14,5 km/h (3 Bft) 100,00 %
12.12.2017 23:56 1,6 C 3,9 C 90 % 1018,3 hPa 0,0 l/m 9,6 km/h (2 Bft) SW 222 0 min 0,000 mm 0,0 UV-I 0 W/m 0,1 C -1,4 C 14,5 km/h (3 Bft) 100,00 %
12.12.2017 23:58 1,5 C 3,9 C 90 % 1018,3 hPa 0,0 l/m 10,8 km/h (2 Bft) SW 236 0 min 0,000 mm 0,0 UV-I 0 W/m 0,0 C -2,4 C 16,1 km/h (3 Bft) 100,00 %
_ Min-Zeit 21:06 00:00 11:22 00:00 - 11:50 - - - - - - 23:42 12:26 11:50 01:02
Minimum _ 1,4 C 3,9 C 83 % 992,2 hPa - 1,6 km/h (1 Bft) - - - - - - 0,0 C -4,8 C 3,2 km/h (1 Bft) 86,96 %
_ Max-Zeit 08:56 00:00 05:34 23:52 03:58 10:54 - - 00:00 12:00 00:00 12:38 08:50 08:10 04:26 00:02
Maximum _ 5,3 C 3,9 C 95 % 1018,3 hPa 0,2 l/m 21,1 km/h
W-SW (4 Bft)
- - 0 min 0,051 mm 0,0 UV-I 116 W/m 3,7 C 5,1 C 32,2 km/h
W (5 Bft)
100,00 %
Durchschnitt _ 3,2 C 3,9 C 90 % 1008,2 hPa #5,2 l/m 10,7 km/h (2 Bft) SW - #0 min. #0,330 mm 0,0 UV-I 41 W/m 1,7 C -0,2 C 16,4 km/h (3 Bft) 98,03 %